[[{"header":{"parameterUnit":"m.s-1","parameterCategory":1,"la1":30.6,"la2":29.2853,"lo1":-89.7004,"lo2":-87.6739,"dy":0.0162,"dx":0.0183,"nx":112,"ny":82,"refTime":"2024-03-22T06:00:00:Z","depth":0,"parameterNumber":2,"parameterNumberName":"U-component_of_WINDS"},"data":[0.0,0.0,0.0,0.0,0.0,0.0,0.0,0.0,0.0,0.0,0.0,0.0,0.0,0.0,0.0,0.0,0.0,0.0,0.0,0.0,0.0,0.0,0.0,0.0,0.0,0.0,0.0,0.0,0.0,0.0,0.0,0.0,0.0,0.0,0.0,0.0,0.0,0.0,0.0,0.0,0.0,0.0,0.0,0.0,0.0,0.0,0.0,0.0,0.0,0.0,0.0,0.0,0.0,0.0,0.0,0.0,0.0,0.0,0.0,0.0,0.0,0.0,0.0,0.0,0.0,0.0,0.0,0.0,0.0,0.0,0.0,0.0,0.0,0.0,0.0,0.0,0.0,0.0,0.0,0.0,0.0,0.0,0.0,0.0,0.0,0.0,0.0,0.0,0.0,0.0,5.5403,5.5403,5.5403,5.5403,5.5403,5.5403,5.5403,5.5403,0.0,0.0,0.0,0.0,0.0,0.0,0.0,0.0,0.0,0.0,0.0,0.0,0.0,0.0,0.0,0.0,0.0,0.0,0.0,0.0,0.0,0.0,0.0,0.0,0.0,0.0,0.0,0.0,0.0,0.0,0.0,0.0,0.0,0.0,0.0,0.0,0.0,0.0,0.0,0.0,0.0,0.0,0.0,0.0,0.0,0.0,0.0,0.0,0.0,0.0,0.0,0.0,0.0,0.0,0.0,0.0,0.0,0.0,0.0,0.0,0.0,0.0,0.0,0.0,0.0,0.0,0.0,0.0,0.0,0.0,0.0,0.0,0.0,0.0,0.0,0.0,0.0,0.0,0.0,0.0,0.0,0.0,0.0,0.0,0.0,0.0,0.0,0.0,0.0,0.0,0.0,0.0,0.0,0.0,0.0,0.0,0.0,0.0,0.0,0.0,0.0,0.0,0.0,0.0,5.5403,5.5403,5.5403,5.5403,5.5403,5.5403,5.5403,5.5403,0.0,0.0,0.0,0.0,0.0,0.0,0.0,0.0,0.0,0.0,0.0,0.0,0.0,0.0,0.0,0.0,0.0,0.0,0.0,0.0,0.0,0.0,0.0,0.0,0.0,0.0,0.0,0.0,0.0,0.0,0.0,0.0,0.0,0.0,0.0,0.0,0.0,0.0,0.0,0.0,0.0,0.0,0.0,0.0,0.0,0.0,0.0,0.0,0.0,0.0,0.0,0.0,0.0,0.0,0.0,0.0,0.0,0.0,0.0,0.0,0.0,0.0,0.0,0.0,0.0,0.0,0.0,0.0,0.0,0.0,0.0,0.0,0.0,0.0,0.0,0.0,0.0,0.0,0.0,0.0,0.0,0.0,0.0,0.0,0.0,0.0,0.0,0.0,0.0,0.0,0.0,0.0,0.0,0.0,0.0,0.0,0.0,0.0,0.0,0.0,0.0,0.0,0.0,5.5409,5.5403,5.5403,5.5403,5.5403,5.5403,5.5403,5.5403,5.5403,5.5403,0.0,0.0,0.0,0.0,0.0,0.0,0.0,0.0,0.0,0.0,0.0,0.0,0.0,0.0,0.0,0.0,0.0,0.0,0.0,0.0,0.0,0.0,0.0,0.0,0.0,0.0,0.0,0.0,0.0,0.0,0.0,0.0,0.0,0.0,0.0,0.0,0.0,0.0,0.0,0.0,0.0,0.0,0.0,0.0,0.0,0.0,0.0,0.0,0.0,0.0,0.0,0.0,0.0,0.0,0.0,0.0,0.0,0.0,0.0,0.0,0.0,0.0,0.0,0.0,0.0,0.0,0.0,0.0,0.0,0.0,0.0,0.0,0.0,0.0,0.0,0.0,0.0,0.0,0.0,0.0,0.0,0.0,0.0,0.0,0.0,0.0,0.0,0.0,0.0,0.0,0.0,0.0,0.0,0.0,0.0,0.0,0.0,0.0,0.0,0.0,0.0,0.0,5.539,5.5403,5.5403,5.5403,5.5403,5.5403,5.5403,5.5403,5.5403,5.5403,0.0,0.0,0.0,0.0,0.0,0.0,0.0,0.0,0.0,0.0,0.0,0.0,0.0,0.0,0.0,0.0,0.0,0.0,0.0,0.0,0.0,0.0,0.0,0.0,0.0,0.0,0.0,0.0,0.0,0.0,0.0,0.0,0.0,0.0,0.0,0.0,0.0,0.0,0.0,0.0,0.0,0.0,0.0,0.0,0.0,0.0,0.0,0.0,0.0,0.0,0.0,0.0,0.0,0.0,0.0,0.0,0.0,0.0,0.0,0.0,0.0,0.0,0.0,0.0,0.0,0.0,0.0,0.0,0.0,0.0,0.0,0.0,0.0,0.0,0.0,0.0,0.0,0.0,0.0,0.0,0.0,0.0,0.0,0.0,0.0,0.0,0.0,0.0,0.0,0.0,0.0,0.0,0.0,0.0,0.0,0.0,0.0,0.0,0.0,0.0,0.0,0.0,5.5403,5.5403,5.5403,5.5403,5.5403,5.5403,5.5403,5.5403,5.5403,5.5403,0.0,0.0,0.0,0.0,0.0,0.0,0.0,0.0,0.0,0.0,0.0,0.0,0.0,0.0,0.0,0.0,0.0,0.0,0.0,0.0,0.0,0.0,0.0,0.0,0.0,0.0,0.0,0.0,0.0,0.0,0.0,0.0,0.0,0.0,0.0,0.0,0.0,0.0,0.0,0.0,0.0,0.0,0.0,0.0,0.0,0.0,0.0,0.0,0.0,0.0,0.0,0.0,0.0,0.0,0.0,0.0,0.0,0.0,0.0,0.0,0.0,0.0,0.0,0.0,0.0,0.0,0.0,0.0,0.0,0.0,0.0,0.0,0.0,0.0,0.0,0.0,0.0,0.0,0.0,0.0,0.0,0.0,0.0,0.0,0.0,0.0,0.0,0.0,0.0,0.0,0.0,0.0,0.0,0.0,0.0,0.0,0.0,0.0,0.0,0.0,0.0,0.0,5.5409,5.5403,5.5403,5.5403,5.5403,5.5403,5.5403,5.5403,5.5403,0.0,0.0,0.0,0.0,0.0,0.0,0.0,0.0,0.0,0.0,0.0,0.0,0.0,0.0,0.0,0.0,0.0,0.0,0.0,0.0,0.0,0.0,0.0,0.0,0.0,0.0,0.0,0.0,0.0,0.0,0.0,0.0,0.0,0.0,0.0,0.0,0.0,0.0,0.0,0.0,0.0,0.0,0.0,0.0,0.0,0.0,0.0,0.0,0.0,0.0,0.0,0.0,0.0,0.0,0.0,0.0,0.0,0.0,0.0,0.0,0.0,0.0,0.0,0.0,0.0,0.0,0.0,0.0,0.0,0.0,0.0,0.0,0.0,0.0,0.0,0.0,0.0,0.0,0.0,0.0,0.0,0.0,0.0,0.0,0.0,0.0,0.0,0.0,0.0,0.0,0.0,0.0,0.0,0.0,0.0,0.0,0.0,0.0,0.0,0.0,0.0,0.0,5.5466,5.5421,5.5403,5.5403,5.5403,5.5403,5.5403,5.5403,5.5403,5.5403,0.0,0.0,0.0,0.0,0.0,0.0,0.0,0.0,0.0,0.0,0.0,0.0,0.0,0.0,0.0,0.0,0.0,0.0,0.0,0.0,0.0,0.0,0.0,0.0,0.0,0.0,0.0,0.0,0.0,0.0,0.0,0.0,0.0,0.0,0.0,0.0,0.0,0.0,0.0,0.0,0.0,0.0,0.0,0.0,0.0,0.0,0.0,0.0,0.0,0.0,0.0,0.0,0.0,0.0,0.0,0.0,0.0,0.0,0.0,0.0,0.0,0.0,0.0,0.0,0.0,0.0,0.0,0.0,0.0,0.0,0.0,0.0,0.0,0.0,0.0,0.0,0.0,0.0,0.0,0.0,0.0,0.0,0.0,0.0,0.0,0.0,0.0,0.0,0.0,0.0,0.0,0.0,0.0,0.0,0.0,0.0,0.0,0.0,0.0,0.0,0.0,0.0,5.5607,5.5499,5.5403,5.5403,5.5403,5.5403,5.5403,5.5403,5.5403,0.0,0.0,0.0,0.0,0.0,0.0,0.0,0.0,0.0,0.0,0.0,0.0,0.0,0.0,0.0,0.0,0.0,0.0,0.0,0.0,0.0,0.0,0.0,0.0,0.0,0.0,0.0,0.0,0.0,0.0,0.0,0.0,0.0,0.0,0.0,0.0,0.0,0.0,0.0,0.0,0.0,0.0,0.0,0.0,0.0,0.0,0.0,0.0,0.0,0.0,0.0,0.0,0.0,0.0,0.0,0.0,0.0,0.0,0.0,0.0,0.0,0.0,0.0,0.0,0.0,0.0,0.0,0.0,0.0,0.0,0.0,0.0,0.0,0.0,0.0,0.0,0.0,0.0,0.0,0.0,0.0,0.0,0.0,0.0,0.0,0.0,0.0,0.0,0.0,0.0,0.0,0.0,0.0,0.0,0.0,0.0,0.0,0.0,0.0,0.0,0.0,0.0,0.0,5.5609,5.5499,5.5403,5.5403,5.5403,5.5403,5.5403,5.5403,5.5403,5.5403,0.0,0.0,0.0,0.0,0.0,0.0,0.0,0.0,0.0,0.0,0.0,0.0,0.0,0.0,0.0,0.0,0.0,0.0,0.0,0.0,0.0,0.0,0.0,0.0,0.0,0.0,0.0,0.0,0.0,0.0,0.0,0.0,0.0,0.0,0.0,0.0,0.0,0.0,0.0,0.0,0.0,0.0,0.0,0.0,0.0,0.0,0.0,0.0,0.0,0.0,0.0,0.0,0.0,0.0,0.0,0.0,0.0,0.0,0.0,0.0,0.0,0.0,0.0,0.0,0.0,0.0,0.0,0.0,0.0,0.0,0.0,0.0,0.0,0.0,0.0,0.0,0.0,0.0,0.0,0.0,0.0,0.0,0.0,0.0,0.0,0.0,0.0,0.0,0.0,0.0,0.0,0.0,0.0,0.0,0.0,0.0,0.0,0.0,0.0,0.0,0.0,0.0,5.5842,5.5577,5.5409,5.5476,5.5415,5.5403,5.5403,5.5403,5.5403,5.5403,0.0,0.0,0.0,0.0,0.0,0.0,0.0,0.0,0.0,0.0,0.0,0.0,0.0,0.0,0.0,0.0,0.0,0.0,0.0,0.0,0.0,0.0,0.0,0.0,0.0,0.0,0.0,0.0,0.0,0.0,0.0,0.0,0.0,0.0,0.0,0.0,0.0,0.0,0.0,0.0,0.0,0.0,0.0,0.0,0.0,0.0,0.0,0.0,0.0,0.0,0.0,0.0,0.0,0.0,0.0,0.0,0.0,0.0,0.0,0.0,0.0,0.0,0.0,0.0,0.0,0.0,0.0,0.0,0.0,0.0,0.0,0.0,0.0,0.0,0.0,0.0,0.0,0.0,0.0,0.0,0.0,0.0,0.0,0.0,0.0,0.0,0.0,0.0,0.0,0.0,0.0,0.0,0.0,0.0,0.0,0.0,0.0,0.0,0.0,0.0,0.0,0.0,5.6173,5.575,5.5499,5.5607,5.5527,5.546,5.546,5.5434,5.5409,5.5409,0.0,0.0,0.0,0.0,0.0,0.0,0.0,0.0,0.0,0.0,0.0,0.0,0.0,0.0,0.0,0.0,0.0,0.0,0.0,0.0,0.0,0.0,0.0,0.0,0.0,0.0,0.0,0.0,0.0,0.0,0.0,0.0,0.0,0.0,0.0,0.0,0.0,0.0,0.0,0.0,0.0,0.0,0.0,0.0,0.0,0.0,0.0,0.0,0.0,0.0,0.0,0.0,0.0,0.0,0.0,0.0,0.0,0.0,0.0,0.0,5.1372,5.1396,0.0,0.0,0.0,0.0,0.0,0.0,0.0,0.0,0.0,0.0,0.0,0.0,0.0,0.0,0.0,0.0,0.0,0.0,0.0,0.0,0.0,0.0,0.0,0.0,0.0,0.0,0.0,0.0,0.0,0.0,0.0,0.0,0.0,0.0,0.0,0.0,0.0,0.0,0.0,0.0,5.6188,5.5965,5.5808,5.5825,5.5808,5.5789,5.5789,5.5647,5.5561,5.5561,5.547,0.0,0.0,0.0,0.0,0.0,0.0,0.0,0.0,0.0,0.0,0.0,0.0,0.0,0.0,0.0,0.0,0.0,0.0,0.0,0.0,0.0,0.0,0.0,0.0,0.0,0.0,0.0,0.0,0.0,0.0,0.0,0.0,0.0,0.0,0.0,0.0,0.0,0.0,0.0,0.0,0.0,0.0,0.0,0.0,0.0,0.0,0.0,0.0,0.0,0.0,0.0,0.0,0.0,0.0,0.0,0.0,0.0,0.0,0.0,5.1784,5.1985,0.0,0.0,0.0,0.0,0.0,0.0,0.0,0.0,0.0,0.0,0.0,0.0,0.0,0.0,0.0,0.0,0.0,0.0,0.0,0.0,0.0,0.0,0.0,0.0,0.0,0.0,0.0,0.0,0.0,0.0,0.0,0.0,0.0,0.0,0.0,0.0,0.0,0.0,0.0,0.0,5.6319,5.6073,5.5949,5.6029,5.5965,5.5915,5.5915,5.5807,5.575,5.575,5.6074,0.0,0.0,0.0,0.0,0.0,0.0,0.0,0.0,0.0,0.0,0.0,0.0,0.0,0.0,0.0,0.0,0.0,0.0,0.0,0.0,0.0,0.0,0.0,0.0,0.0,0.0,0.0,0.0,0.0,0.0,0.0,0.0,0.0,0.0,0.0,0.0,0.0,0.0,0.0,0.0,0.0,0.0,0.0,0.0,0.0,0.0,0.0,0.0,0.0,0.0,0.0,0.0,0.0,5.1335,5.1335,5.1382,5.133,5.131,5.1349,5.2214,5.2513,5.2396,5.2539,0.0,0.0,0.0,0.0,0.0,0.0,0.0,0.0,0.0,0.0,0.0,0.0,0.0,0.0,0.0,0.0,0.0,0.0,0.0,0.0,0.0,0.0,5.6044,5.6407,5.6347,5.6107,5.5769,0.0,0.0,0.0,0.0,0.0,0.0,0.0,0.0,0.0,0.0,0.0,5.648,5.6219,5.6078,5.6239,5.6107,5.5998,5.5998,5.6117,5.6178,5.6178,5.6955,5.7332,0.0,0.0,0.0,0.0,0.0,0.0,0.0,0.0,0.0,0.0,0.0,0.0,0.0,0.0,0.0,0.0,0.0,0.0,0.0,0.0,0.0,0.0,0.0,0.0,0.0,0.0,0.0,0.0,0.0,0.0,0.0,0.0,4.6488,4.7235,0.0,0.0,0.0,0.0,0.0,0.0,0.0,0.0,0.0,0.0,0.0,0.0,0.0,5.131,5.1308,5.1308,5.1308,5.1308,5.13,5.13,5.1308,5.1308,5.13,5.1339,5.2224,0.0,5.1522,5.2285,0.0,0.0,0.0,0.0,0.0,0.0,0.0,0.0,0.0,0.0,0.0,0.0,0.0,0.0,0.0,0.0,0.0,0.0,0.0,0.0,0.0,0.0,5.6226,5.6437,5.6347,5.6181,5.6121,5.6306,5.6446,5.6427,5.6464,5.6488,0.0,0.0,0.0,0.0,0.0,0.0,5.6492,5.6446,5.6437,5.6465,5.6437,5.6427,5.6427,5.6951,5.7294,5.7294,5.7931,5.824,5.8053,5.8127,0.0,0.0,0.0,0.0,0.0,0.0,0.0,0.0,0.0,0.0,0.0,0.0,0.0,0.0,0.0,0.0,0.0,0.0,0.0,0.0,0.0,0.0,0.0,0.0,0.0,0.0,0.0,0.0,0.0,4.6635,4.7067,4.7444,4.793,4.856,0.0,0.0,0.0,0.0,0.0,0.0,0.0,0.0,0.0,5.1291,5.1303,5.1289,5.13,5.13,5.13,5.13,5.13,5.13,5.13,5.13,5.13,5.132,5.171,5.1651,5.1378,5.2243,5.2609,5.2538,0.0,0.0,0.0,0.0,5.1921,5.2045,5.3293,5.4066,5.4617,5.5494,0.0,0.0,0.0,0.0,0.0,0.0,0.0,5.65,5.6511,5.6437,5.6388,5.6474,5.6437,5.6358,5.6358,5.6437,5.6474,5.6347,5.6417,5.65,5.6488,5.6503,0.0,0.0,0.0,5.6508,5.6511,5.6503,5.6503,5.6503,5.6892,5.7165,5.7165,5.7887,5.8343,5.8343,5.8972,5.9252,5.905,5.9386,5.9509,0.0,0.0,0.0,0.0,0.0,0.0,0.0,0.0,0.0,0.0,0.0,0.0,0.0,0.0,0.0,0.0,0.0,0.0,0.0,0.0,0.0,0.0,0.0,0.0,0.0,0.0,0.0,0.0,4.695,4.7587,4.7801,4.8593,4.9477,0.0,0.0,0.0,0.0,0.0,0.0,5.1369,5.1336,5.1303,5.1303,5.1308,5.13,5.13,5.13,5.13,5.13,5.13,5.13,5.13,5.13,5.13,5.13,5.13,5.13,5.1359,5.2002,5.2263,5.22,5.1544,5.1336,5.1401,5.1622,5.1668,5.1752,5.2629,5.3362,5.4048,5.4924,5.5782,5.6503,5.6503,0.0,0.0,0.0,0.0,5.6503,5.6503,5.6503,5.6503,5.6503,5.6503,5.6503,5.6503,5.6503,5.6465,5.6306,5.6398,5.6492,5.6508,5.6508,0.0,5.6508,5.6508,5.65,5.6511,5.6503,5.658,5.6795,5.734,5.7788,5.8003,5.8821,5.9328,5.9328,5.9962,6.0239,6.0035,6.0451,6.0603,6.0389,0.0,0.0,0.0,0.0,0.0,0.0,0.0,0.0,0.0,0.0,0.0,0.0,0.0,0.0,0.0,0.0,0.0,0.0,0.0,0.0,0.0,0.0,0.0,0.0,0.0,0.0,0.0,0.0,0.0,4.8639,4.9497,0.0,0.0,0.0,0.0,5.1394,5.1343,5.1317,5.1317,5.1296,5.13,5.13,5.13,5.13,5.13,5.13,5.13,5.13,5.13,5.13,5.13,5.13,5.13,5.13,5.13,5.13,5.13,5.1359,5.1378,5.1359,5.1323,5.1303,5.1406,5.2219,5.2551,5.2664,5.3522,5.3853,5.4048,5.4924,5.5782,5.6503,5.6503,5.6503,0.0,0.0,5.6503,5.6503,5.6503,5.6503,5.6503,5.6503,5.6503,5.6503,5.6503,5.6503,5.6503,5.6483,5.6483,5.6503,5.6511,0.0,5.6511,5.6511,5.6511,5.6511,5.6503,5.6503,5.6795,5.7555,5.7672,5.8042,5.886,5.9737,6.0224,6.0224,6.0857,6.1132,6.0944,6.0781,6.0603,6.0389,6.0351,0.0,0.0,0.0,0.0,0.0,0.0,0.0,0.0,0.0,0.0,0.0,0.0,0.0,0.0,0.0,0.0,0.0,0.0,0.0,0.0,0.0,0.0,0.0,0.0,0.0,0.0,0.0,0.0,4.9605,5.0419,0.0,5.1372,5.1355,5.1343,5.1343,5.1303,5.1296,5.1291,5.1296,5.1308,5.1303,5.1308,5.13,5.13,5.13,5.13,5.13,5.13,5.13,5.13,5.13,5.13,5.13,5.13,5.13,5.13,5.13,5.13,5.13,5.1308,5.1308,5.1339,5.1659,5.1756,5.1807,5.2119,5.2586,5.3307,5.473,5.5782,5.6503,5.6503,5.6503,5.6503,5.6503,5.6503,5.6503,5.6503,5.6503,5.6503,5.6503,5.6503,5.6503,5.6503,5.6503,5.6503,5.6503,5.6503,5.6503,5.6503,5.6503,5.6503,5.6503,5.6503,5.6503,5.6503,5.6503,5.6814,5.7613,5.8198,5.888,5.9756,6.0633,6.114,6.114,6.1114,6.1074,6.1002,6.0681,6.046,6.0389,6.0389,6.0236,0.0,0.0,0.0,0.0,0.0,0.0,0.0,0.0,0.0,0.0,0.0,0.0,0.0,0.0,0.0,0.0,0.0,0.0,0.0,0.0,0.0,0.0,0.0,0.0,0.0,4.9191,5.0108,5.0108,5.0879,5.14,5.1396,5.1355,5.1323,5.1323,5.133,5.1323,5.1336,5.1303,5.1296,5.1291,5.1289,5.1437,5.1749,5.1749,5.1885,5.2177,5.2177,5.2177,5.2177,5.2177,5.2177,5.2177,5.2177,5.2177,5.2177,5.2177,5.2177,5.2119,5.1534,5.13,5.13,5.13,5.13,5.13,5.13,5.206,5.3229,5.4398,5.5548,5.6503,5.6503,5.6503,5.6503,5.6503,5.6503,5.6503,5.6503,5.6503,5.6503,5.6503,5.6503,5.6503,5.6503,5.6503,5.6503,5.6503,5.6503,5.6503,5.6503,5.6503,5.6503,5.6503,5.6503,5.6503,5.6503,5.6736,5.7223,5.8042,5.8918,5.9795,6.0653,6.1276,6.1607,6.1607,6.1225,6.1002,6.1002,6.0628,6.0389,6.0389,6.038,6.0332,6.0285,0.0,0.0,0.0,0.0,0.0,0.0,0.0,0.0,0.0,0.0,0.0,0.0,0.0,0.0,0.0,0.0,0.0,0.0,0.0,0.0,0.0,0.0,0.0,4.8962,4.9582,5.0147,5.0147,5.0898,5.14,5.1396,5.1405,5.1394,5.1394,5.1394,5.1394,5.1394,5.1362,5.133,5.133,5.1367,5.1787,5.2625,5.2645,5.3054,5.3911,5.3911,5.3911,5.3911,5.3911,5.3911,5.3911,5.3911,5.3911,5.3911,5.3911,5.3911,5.3736,5.2041,5.1378,5.1378,5.1378,5.1378,5.1378,5.1378,5.2508,5.395,5.395,5.51,5.6503,5.6503,5.6503,5.6503,5.6503,5.6503,5.6503,5.6503,5.6503,5.6503,5.6503,5.6503,5.6503,5.6503,5.6503,5.6503,5.6503,5.6503,5.6503,5.6503,5.6503,5.6503,5.6503,5.6503,0.0,5.6522,5.7223,5.8042,5.8938,5.9795,6.0653,6.1529,6.1607,6.1607,6.1607,6.1225,6.1002,6.1002,6.0628,6.0389,6.0389,6.0323,6.0216,6.0099,0.0,0.0,0.0,0.0,0.0,0.0,0.0,0.0,0.0,0.0,0.0,0.0,0.0,0.0,0.0,0.0,0.0,0.0,0.0,0.0,0.0,4.9794,5.0024,4.979,5.0492,5.1039,5.1039,5.1245,5.1391,5.1396,5.1405,5.1394,5.1394,5.1394,5.14,5.1391,5.1934,5.2233,5.2246,5.2855,5.3307,5.3541,5.3541,5.3658,5.3911,5.3911,5.3911,5.3911,5.3911,5.3911,5.3911,5.3911,5.3911,5.3911,5.3911,5.3911,5.3853,5.3366,5.319,5.319,5.319,5.319,5.319,5.319,5.3911,5.4846,5.4846,5.5587,5.6503,5.6503,5.6503,5.6503,5.6503,5.6503,5.6503,5.6503,5.6503,5.6503,5.6503,5.6503,5.6503,5.6503,5.6503,5.6503,5.6503,5.6503,5.6503,5.6503,5.6503,5.6503,5.6503,5.6503,5.6697,5.7301,5.7555,5.8276,5.9776,6.0165,6.0653,6.1529,6.1607,6.1607,6.1607,6.1225,6.1002,6.1002,6.0628,6.0389,6.0389,6.0323,6.0216,0.0,0.0,0.0,0.0,0.0,0.0,0.0,0.0,0.0,0.0,0.0,0.0,0.0,0.0,0.0,0.0,0.0,0.0,0.0,0.0,0.0,0.0,5.0418,5.0633,5.0633,5.1082,5.1394,5.1394,5.141,5.1406,5.1406,5.1396,5.1391,5.1391,5.1742,5.1943,5.1932,5.2707,5.3137,5.315,5.3642,5.4087,5.4437,5.4437,5.4632,5.4983,5.4983,5.4983,5.4983,5.4983,5.4983,5.4983,5.4983,5.4983,5.4983,5.4983,5.4983,5.4924,0.0,0.0,0.0,0.0,5.3911,5.3911,5.3911,5.4476,5.5197,5.5197,5.5782,5.6503,5.6503,5.6503,5.6503,5.6503,5.6503,5.6503,5.6503,5.6503,5.6503,5.6503,5.6503,5.6503,5.6503,5.6503,5.6503,5.6503,5.6503,0.0,5.6503,5.6503,5.6503,5.6503,5.6503,5.6795,5.7594,5.8022,5.8763,6.0146,6.0633,6.1042,6.1568,6.1607,0.0,0.0,0.0,6.0925,6.0754,6.052,0.0,0.0,0.0,6.0216,6.0099,6.0026,0.0,0.0,5.8331,5.7744,0.0,0.0,0.0,0.0,0.0,0.0,0.0,0.0,0.0,0.0,0.0,0.0,0.0,0.0,0.0,0.0,5.0906,5.1394,5.1394,5.1394,5.1394,5.1394,5.1394,5.1394,5.1394,5.1492,5.155,5.155,5.2351,5.2858,5.2858,5.3615,0.0,0.0,0.0,5.4554,5.5333,5.545,5.5879,5.6639,5.6717,5.6775,5.6775,5.6775,5.6775,5.6775,5.6775,5.6775,5.6775,5.6775,5.6775,5.66,5.4866,5.4184,5.4184,5.4184,5.4184,5.4184,5.4184,0.0,0.0,5.5353,5.5879,5.6503,5.6503,5.6503,5.6503,5.6503,5.6503,5.6503,5.6503,5.6503,5.6503,5.6503,5.6503,5.6503,5.6503,5.6503,5.6503,5.6503,5.6503,5.6503,5.6503,5.6503,5.6503,5.6503,5.658,5.6931,5.773,5.8607,5.9484,6.0341,6.114,0.0,6.1607,6.1607,6.1607,6.1607,6.1225,6.082,6.0417,6.0389,6.0389,6.0389,6.0323,6.0216,6.0099,6.0026,5.995,5.9866,5.9165,5.8407,0.0,0.0,0.0,0.0,0.0,0.0,0.0,0.0,0.0,0.0,0.0,0.0,0.0,0.0,0.0,5.1019,5.1297,5.1394,5.1394,5.1394,5.1394,5.1394,5.1394,5.1394,5.1394,5.2038,5.2448,5.2448,5.3268,5.3756,5.3756,5.4513,5.4944,5.4944,5.5631,5.6074,5.6249,5.6892,5.7301,5.7477,5.8178,0.0,5.8509,5.8509,5.8509,5.8509,5.8509,5.8509,5.8509,5.8509,5.8509,5.8353,5.6658,5.5996,5.5996,5.5996,5.5996,5.5996,5.5996,5.6113,5.6249,5.6249,5.6366,5.6503,5.6503,5.6503,0.0,5.6503,5.6503,5.6503,5.6503,5.6503,5.6503,5.6503,5.6503,5.6503,5.6503,5.6503,5.6503,5.6503,5.6503,5.6503,5.6503,5.6503,5.6503,5.6503,5.7048,5.7769,5.8646,5.9503,6.038,6.1257,6.149,6.1607,6.1607,6.1607,6.1607,6.1607,6.1225,6.082,6.0417,6.0389,6.0389,6.0389,6.0226,6.0118,6.0099,5.9982,5.9918,5.9885,5.9734,5.9563,0.0,0.0,0.0,0.0,0.0,0.0,0.0,0.0,0.0,0.0,0.0,4.9582,5.0015,0.0,5.0894,5.1336,5.1394,5.1394,5.1394,5.1394,5.1394,5.1394,5.1394,5.157,5.2019,5.2448,5.2878,5.3327,5.4166,5.4654,5.4654,5.5416,5.6043,5.6485,5.6925,5.7338,5.7749,5.8139,5.8353,5.8353,5.8782,5.8996,5.8996,5.8996,5.8996,5.8996,5.8996,5.8996,5.8996,5.8996,5.8996,5.8918,5.8081,5.7477,5.7107,5.7107,5.6853,5.6503,5.6503,5.6503,5.6503,5.6503,5.6503,5.6503,5.6503,5.6503,5.6503,5.6503,5.6503,5.6503,5.6503,5.6503,5.6503,5.6503,5.6503,5.6503,5.6503,5.6503,5.6503,5.6503,5.6834,5.7107,5.7107,5.7457,5.7594,5.7165,5.7438,5.8159,5.9484,6.0029,6.0633,6.151,6.1607,6.1607,6.1607,6.1607,6.1498,6.1317,6.1109,6.082,6.0417,6.0389,6.0389,6.0389,6.0275,6.0167,6.0099,5.9994,5.9918,5.9885,5.9885,5.9885,0.0,0.0,0.0,0.0,0.0,0.0,0.0,4.7871,4.8183,4.8884,4.9737,5.0336,5.036,5.0937,5.1401,5.139,5.1394,5.1394,5.1394,5.1394,5.1453,5.1629,5.1648,5.1921,5.2624,5.3014,5.3502,5.4205,5.5064,5.5552,5.5552,5.6319,5.7069,5.7772,5.7953,5.8367,5.9014,5.9161,5.9259,5.9259,5.9425,5.9503,5.9503,5.9503,5.9503,5.9503,5.9503,5.9503,5.9503,5.9503,5.9503,5.9503,5.9503,5.8977,5.8178,5.8022,5.7535,5.699,5.699,5.699,5.699,5.699,5.699,5.699,5.699,5.699,5.6951,5.6775,5.6717,5.6697,5.6541,5.6503,5.6541,5.6697,5.6717,5.6775,5.6951,5.699,5.699,5.699,5.7516,5.7944,5.7944,5.8529,5.8763,5.8061,5.81,5.8704,6.0126,6.0458,6.0828,6.151,6.1607,6.1607,6.1607,6.1607,6.1433,6.102,6.1002,6.082,6.0417,6.0389,6.0389,6.0389,6.0323,6.0216,6.0099,6.0026,5.995,5.9885,5.9885,5.9885,4.6196,4.6761,4.7345,4.7345,4.793,4.8534,0.0,4.9216,4.9742,4.9859,5.056,5.1179,5.1232,5.1336,5.1405,5.139,5.1394,5.1394,5.1394,5.1394,5.1687,5.2468,5.2546,5.2585,5.2683,5.4108,5.5044,5.5142,5.5962,5.645,5.645,5.7216,5.7699,5.7796,5.8559,5.8994,5.9092,5.9798,6.0153,6.0153,6.0934,6.1315,6.1315,6.1315,6.1315,6.1315,6.1315,6.1315,6.1315,6.1315,6.1315,6.1315,6.1315,6.0769,5.9912,5.9133,5.8802,5.8724,5.8724,5.8724,5.8724,5.8724,5.8724,5.8724,5.8724,5.8724,5.8548,5.7769,5.7574,5.7399,5.6678,5.6503,5.6678,5.7399,5.7574,5.7769,5.8548,5.8724,5.8724,5.8724,5.8782,5.8841,5.8841,5.8938,5.8977,5.886,5.9503,6.0088,6.0263,6.0984,6.149,6.1588,6.1607,6.1607,6.1607,6.1607,6.1433,6.102,6.1002,6.082,6.0417,6.0389,6.0389,6.0389,6.0226,6.0099,6.0099,5.9963,5.9918,5.9885,5.9885,5.9885,4.6819,4.7209,4.7618,4.8125,4.8534,4.8923,4.9391,4.9761,5.0131,5.0657,5.1055,5.133,5.1388,5.14,5.1396,5.139,5.1394,5.1394,5.1394,5.1394,5.1726,5.2605,5.3151,5.3659,5.4166,5.4869,5.5513,5.602,5.6821,5.7309,5.7309,5.8104,5.8783,5.9299,5.9664,6.0087,6.0542,6.089,6.1058,6.1058,6.1422,6.1607,6.1607,6.1607,6.1607,6.1607,6.1607,6.1607,6.1607,6.1607,6.1607,6.1607,6.1607,6.1373,6.0945,6.0088,5.9445,5.8996,5.8996,5.8996,5.8996,5.8996,5.8996,5.8996,5.8996,5.8996,5.8918,5.8548,5.8451,5.8373,5.8042,5.7944,5.8042,5.8373,5.8451,5.8548,5.8918,5.8996,5.8996,5.8996,5.9406,5.9756,5.9756,6.0185,6.0516,6.0516,6.038,6.0477,6.0984,6.1373,6.1607,6.1607,6.1607,6.1607,6.1607,6.1607,6.1433,6.102,6.1002,6.082,6.0417,6.0389,6.0389,6.0389,6.0207,6.0099,6.0099,5.9982,5.9885,5.9885,5.9885,5.9885,4.7618,4.8027,4.8339,4.8962,4.9313,4.9644,5.0229,5.0365,5.0541,5.1164,5.1296,5.131,5.1388,5.1405,5.1396,5.139,5.1394,5.1394,5.1394,5.1609,5.2078,5.2956,5.3834,5.4693,5.5571,5.5669,5.5923,5.6547,5.7348,5.7797,5.7797,5.8851,5.9744,6.0378,6.0631,6.1035,6.1609,6.1627,6.1619,6.1592,6.1606,6.1597,6.1607,6.1607,6.1607,6.1607,6.1607,6.1607,6.1607,6.1607,6.1607,6.1607,6.1607,6.1607,6.151,6.0886,6.0263,5.9717,5.9717,5.9717,5.9717,5.9717,5.9717,5.9717,5.9717,5.9717,5.9659,5.9425,5.9367,5.9289,5.9055,5.8996,5.9055,5.9289,5.9367,5.9425,5.9659,5.9717,5.9717,5.9717,6.0224,6.0653,6.0653,6.1179,6.1607,6.1607,6.1062,6.0886,6.151,6.1607,6.1607,6.1607,6.1607,6.1607,6.1607,6.1607,6.1433,6.102,6.1002,6.082,6.0417,6.0389,6.0389,6.0389,6.0207,6.0099,6.0099,5.9982,5.9885,5.9885,5.9885,5.9885,4.8514,4.9333,4.9937,4.9956,5.0599,5.1222,5.1242,5.1261,5.1261,5.13,5.13,5.1316,5.1388,5.1394,5.1405,5.139,5.1394,5.1394,5.1394,5.2136,5.2975,5.3854,5.4732,5.5591,5.6489,5.6567,5.6567,5.6606,5.7348,5.7797,5.7797,5.9436,6.0373,6.0393,6.1213,6.1681,6.1696,6.1705,6.1648,6.1595,6.1592,6.1606,6.1607,6.1607,6.1607,6.1607,6.1607,6.1607,6.1607,6.1607,6.1607,6.1607,6.1607,6.1607,6.1607,6.1568,6.1549,6.151,6.151,6.151,6.151,6.151,6.151,6.151,6.151,6.151,6.1334,6.0497,6.0263,6.0068,5.9211,5.8996,5.9211,6.0068,6.0263,6.0497,6.1334,6.151,6.151,6.151,6.1549,6.1568,6.1568,6.1588,6.1607,6.1607,6.1588,6.1568,6.1607,6.1607,6.1607,6.1607,6.1607,6.1607,6.1607,6.1607,6.1433,6.102,6.1002,6.082,6.0417,6.0389,6.0389,6.0389,6.0207,6.0099,6.0099,5.9982,5.9885,5.9885,5.9885,5.9885,4.9372,4.9781,5.0131,5.0716,5.1086,5.13,5.13,5.13,5.13,5.13,5.1289,5.133,5.1388,5.1405,5.1396,5.139,5.1394,5.1394,5.1394,5.2156,5.3014,5.3893,5.4771,5.563,5.6528,5.6606,5.6821,5.7367,5.8187,5.8909,5.9495,6.0627,6.1252,6.1252,6.1544,6.1701,6.1701,6.1705,6.1699,6.1673,6.1615,6.16,6.1592,6.1592,6.1592,6.1592,6.1595,6.1595,6.1606,6.1597,6.1607,6.1607,6.1607,6.1607,6.1607,6.1607,6.1607,6.1607,6.1607,6.1607,6.1607,6.1607,6.1607,6.1607,6.1607,6.1607,6.1549,6.1257,6.1159,6.1101,6.0808,6.073,6.0808,6.1081,6.1159,6.1237,6.1549,6.1607,6.1607,6.1607,6.1607,6.1607,6.1607,6.1607,6.1607,6.1607,6.1607,6.1607,6.1607,6.1607,6.1607,6.1607,6.1607,6.1607,6.1607,6.2133,6.2344,6.2079,6.243,6.2545,6.2279,6.2126,6.1784,6.1211,6.1105,6.0779,6.0216,6.0106,5.9994,5.9982,5.9982,5.995,5.0248,5.0463,5.0599,5.1164,5.13,5.13,5.13,5.13,5.13,5.13,5.1296,5.1317,5.1394,5.1405,5.1401,5.1394,5.1394,5.1511,5.1824,5.2605,5.3483,5.4361,5.522,5.5981,5.6547,5.686,5.7231,5.7758,5.8909,5.9807,6.0373,6.1232,6.1701,6.1701,6.1701,6.1701,6.1701,6.1691,6.1705,6.1699,6.1621,6.1595,6.1595,6.1595,6.1595,6.1595,6.16,6.1592,6.1592,6.1586,6.1597,6.1597,6.1588,6.1607,6.1607,6.1607,6.1607,6.1607,6.1607,6.1607,6.1607,6.1607,6.1607,6.1607,6.1607,6.1607,6.1607,6.1607,6.1607,6.1607,6.1607,6.1607,6.1607,6.1607,6.1607,6.1607,6.1607,6.1607,6.1607,6.1607,6.1607,6.1607,6.1607,6.1607,6.1607,6.1607,6.1607,6.1607,6.1607,6.1607,6.1607,6.1607,6.188,6.2055,6.2055,6.2835,6.3242,6.3026,6.3318,6.3396,6.3209,6.3023,6.2643,6.2089,6.1983,6.1552,6.0732,6.0605,6.0392,5.9994,6.0026,6.0013,5.1086,5.13,5.13,5.13,5.13,5.13,5.13,5.13,5.13,5.13,5.1296,5.1317,5.1394,5.1411,5.1401,5.1394,5.1394,5.1707,5.2585,5.3444,5.4322,5.5201,5.6079,5.6626,5.6665,5.7387,5.7894,5.7933,5.9475,6.0412,6.0451,6.1252,6.1701,6.1701,6.1701,6.1701,6.1701,6.1701,6.1691,6.1699,6.1648,6.1621,6.1621,6.1621,6.1621,6.1621,6.1615,6.1615,6.1595,6.1592,6.1603,6.1603,6.1597,6.1588,6.1588,6.1588,6.1607,6.1607,6.1607,6.1607,6.1607,6.1607,6.1607,6.1607,6.1607,6.1607,6.1607,6.1607,6.1607,6.1607,6.1607,6.1607,6.1607,6.1607,6.1607,6.1607,6.1607,6.1607,6.1607,6.1607,6.1607,6.1607,6.1607,6.1607,6.1607,6.1607,6.1607,6.1607,6.1607,6.1607,6.1627,6.1666,6.2406,6.2913,6.2952,6.3692,6.4099,6.3895,6.3723,6.3552,6.3368,6.3138,6.3006,6.2968,6.2909,6.2429,6.1552,6.153,6.1,6.0102,6.0144,6.0064,5.1242,5.13,5.13,5.13,5.13,5.13,5.13,5.13,5.1308,5.1303,5.1336,5.1375,5.1411,5.1401,5.139,5.1394,5.1394,5.1707,5.2585,5.3444,5.4322,5.5201,5.6079,5.684,5.7445,5.8265,5.9046,5.969,6.0159,6.0686,6.133,6.1583,6.1701,6.1701,6.1701,6.1701,6.1701,6.1701,6.1696,6.1696,6.1671,6.1671,6.1671,6.1671,6.1671,6.1671,6.1679,6.1673,6.1673,6.1615,6.1607,6.1607,6.16,6.16,6.16,6.1603,6.1595,6.1595,6.1597,6.1607,6.1607,6.1607,6.1607,6.1607,6.1607,6.1607,6.1607,6.1607,6.1607,6.1607,6.1607,6.1607,6.1607,6.1607,6.1607,6.1607,6.1607,6.1607,6.1607,6.1607,6.1607,6.1607,6.1607,6.1607,6.1607,6.1607,6.1607,6.1607,6.1607,6.1607,6.1841,6.2503,6.2776,6.3146,6.375,6.4588,6.5046,6.4994,6.5411,6.5564,6.5389,6.512,6.463,6.3866,6.3866,6.3397,6.2538,6.2527,6.2059,6.1111,6.1141,6.0738,5.13,5.13,5.13,5.13,5.13,5.13,5.1296,5.1296,5.1303,5.1336,5.1375,5.1405,5.1396,5.1406,5.1394,5.1394,5.1394,5.1843,5.3093,5.3698,5.4478,5.5728,5.6294,5.6918,5.7719,5.8597,5.9456,6.0334,6.0744,6.1174,6.1681,6.1701,6.1701,6.1701,6.1701,6.1701,6.1701,6.1701,6.1701,6.1701,6.1701,6.1701,6.1701,6.1701,6.1701,6.1701,6.1691,6.171,6.1705,6.1654,6.1648,6.1648,6.1621,6.1595,6.1595,6.1592,6.1603,6.1595,6.1597,6.1607,6.1607,6.1607,6.1607,6.1607,6.1607,6.1607,6.1607,6.1607,6.1607,6.1607,6.1607,6.1607,6.1607,6.1607,6.1607,6.1607,6.1607,6.1607,6.1607,6.1607,6.1607,6.1607,6.1607,6.1607,6.1607,6.1607,6.1607,6.1744,6.2114,6.2172,6.2367,6.2854,6.3556,6.4179,6.4627,6.5465,6.5972,6.5972,6.6244,6.6345,6.6242,6.5878,6.5416,6.4852,6.4776,6.4305,6.3465,6.3465,6.2996,6.2067,6.2097,6.1609,5.13,5.13,5.1308,5.1308,5.1308,5.1316,5.131,5.1317,5.1323,5.1394,5.1411,5.1396,5.1401,5.141,5.1394,5.1394,5.1492,5.2136,5.3776,5.4108,5.4771,5.6411,5.6606,5.6957,5.7875,5.8656,5.9514,6.049,6.1271,6.1701,6.1701,6.1701,6.1701,6.1701,6.1701,6.1701,6.1701,6.1701,6.1701,6.1701,6.1701,6.1701,6.1701,6.1701,6.1701,6.1701,6.1701,6.1701,6.1696,6.1705,6.1699,6.1679,6.1648,6.1602,6.1602,6.1619,6.1612,6.1603,6.1597,6.1588,6.1607,6.1607,6.1607,6.1607,6.1607,6.1607,6.1607,6.1607,6.1607,6.1607,6.1607,6.1607,6.1607,6.1607,6.1607,6.1607,6.1607,6.1607,6.1607,6.1607,6.1607,6.1607,6.1607,6.1607,6.1607,6.1607,6.1705,6.2055,6.2796,6.2893,6.2991,6.3205,6.453,6.5446,6.5562,6.6264,6.6712,6.6712,6.653,6.6426,6.6392,6.6009,6.576,6.5705,6.5542,6.5091,6.4344,6.4344,6.3894,6.2994,6.3053,6.2536,5.1303,5.131,5.131,5.1362,5.1388,5.1388,5.1388,5.1369,5.1394,5.1391,5.1396,5.1401,5.139,5.1394,5.1394,5.1394,5.1999,5.2839,5.3854,5.4615,5.5454,5.6489,5.6606,5.7192,5.8734,5.9007,5.9768,6.1349,6.1603,6.1701,6.1701,6.1701,6.1701,6.1701,6.1701,6.1701,6.1701,6.1701,6.1701,6.1701,6.1701,6.1701,6.1701,6.1701,6.1701,6.1701,6.1701,6.1701,6.1701,6.1696,6.1696,6.1696,6.1696,6.1671,6.1671,6.1673,6.1641,6.1607,6.1603,6.1606,6.1607,6.1607,6.1607,6.1607,6.1607,6.1607,6.1607,6.1607,6.1607,6.1607,6.1607,6.1607,6.1607,6.1607,6.1607,6.1607,6.1607,6.1607,6.1607,6.1607,6.1607,6.1607,6.1607,6.1607,6.1607,6.1607,6.2211,6.2737,6.2874,6.2893,6.3439,6.4822,6.5231,6.5699,6.642,6.6615,6.6712,6.6712,6.6671,6.6575,6.6411,6.6309,6.6109,6.5705,6.5673,6.5501,6.5184,6.5184,6.4764,6.3962,6.3962,6.3522,5.1343,5.1343,5.1362,5.1394,5.1394,5.1394,5.1405,5.1405,5.1391,5.1406,5.1406,5.141,5.1394,5.1394,5.155,5.1999,5.2429,5.3151,5.4498,5.5044,5.5611,5.6508,5.6977,5.7719,5.8987,5.9514,6.0315,6.1603,6.1701,6.1701,6.1701,6.1701,6.1701,6.1701,6.1701,6.1701,6.1701,6.1701,6.1701,6.1701,6.1701,6.1701,6.1701,6.1701,6.1701,6.1701,6.1701,6.1701,6.1701,6.1701,6.1701,6.1701,6.1701,6.1701,6.1696,6.1705,6.1673,6.1648,6.1607,6.1592,6.1603,6.1603,6.1606,6.1607,6.1607,6.1607,6.1607,6.1607,6.1607,6.1607,6.1607,6.1607,6.1607,6.1607,6.1607,6.1607,6.1607,6.1607,6.1607,6.1607,6.1607,6.1607,6.1607,6.1607,6.1607,6.1607,6.2348,6.3049,6.3478,6.3926,6.451,6.5309,6.5816,6.6244,6.6653,6.6712,6.6712,6.6712,6.6712,6.6661,6.6562,6.6456,6.6241,6.592,6.5779,6.5613,6.5394,6.5394,6.5203,6.4821,6.4821,6.4382,5.14,5.14,5.14,5.1405,5.1405,5.1405,5.1401,5.1401,5.1406,5.1394,5.1394,5.1394,5.1394,5.155,5.1902,5.2585,5.3014,5.3737,5.5103,5.5454,5.5825,5.6528,5.7309,5.8148,5.9026,5.9885,6.0764,6.1622,6.1701,6.1701,6.1701,6.1701,6.1701,6.1701,6.1701,6.1701,6.1701,6.1701,6.1701,6.1701,6.1701,6.1701,6.1701,6.1701,6.1701,6.1701,6.1701,6.1701,6.1701,6.1701,6.1701,6.1701,6.1701,6.1701,6.1696,6.1705,6.1699,6.1699,6.1648,6.1621,6.1595,6.1595,6.1592,6.1606,6.1606,6.1606,6.1606,6.1606,6.1606,6.1606,6.1597,6.1597,6.1597,6.1607,6.1607,6.1607,6.1607,6.1607,6.1607,6.1607,6.1607,6.1607,6.1607,6.1607,6.1666,6.1841,6.2601,6.3458,6.4276,6.5134,6.5679,6.5679,6.6283,6.6712,6.6712,6.6712,6.6712,6.6712,6.6712,6.6712,6.6712,6.6562,6.6361,6.6187,6.592,6.5673,6.5446,6.5425,6.5394,6.5394,6.5394,6.505,5.1391,5.1396,5.1401,5.141,5.139,5.139,5.1394,5.1394,5.1394,5.1394,5.1394,5.1394,5.1394,5.2058,5.2605,5.2683,5.4029,5.5123,5.5279,5.5981,5.6508,5.6586,5.7309,5.8148,5.9026,5.9885,6.0764,6.1622,6.1701,6.1701,6.1701,6.1701,6.1701,6.1701,6.1701,6.1701,6.1701,6.1701,6.1701,6.1701,6.1701,6.1701,6.1701,6.1701,6.1701,6.1701,6.1701,6.1701,6.1701,6.1701,6.1701,6.1701,6.1701,6.1701,6.1701,6.1696,6.171,6.1699,6.1699,6.1648,6.1595,6.1595,6.1595,6.1588,6.1588,6.1588,6.1588,6.1588,6.1588,6.1607,6.1603,6.1595,6.1595,6.1597,6.1607,6.1607,6.1607,6.1607,6.1607,6.1607,6.1607,6.1607,6.1607,6.1607,6.1861,6.2659,6.3478,6.4296,6.5173,6.605,6.6576,6.6576,6.6653,6.6712,6.6712,6.6712,6.6712,6.6712,6.6712,6.6712,6.6712,6.6682,6.6575,6.6377,6.6167,6.592,6.5654,6.5504,6.5394,6.5394,6.5394,6.5356,5.1406,5.141,5.141,5.1394,5.1394,5.1394,5.1394,5.1394,5.1394,5.1394,5.1394,5.155,5.2097,5.2468,5.3034,5.4088,5.4849,5.5474,5.6001,5.6372,5.6606,5.6606,5.7777,5.8714,5.9065,6.0354,6.133,6.1681,6.1701,6.1701,6.1701,6.1701,6.1701,6.1701,6.1701,6.1701,6.1701,6.1701,6.1701,6.1701,6.1701,6.1701,6.1701,6.1701,6.1701,6.1701,6.1701,6.1701,6.1701,6.1701,6.1701,6.1701,6.1701,6.1701,6.1701,6.1701,6.1696,6.1691,6.1691,6.1691,6.1666,6.1666,6.1666,6.164,6.1602,6.1595,6.1595,6.1595,6.1595,6.1595,6.1607,6.1592,6.1595,6.1597,6.1607,6.1607,6.1607,6.1607,6.1607,6.1607,6.1607,6.1607,6.1607,6.2036,6.2503,6.2854,6.4023,6.5017,6.5368,6.6166,6.6712,6.6712,6.6712,6.6712,6.6712,6.6712,6.6712,6.6712,6.6712,6.6712,6.6712,6.6712,6.6618,6.6392,6.6186,6.5983,6.5705,6.5504,6.5394,6.5394,6.5394,6.5394,5.1394,5.1394,5.1394,5.1394,5.1394,5.1394,5.1394,5.1394,5.1394,5.1394,5.1609,5.196,5.2585,5.3112,5.3873,5.5103,5.5521,5.5892,5.6516,5.6595,5.6692,5.6946,5.823,5.9202,5.9456,6.0822,6.1701,6.1701,6.1701,6.1701,6.1701,6.1701,6.1701,6.1701,6.1701,6.1701,6.1701,6.1701,6.1701,6.1701,6.1701,6.1701,6.1701,6.1701,6.1701,6.1701,6.1701,6.1701,6.1701,6.1701,6.1701,6.1701,6.1701,6.1701,6.1701,6.1701,6.1701,6.1701,6.1701,6.1701,6.1701,6.1701,6.1701,6.1696,6.1634,6.1628,6.1628,6.1628,6.1628,6.1621,6.1621,6.1607,6.1603,6.1606,6.1597,6.1597,6.1607,6.1607,6.1607,6.1607,6.1607,6.1685,6.1948,6.2493,6.3058,6.3585,6.4666,6.5523,6.5757,6.6332,6.6712,6.6702,6.6732,6.6732,6.6692,6.6712,6.6712,6.6712,6.6712,6.6712,6.6712,6.6712,6.663,6.6503,6.6295,6.6109,6.59,6.5613,6.5504,6.5504,6.5425,6.5394,5.1394,5.1394,5.1394,5.1394,5.1394,5.1394,5.1394,5.1394,5.1394,5.1394,5.2097,5.2683,5.2702,5.4108,5.5279,5.5298,5.6019,5.6593,5.6593,5.6593,5.6925,5.7784,5.8593,5.9436,6.0295,6.1174,6.1701,6.1701,6.1701,6.1701,6.1701,6.1701,6.1701,6.1701,6.1701,6.1701,6.1701,6.1701,6.1701,6.1701,6.1701,6.1701,6.1701,6.1701,6.1701,6.1701,6.1701,6.1701,6.1701,6.1701,6.1701,6.1701,6.1701,6.1701,6.1701,6.1701,6.1701,6.1701,6.1701,6.1701,6.1701,6.1701,6.1701,6.1701,6.1701,6.1701,6.1701,6.1701,6.171,6.1699,6.1699,6.1648,6.1588,6.1603,6.1603,6.1595,6.1597,6.1607,6.1607,6.1607,6.1607,6.187,6.2734,6.289,6.3494,6.521,6.548,6.5792,6.6576,6.6759,6.6775,6.6711,6.6767,6.6767,6.6712,6.6712,6.6712,6.6712,6.6712,6.6712,6.6712,6.6712,6.6712,6.6712,6.6503,6.6411,6.6377,6.5923,6.5705,6.568,6.5485,6.5394,5.1394,5.1394,5.1394,5.1394,5.1394,5.1394,5.1394,5.1394,5.157,5.2175,5.2507,5.3061,5.4262,5.4928,5.5492,5.6083,5.6415,5.6605,5.6599,5.66,5.6913,5.7792,5.9134,6.0331,6.1193,6.1544,6.1701,6.1701,6.1701,6.1701,6.1701,6.1701,6.1701,6.1701,6.1701,6.1701,6.1701,6.1701,6.1701,6.1701,6.1701,6.1701,6.1701,6.1701,6.1701,6.1701,6.1701,6.1701,6.1701,6.1701,6.1701,6.1701,6.1701,6.1701,6.1701,6.1701,6.1701,6.1701,6.1701,6.1701,6.1701,6.1701,6.1701,6.1701,6.1701,6.1701,6.1701,6.1701,6.1696,6.1691,6.1699,6.1673,6.1667,6.1607,6.1607,6.16,6.1595,6.1595,6.1606,6.1588,6.2074,6.257,6.2851,6.3881,6.4864,6.543,6.6023,6.6483,6.6748,6.6795,6.6783,6.6775,6.6795,6.6775,6.6702,6.6702,6.6693,6.6692,6.6712,6.6712,6.6712,6.6712,6.6712,6.6712,6.6503,6.6411,6.6411,6.6109,6.5874,6.5705,6.5485,6.5394,5.1394,5.1394,5.1394,5.1394,5.1394,5.1492,5.1824,5.1882,5.2136,5.3014,5.3448,5.4018,5.5101,5.5579,5.5972,5.6512,5.6607,5.6593,5.6601,5.6875,5.7539,5.8691,6.0057,6.1108,6.1645,6.1697,6.1694,6.1694,6.1705,6.1701,6.1701,6.1701,6.1701,6.1701,6.1701,6.1701,6.1701,6.1701,6.1701,6.1701,6.1701,6.1701,6.1701,6.1701,6.1701,6.1701,6.1701,6.1701,0.0,6.1701,6.1701,6.1701,6.1701,6.1701,6.1701,6.1701,6.1701,6.1701,6.1701,6.1701,6.1701,6.1701,6.1701,6.1701,6.1701,6.1701,6.1701,6.1701,6.1701,6.1696,6.171,6.1705,6.1685,6.1648,6.1648,6.1621,6.16,6.1592,6.1709,6.2024,6.2528,6.3101,6.3772,6.4781,6.5608,6.5939,6.6453,6.6798,6.6803,6.6798,6.6805,6.6798,6.6798,6.6778,6.6736,6.67,6.6702,6.6702,6.6692,6.6712,6.6712,6.6712,6.6712,6.6712,6.6575,6.6517,6.6517,6.6312,6.6028,6.5705,6.5559,6.5475,0.0,5.1394,5.1394,5.1394,5.1453,5.1707,5.253,5.2745,0.0,5.3916,5.4736,5.5322,5.5384,5.605,5.6601,5.6601,5.664,5.6699,5.6699,5.748,5.8652,6.0215,6.1172,6.1699,6.1699,6.1695,6.169,6.169,6.1697,6.1705,6.1701,6.1701,6.1701,6.1701,6.1701,6.1701,6.1701,6.1701,6.1701,6.1701,6.1701,6.1701,6.1701,6.1701,6.1701,6.1701,6.1701,6.1701,6.1701,6.1701,6.1701,6.1701,6.1701,6.1701,6.1701,6.1701,6.1701,6.1701,6.1701,6.1701,6.1701,6.1701,6.1701,6.1701,6.1701,6.1701,6.1701,6.1701,6.1701,6.1701,6.1701,6.1701,6.1696,6.1705,6.1699,6.1679,6.1621,6.166,6.1946,6.2746,6.2999,6.3592,6.5211,6.5549,6.5881,6.6675,6.6809,6.6804,6.6791,6.6798,6.679,6.6798,6.6809,6.679,6.6798,6.6736,6.6711,6.6692,6.6702,6.6712,6.6712,6.6712,6.6712,6.6712,6.6712,6.6712,6.6712,6.6503,6.6167,6.573,6.5705,6.5586,5.1394,0.0,5.1394,5.1394,5.1902,5.2452,0.0,5.321,5.393,5.4818,5.5166,5.5505,5.6168,5.6464,5.6601,5.6601,5.7168,5.7598,5.7598,5.8867,5.9961,6.0351,6.1172,6.1699,6.1699,6.1699,6.1698,6.1698,6.1698,6.1694,6.1697,6.1705,6.1701,6.1701,6.1701,6.1701,6.1701,6.1701,6.1701,6.1701,6.1701,6.1701,6.1701,6.1701,6.1701,6.1701,6.1701,6.1701,6.1701,6.1701,6.1701,6.1701,6.1701,6.1701,6.1701,6.1701,6.1701,6.1701,6.1701,6.1701,6.1701,6.1701,6.1701,6.1701,6.1701,6.1701,6.1701,6.1701,6.1701,6.1701,6.1701,6.1701,6.1701,6.1696,6.1696,6.1691,6.1679,6.22,6.2727,6.2863,6.3989,6.5016,6.5426,6.6043,6.6556,6.677,6.6795,6.6795,6.6804,6.679,6.6795,6.679,6.6795,6.6795,6.679,6.6798,6.6748,6.6692,6.6702,6.6712,6.6712,6.6712,6.6712,6.6712,6.6712,6.6712,6.6712,6.6503,6.6258,6.6005,6.5804,6.5586,5.1316,5.1347,5.1408,5.1408,5.2065,5.2804,5.3204,5.3976,5.484,5.5716,5.5909,5.6035,5.6459,5.6579,5.6719,5.7051,5.7558,5.8164,5.8945,5.9824,6.0547,6.0957,6.1406,6.1699,6.1699,6.1699,6.1699,6.1699,6.1699,6.1698,6.1695,6.1697,6.1701,6.1701,6.1701,6.1701,6.1701,6.1701,6.1701,6.1701,6.1701,6.1701,6.1701,6.1701,6.1701,6.1701,6.1701,6.1701,6.1701,6.1701,6.1701,6.1701,6.1701,6.1701,6.1701,6.1701,6.1701,6.1701,6.1701,6.1701,6.1701,6.1701,6.1701,6.1701,6.1701,6.1701,6.1701,6.1701,6.1701,6.1701,6.1701,6.1701,6.1701,6.1701,6.1701,6.1813,6.2217,6.2666,6.3232,6.3982,6.4905,6.5652,6.6023,6.6497,6.6795,6.6795,6.6795,6.6795,6.6795,6.6795,6.6795,6.6795,6.6795,6.6795,6.6795,6.6792,6.6771,6.6744,6.6731,6.6712,6.6712,6.6692,6.6712,6.6712,6.6712,6.6712,6.6712,6.6587,6.6441,6.6223,6.6089,6.5851,5.12,5.1372,5.1561,5.1562,5.2223,5.3097,5.3957,5.4824,5.5661,5.6403,5.6559,5.6543,5.6509,5.666,5.6983,5.7636,5.8047,5.8828,6.0371,6.0605,6.0879,6.1601,6.1699,6.1699,6.1699,6.1699,6.1699,6.1699,6.1699,6.1699,6.1699,6.1707,6.1705,6.1701,6.1701,6.1701,6.1701,6.1701,6.1701,6.1701,6.1701,6.1701,6.1701,6.1701,6.1701,6.1701,6.1701,6.1701,6.1701,6.1701,6.1701,6.1701,6.1701,6.1701,6.1701,6.1701,6.1701,6.1701,6.1701,6.1701,6.1701,6.1701,6.1701,6.1701,6.1701,6.1701,6.1701,6.1701,6.1701,6.1701,6.1701,6.1701,6.1701,6.1701,6.1798,6.211,6.2833,6.3204,6.3828,6.5312,6.5702,6.5995,6.6678,6.6795,6.6795,6.6795,6.6795,6.6795,6.6795,6.6795,6.6795,6.6795,6.6795,6.6795,6.6795,6.6804,6.6798,6.6798,6.6744,6.6711,6.6692,6.6712,6.6692,6.6712,6.6712,6.6712,6.6712,6.6712,6.6587,6.6411,6.6411,6.6167,5.1194,5.1746,5.2324,5.2333,5.2994,5.3839,5.4665,5.5516,5.6172,5.6328,5.6347,5.6387,5.6482,5.706,5.762,5.7827,5.9082,6.0351,6.1367,6.1504,6.1543,6.168,6.1699,6.1699,6.1699,6.1699,6.1699,6.1699,6.1699,6.1699,6.1699,6.1698,6.1692,6.1701,6.1701,6.1701,6.1701,6.1701,6.1701,6.1701,6.1701,6.1701,6.1701,6.1701,6.1701,6.1701,6.1701,6.1701,6.1701,6.1701,6.1701,6.1701,6.1701,6.1701,6.1701,6.1701,6.1701,6.1701,6.1701,6.1701,6.1701,6.1701,6.1701,6.1701,6.1701,6.1701,6.1701,6.1701,6.1701,6.1701,6.1701,6.1701,6.1701,6.1701,6.2267,6.2833,6.2969,6.416,6.5273,6.5546,6.6151,6.6658,6.6776,6.6795,6.6795,6.6795,6.6795,6.6795,6.6795,6.6795,6.6795,6.6795,6.6795,6.6795,6.6795,6.6795,6.6795,6.6795,6.6778,6.6748,6.6692,6.6702,6.6693,6.6692,6.6712,6.6712,6.6712,6.6712,6.6587,6.6411,6.6411,6.6258,5.1041,5.1679,5.2446,5.2906,5.3747,5.4543,5.4925,5.5663,5.6298,5.6298,5.6298,5.6315,5.6375,5.6764,5.7385,5.8431,6.0019,6.123,6.164,6.1699,6.1699,6.1699,6.1699,6.1699,6.1699,6.1699,6.1699,6.1699,6.1699,6.1699,6.1699,6.1699,6.1698,6.1692,6.1694,6.1701,6.1701,6.1701,6.1701,6.1701,6.1701,6.1701,6.1701,6.1701,6.1701,6.1701,6.1701,6.1701,6.1701,6.1701,6.1701,6.1701,6.1701,6.1701,6.1701,6.1701,6.1701,6.1701,6.1701,6.1701,6.1701,6.1701,6.1701,6.1701,6.1701,6.1701,6.1798,6.2267,6.2052,6.1701,6.1701,6.2052,6.2403,6.2403,6.3067,6.3828,6.4297,6.5038,6.5722,6.6151,6.6541,6.6795,6.6795,6.6795,6.6795,6.6795,6.6795,6.6795,6.6795,6.6795,6.6795,6.6795,6.6795,6.6795,6.6795,6.6795,6.6795,6.6804,6.6811,6.6791,6.6767,6.672,6.6702,6.6693,6.6702,6.6712,6.6712,6.6712,6.6641,6.6562,6.6562,6.6456,5.0906,5.1699,5.2647,5.3323,5.4233,5.5009,5.5183,5.5743,5.6225,5.6225,5.6225,5.6244,5.6263,5.6718,5.7662,5.9433,6.0838,6.1699,6.168,6.1699,6.1699,6.1699,6.1699,6.1699,6.1699,6.1699,6.1699,6.1699,6.1699,6.1699,6.1699,6.1699,6.1699,6.1699,6.1707,6.1705,6.1701,6.1701,6.1701,6.1701,6.1701,6.1701,6.172,6.1915,6.1993,6.2013,6.2228,6.2306,6.2306,6.2306,6.2306,6.2306,6.2306,6.2306,6.2286,6.2071,6.1993,6.1974,6.1779,6.1837,6.1993,6.1993,6.2149,6.2306,6.2306,6.2306,6.2442,6.3125,6.2813,6.2306,6.2306,6.2794,6.3301,6.3301,6.3965,6.4785,6.5468,6.5741,6.6053,6.6678,6.6795,6.6795,6.6795,6.6795,6.6795,6.6795,6.6795,6.6795,6.6795,6.6795,6.6795,6.6795,6.6795,6.6795,6.6795,6.6795,6.679,6.6798,6.6798,6.6792,6.6791,6.6756,6.672,6.6692,6.6693,6.6692,6.6712,6.6712,6.6712,6.6712,6.6712,6.6618,5.0906,5.2124,5.342,5.3478,5.4155,5.5006,5.576,5.5993,5.6031,5.6031,5.6031,5.607,5.6186,5.7641,5.9341,6.0988,6.1499,6.168,6.1621,6.166,6.1699,6.1699,6.1699,6.1699,6.1699,6.1699,6.1699,6.1699,6.1699,6.1699,6.1699,6.1699,6.1699,6.1699,6.1694,6.1701,6.1701,6.1701,6.1701,6.1701,6.1701,6.1701,6.174,6.254,6.2911,6.295,6.375,6.4101,6.4101,6.4101,6.4101,6.4101,6.4101,6.4101,6.4004,6.3204,6.2911,6.2794,6.1974,6.2228,6.2911,6.2911,6.3457,6.4101,6.4101,6.4101,6.4121,6.4179,6.416,6.4101,6.4101,6.416,6.4199,6.4199,6.4863,6.5526,6.5585,6.619,6.6737,6.6795,6.6795,6.6795,6.6795,6.6795,6.6795,6.6795,6.6795,6.6795,6.6795,6.6795,6.6795,6.6795,6.6795,6.6795,6.6795,6.6795,6.6795,6.6795,6.6795,6.6809,6.6792,6.6811,6.6752,6.6692,6.6711,6.6693,6.6712,6.6712,6.6712,6.6712,6.6712,6.6682,5.1718,5.2975,5.431,5.431,5.4929,5.5625,0.0,5.6012,5.6012,5.6012,5.6012,5.6186,5.6824,5.8042,5.9296,6.0409,6.1109,6.1528,6.1599,6.1545,6.1568,6.1698,6.166,6.164,6.1699,6.1699,6.1699,6.1699,6.1699,6.1699,6.1699,6.1699,6.1699,6.1699,6.1698,6.1692,6.1701,6.1701,6.1974,6.2501,6.2501,6.2501,6.254,6.3418,6.3809,6.3828,6.416,6.4297,6.4297,6.4297,6.4297,6.4297,6.4297,6.4297,6.4258,6.3926,6.3809,6.375,6.3438,6.3535,6.3809,6.3809,6.4023,6.4297,6.4297,6.4297,6.4414,6.496,6.5116,6.498,6.4433,6.4707,6.5116,6.5116,6.5741,6.6346,6.6346,6.658,6.6795,6.6795,6.6795,6.6795,6.6795,6.6795,6.6795,6.6795,6.6795,6.6795,6.6795,6.6795,6.6795,6.6795,6.6795,6.6795,6.6795,6.6795,6.6795,6.6795,6.6795,6.6795,6.6809,6.6798,6.6785,6.6752,6.6756,6.6767,6.6759,6.6722,6.6693,6.6693,6.6702,6.6712,5.2531,5.3672,5.4793,5.4793,5.5393,5.6012,5.6012,5.6012,5.6012,5.6012,5.6012,5.636,5.7559,5.8353,5.9179,6.0236,6.0965,6.1407,6.1497,6.1436,6.1459,6.1595,6.1592,6.1621,6.166,6.1699,6.1699,6.1699,6.1699,6.1699,6.1699,6.1699,6.1699,6.1699,6.1699,6.1833,6.2111,6.2115,6.2559,6.3418,6.3691,6.3672,6.3438,6.4316,6.4707,6.4726,6.498,6.5097,6.5097,6.5097,6.5097,6.5097,6.5097,6.5097,6.5058,6.4804,6.4707,6.4667,6.4394,6.4472,6.4707,6.4707,6.4882,6.5097,6.5097,6.5097,6.5214,6.5819,6.5975,6.5839,6.5234,6.5526,6.5975,6.5975,6.6405,6.6795,6.6795,6.6795,6.6795,6.6795,6.6795,6.6795,6.6795,6.6795,6.6795,6.6795,6.6795,6.6795,6.6795,6.6795,6.6795,6.6795,6.6795,6.6795,6.6795,6.6795,6.6795,6.6795,6.6795,6.6795,6.6795,6.6804,6.6798,6.6792,6.6798,6.681,6.6803,6.6748,6.672,6.672,6.6722,6.6732,5.3285,5.4155,5.4813,5.4813,5.5412,5.6012,5.6012,5.6012,5.6012,5.6012,5.6012,5.6534,5.8275,5.8644,5.9224,6.0847,6.1273,6.1369,6.1311,6.135,6.1406,6.1405,6.1522,6.1601,6.1601,6.166,6.1699,6.1699,6.1699,6.1699,6.1699,6.1699,6.1699,6.1699,6.1719,6.2129,6.2988,6.3009,6.3457,6.4316,6.5194,6.5155,6.4336,6.5214,6.5604,6.5663,6.6444,6.6795,6.6795,6.6795,6.6795,6.6795,6.6795,6.6795,6.6697,6.5917,6.5604,6.5487,6.4628,6.4882,6.5604,6.5604,6.6151,6.6795,6.6795,6.6795,6.6795,6.6795,6.6795,6.6795,6.6795,6.6795,6.6795,6.6795,6.6795,6.6795,6.6795,6.6795,6.6795,6.6795,6.6795,6.6795,6.6795,6.6795,6.6795,6.6795,6.6795,6.6795,6.6795,6.6795,6.6795,6.6795,6.6795,6.6795,6.6795,6.6795,6.6795,6.6795,6.6795,6.6795,6.6795,6.6795,6.6809,6.6792,6.6792,6.6805,6.6803,6.6803,6.6803,6.6803,6.6803,6.6803,5.4349,5.5026,5.5644,5.5644,5.5818,5.6012,5.6012,5.6012,5.6012,5.6012,5.6012,5.6534,5.8275,5.8623,5.9165,6.0828,6.1157,6.1215,6.1292,6.1227,6.1242,6.1388,6.1384,6.1442,6.1581,6.1621,6.164,6.1699,6.1699,6.1699,6.1699,6.1699,6.1699,6.1699,6.2285,6.2734,6.3008,6.3614,6.4345,6.5219,6.5477,6.5468,6.5234,6.6073,6.6444,6.6463,6.6697,6.6795,6.6795,6.6795,6.6795,6.6795,6.6795,6.6795,6.6776,6.6522,6.6444,6.6405,6.6151,6.6229,6.6444,6.6444,6.66,6.6795,6.6795,6.6795,6.6795,6.6795,6.6795,6.6795,6.6795,6.6795,6.6795,6.6795,6.6795,6.6795,6.6795,6.6795,6.6795,6.6795,6.6795,6.6795,6.6795,6.6795,6.6795,6.6795,6.6795,6.6795,6.6795,6.6795,6.6795,6.6795,6.6795,6.6795,6.6795,6.6795,6.6795,6.6795,6.6795,6.6795,6.6795,6.6795,6.6795,6.6809,6.6809,6.6809,6.6804,6.6792,6.6805,6.6805,6.681,6.6803,5.52,5.5625,5.6012,5.6012,5.6012,5.6012,5.6012,5.6012,5.6012,5.6012,5.6012,5.6534,5.8275,5.8604,5.9145,6.0828,6.1099,6.1137,6.1215,6.1157,6.1137,6.1273,6.1292,6.1349,6.1467,6.1548,6.1621,6.166,6.168,6.1699,6.1699,6.1699,6.1855,6.2207,6.2734,6.332,6.4023,6.4545,6.5241,6.6123,6.6126,6.6092,6.6092,6.658,6.6795,6.6795,6.6795,6.6795,6.6795,6.6795,6.6795,6.6795,6.6795,6.6795,6.6795,6.6795,6.6795,6.6795,6.6795,6.6795,6.6795,6.6795,6.6795,6.6795,6.6795,6.6795,6.6795,6.6795,6.6795,6.6795,6.6795,6.6795,6.6795,6.6795,6.6795,6.6795,6.6795,6.6795,6.6795,6.6795,6.6795,6.6795,6.6795,6.6795,6.6795,6.6795,6.6795,6.6795,6.6795,6.6795,6.6795,6.6795,6.6795,6.6795,6.6795,6.6795,6.6795,6.6795,6.6795,6.6795,6.6795,6.6795,6.6795,6.6795,6.6795,6.6795,6.6795,6.6809,6.6804,6.6804,6.6792,6.6805,5.5799,5.6012,5.6012,5.6012,5.6012,5.6012,5.6012,5.6012,5.6012,5.6012,5.6012,5.6534,5.8275,5.8604,5.9145,6.0828,6.1099,6.1099,6.1099,6.1099,6.1099,6.1099,6.1215,6.1292,6.1292,6.1459,6.158,6.1601,6.166,6.1699,6.1699,6.1777,6.2187,6.2969,6.3144,6.4004,6.5586,6.5683,6.6112,6.6906,6.6907,6.6873,6.6815,6.6795,6.6795,6.6795,6.6795,6.6795,6.6795,6.6795,6.6795,6.6795,6.6795,6.6795,6.6795,6.6795,6.6795,6.6795,6.6795,6.6795,6.6795,6.6795,6.6795,6.6795,6.6795,6.6795,6.6795,6.6795,6.6795,6.6795,6.6795,6.6795,6.6795,6.6795,6.6795,6.6795,6.6795,6.6795,6.6795,6.6795,6.6795,6.6795,6.6795,6.6795,6.6795,6.6795,6.6795,6.6795,6.6795,6.6795,6.6795,6.6795,6.6795,6.6795,6.6795,6.6795,6.6795,6.6795,6.6795,6.6795,6.6795,6.6795,6.6795,6.6795,6.6795,6.6795,6.6795,6.6795,6.6795,6.6795,6.6795,6.6795,5.5954,5.6012,5.6012,5.6012,5.6012,5.6012,5.6012,5.6012,5.6012,5.6012,5.6012,5.6534,5.8275,5.8604,5.9145,6.0828,6.1099,6.1099,6.1099,6.1099,6.1099,6.1099,6.1137,6.1176,6.1292,6.1336,6.1431,6.1581,6.1601,6.164,6.1699,6.2344,6.2812,6.2988,6.4336,6.5215,6.5605,6.6289,6.6718,6.6894,6.6895,6.6893,6.6873,6.6815,6.6795,6.6795,6.6795,6.6795,6.6795,6.6795,6.6795,6.6795,6.6795,6.6795,6.6795,6.6795,6.6795,6.6795,6.6795,6.6795,6.6795,6.6795,6.6795,6.6795,6.6795,6.6795,6.6795,6.6795,6.6795,6.6795,6.6795,6.6795,6.6795,6.6795,6.6795,6.6795,6.6795,6.6795,6.6795,6.6795,6.6795,6.6795,6.6795,6.6795,6.6795,6.6795,6.6795,6.6795,6.6795,6.6795,6.6795,6.6795,6.6795,6.6795,6.6795,6.6795,6.6795,6.6795,6.6795,6.6795,6.6795,6.6795,6.6795,6.6795,6.6795,6.6795,6.6795,6.6795,6.6795,6.6795,6.6795,6.6795,5.5996,5.5996,5.5996,5.5995,5.6012,5.6012,5.6012,5.6012,5.6012,5.6012,5.6012,5.6534,5.8275,5.8604,5.9145,6.0828,6.1099,6.1099,6.1099,6.1099,6.1099,6.1099,6.1099,6.1137,6.1195,6.1253,6.1352,6.149,6.1561,6.1816,6.2305,6.2754,6.3379,6.4219,6.5137,6.5801,6.6211,6.668,6.6894,6.6894,6.6908,6.6895,6.6893,6.6834,6.6795,6.6795,6.6795,6.6795,6.6795,6.6795,6.6795,6.6795,6.6795,6.6795,6.6795,6.6795,6.6795,6.6795,6.6795,6.6795,6.6795,6.6795,6.6795,6.6795,6.6795,6.6795,6.6795,6.6795,6.6795,6.6795,6.6795,6.6795,6.6795,6.6795,6.6795,6.6795,6.6795,6.6795,6.6795,6.6795,6.6795,6.6795,6.6795,6.6795,6.6795,6.6795,6.6795,6.6795,6.6795,6.6795,6.6795,6.6795,6.6795,6.6795,6.6795,6.6795,6.6795,6.6795,6.6795,6.6795,6.6795,6.6795,6.6795,6.6795,6.6795,6.6795,6.6795,6.6795,6.6795,6.6795,6.6795,6.6795,5.5981,5.5981,5.5999,5.6014,5.5995,5.6012,5.6012,5.6012,5.6012,5.6012,5.6128,5.6708,5.8314,5.872,5.9319,6.0847,6.1099,6.1099,6.1099,6.1099,6.1099,6.1099,6.1099,6.1099,6.1099,6.1215,6.1331,6.1389,6.1655,6.2178,6.2969,6.3281,6.4101,6.5547,6.5742,6.6172,6.6894,6.6894,6.6894,6.6894,6.6894,6.689,6.6907,6.6844,6.682,6.6815,6.6815,6.6815,6.6815,6.6795,6.6815,6.6815,6.6815,6.6815,6.6795,6.6795,6.6795,6.6795,6.6795,6.6795,6.6795,6.6795,6.6795,6.6795,6.6795,6.6795,6.6795,6.6795,6.6795,6.6795,6.6795,6.6795,6.6795,6.6795,6.6795,6.6795,6.6795,6.6795,6.6795,6.6795,6.6795,6.6795,6.6795,6.6795,6.6795,6.6795,6.6795,6.6795,6.6795,6.6795,6.6795,6.6795,6.6795,6.6795,6.6795,6.6795,6.6795,6.6795,6.6795,6.6795,6.6795,6.6795,6.6795,6.6795,6.6795,6.6795,6.6795,6.6795,6.6795,6.6795,6.6795,6.6795,5.5905,5.5962,5.5999,5.5999,5.5996,5.6012,5.6012,5.6012,5.6012,5.6012,5.6611,5.7443,5.841,5.9223,6.0035,6.0944,6.1099,6.1099,6.1099,6.1099,6.1099,6.1099,6.1099,6.1099,6.1099,6.1215,6.1331,6.1389,6.2213,6.2811,6.2988,6.4433,6.5351,6.5586,6.6328,6.6777,6.6894,6.6894,6.6894,6.6894,6.6894,6.6894,6.6894,6.6887,6.6891,6.6873,6.6834,6.6834,6.6873,6.6815,6.6834,6.6893,6.6893,6.6854,6.6795,6.6795,6.6795,6.6795,6.6795,6.6795,6.6795,6.6795,6.6795,6.6795,6.6795,6.6795,6.6795,6.6795,6.6795,6.6795,6.6795,6.6795,6.6795,6.6795,6.6795,6.6795,6.6795,6.6795,6.6795,6.6795,6.6795,6.6795,6.6795,6.6795,6.6795,6.6795,6.6795,6.6795,6.6795,6.6795,6.6795,6.6795,6.6795,6.6795,6.6795,6.6795,6.6795,6.6795,6.6795,6.6795,6.6795,6.6795,6.6795,6.6795,6.6795,6.6795,6.6795,6.6795,6.6795,6.6795,6.6795,6.6795,5.5846,5.5905,5.5924,5.5924,5.5943,5.5942,5.5942,5.5942,5.6076,5.6558,5.7369,5.8103,5.8526,5.93,6.0151,6.0963,6.1099,6.1099,6.1099,6.1099,6.1099,6.1099,6.1099,6.1099,6.1099,6.1215,6.1518,6.2088,6.2616,6.3359,6.4394,6.5176,6.582,6.6308,6.6699,6.6894,6.6894,6.6894,6.6894,6.6894,6.6894,6.6894,6.6894,6.6893,6.689,6.6906,6.6878,6.6867,6.6893,6.6867,6.6871,6.6891,6.6891,6.6871,6.6852,6.6859,6.6834,6.6795,6.6795,6.6795,6.6795,6.6795,6.6795,6.6795,6.6795,6.6795,6.6795,6.6795,6.6795,6.6795,6.6795,6.6795,6.6795,6.6795,6.6795,6.6795,6.6795,6.6795,6.6795,6.6795,6.6795,6.6795,6.6795,6.6795,6.6795,6.6795,6.6795,6.6795,6.6795,6.6795,6.6795,6.6795,6.6795,6.6795,6.6795,6.6795,6.6795,6.6795,6.6795,6.6795,6.6795,6.6795,6.6795,6.6795,6.6795,6.6795,6.6795,6.6795,6.6795,6.6795,6.6795,6.6795,5.5766,5.5826,5.5866,5.5866,5.5885,5.5905,5.5905,5.6078,5.6406,5.7081,5.8066,5.8839,5.8895,5.9629,6.0402,6.1002,6.1099,6.1099,6.1099,6.1099,6.1099,6.1099,6.1099,6.1118,6.1157,6.1447,6.1959,6.2697,6.3262,6.4179,6.5527,6.5801,6.623,6.6875,6.6894,6.6894,6.6894,6.6894,6.6894,6.6894,6.6894,6.6894,6.6894,6.6894,6.6894,6.6894,6.6892,6.6904,6.6891,6.6895,6.6901,6.6908,6.6908,6.6908,6.6906,6.6898,6.6867,6.6824,6.6839,6.6815,6.6795,6.6795,6.6795,6.6795,6.6795,6.6795,6.6795,6.6795,6.6795,6.6795,6.6795,6.6795,6.6795,6.6795,6.6795,6.6795,6.6795,6.6795,6.6795,6.6795,6.6795,6.6795,6.6795,6.6795,6.6795,6.6795,6.6795,6.6795,6.6795,6.6795,6.6795,6.6795,6.6795,6.6795,6.6795,6.6795,6.6795,6.6795,6.6795,6.6795,6.6795,6.6795,6.6795,6.6795,6.6795,6.6795,6.6795,6.6795,6.6795,6.6795,6.6795,6.6795,5.5703,5.5745,5.5806,5.5806,5.5846,5.5905,5.5905,5.6541,5.7158,5.7197,5.8509,5.9667,5.9727,6.0442,6.106,6.1099,6.1099,6.1099,6.1099,6.1099,6.1099,6.1099,6.1099,6.1157,6.1273,6.2104,6.2703,6.2876,6.4494,6.5507,6.5586,6.6387,6.6855,6.6894,6.6894,6.6894,6.6894,6.6894,6.6894,6.6894,6.6894,6.6894,6.6894,6.6894,6.6894,6.6894,6.6894,6.6894,6.6894,6.6895,6.6901,6.6894,6.6894,6.6894,6.6894,6.6894,6.6892,6.6881,6.6883,6.6854,6.6795,6.6795,6.6795,6.6795,6.6795,6.6795,6.6795,6.6795,6.6795,6.6795,6.6795,6.6795,6.6795,6.6795,6.6795,6.6795,6.6795,6.6795,6.6795,6.6795,6.6795,6.6795,6.6795,6.6795,6.6795,6.6795,6.6795,6.6795,6.6795,6.6795,6.6795,6.6795,6.6795,6.6795,6.6795,6.6795,6.6795,6.6795,6.6795,6.6795,6.6795,6.6795,6.6795,6.6795,6.6795,6.6795,6.6795,6.6795,6.6795,6.6795,6.6795,6.6795,5.5703,5.5724,5.5745,5.5745,5.5745,5.592,5.6479,5.6845,5.7384,5.8505,5.9218,5.9837,6.0459,6.0828,6.1041,6.1099,6.1099,6.1099,6.1099,6.1099,6.1099,6.1099,6.1099,6.1369,6.2065,6.2482,6.3187,6.4405,6.5172,6.584,6.6406,6.6738,6.6894,6.6894,6.6894,6.6894,6.6894,6.6894,6.6894,6.6894,6.6894,6.6894,6.6894,6.6894,6.6894,6.6894,6.6894,6.6894,6.6894,6.6892,6.6893,6.6894,6.6894,6.6894,6.6894,6.6894,6.6894,6.6893,6.689,6.6884,6.6856,6.68,6.6795,6.6795,6.6795,6.6795,6.6795,6.6795,6.6795,6.6795,6.6795,6.6795,6.6795,6.6795,6.6795,6.6795,6.6795,6.6795,6.6795,6.6795,6.6795,6.6795,6.6795,6.6795,6.6795,6.6795,6.6795,6.6795,6.6795,6.6795,6.6795,6.6795,6.6795,6.6795,6.6795,6.6795,6.6795,6.6795,6.6795,6.6795,6.6795,6.6795,6.6795,6.6795,6.6795,6.6795,6.6795,6.6795,6.6795,6.6795,6.6795,6.6795,5.5703,5.5703,5.5703,5.5703,5.5915,5.628,5.6857,5.7434,5.8168,5.9326,5.981,6.0195,6.0858,6.0978,6.1001,6.1061,6.108,6.108,6.1099,6.1099,6.1099,6.1099,6.1099,6.1485,6.253,6.2931,6.3769,6.5349,6.5824,6.6289,6.6875,6.6894,6.6894,6.6894,6.6894,6.6894,6.6894,6.6894,6.6894,6.6894,6.6894,6.6894,6.6894,6.6894,6.6894,6.6894,6.6894,6.6894,6.6894,6.6894,6.6894,6.6894,6.6894,6.6894,6.6894,6.6894,6.6894,6.6894,6.6894,6.6894,6.6889,6.6842,6.6828,6.6795,6.6795,6.6795,6.6795,6.6795,6.6795,6.6795,6.6795,6.6795,6.6795,6.6795,6.6795,6.6795,6.6795,6.6795,6.6795,6.6795,6.6795,6.6795,6.6795,6.6795,6.6795,6.6795,6.6795,6.6795,6.6795,6.6795,6.6795,6.6795,6.6795,6.6795,6.6795,6.6795,6.6795,6.6795,6.6795,6.6795,6.6795,6.6795,6.6795,6.6795,6.6795,6.6795,6.6795,6.6795,6.6795,6.6795,6.6795,6.6795,0.0,0.0,0.0,5.5722,5.6357,5.6992,5.7049,5.8319,5.9511,5.9531,6.0204,6.0823,6.0888,6.0911,6.0935,6.0982,6.1002,6.1022,6.108,6.1099,6.1099,6.1099,6.1118,6.1563,6.2626,6.3528,6.4476,6.5566,6.6426,6.6894,6.6894,6.6894,6.6894,6.6894,6.6894,6.6894,6.6894,6.6894,6.6894,6.6894,6.6894,6.6894,6.6894,6.6894,6.6894,6.6894,6.6894,6.6894,6.6894,6.6894,6.6894,6.6894,6.6894,6.6894,6.6894,6.6894,6.6894,6.6894,6.6894,6.6894,6.6894,6.6894,6.6867,6.68,6.6795,6.6795,6.6795,6.6795,6.6795,6.6795,6.6795,6.6795,6.6795,6.6795,6.6795,6.6795,6.6795,6.6795,6.6795,6.6795,6.6795,6.6795,6.6795,6.6795,6.6795,6.6795,6.6795,6.6795,6.6795,6.6795,6.6795,6.6795,6.6795,6.6795,6.6795,6.6795,6.6795,6.6795,6.6795,6.6795,6.6795,6.6795,6.6795,6.6795,6.6795,6.6795,6.6795,6.6795,6.6795,6.6795,6.6795,6.6795,5.5703,0.0,0.0,0.0,0.0,0.0,5.8531,5.9165,5.9685,6.03,6.0627,6.08,6.0823,6.0823,6.0846,6.0935,6.0981,6.1002,6.1022,6.108,6.1099,6.1099,6.166,6.2472,6.3535,6.4422,6.5393,6.6465,6.6758,6.6894,6.6894,6.6894,6.6894,6.6894,6.6894,6.6894,6.6894,6.6894,6.6894,6.6894,6.6894,6.6894,6.6894,6.6894,6.6894,6.6894,6.6894,6.6894,6.6894,6.6894,6.6894,6.6894,6.6894,6.6894,6.6894,6.6894,6.6894,6.6894,6.6894,6.6894,6.6894,6.6894,6.6894,6.6869,6.6867,6.6834,6.6795,6.6795,6.6795,6.6795,6.6795,6.6795,6.6795,6.6795,6.6795,6.6795,6.6795,6.6795,6.6795,6.6795,6.6795,6.6795,6.6795,6.6795,6.6795,6.6795,6.6795,6.6795,6.6795,6.6795,6.6795,6.6795,6.6795,6.6795,6.6795,6.6795,6.6795,6.6795,6.6795,6.6795,6.6795,6.6795,6.6795,6.6795,6.6795,6.6795,6.6795,6.6795,6.6795,6.6795,6.6795,6.6795,5.6126,5.6242,5.6453,5.7319,0.0,0.0,5.9281,5.9781,6.0185,6.0704,6.08,6.08,6.08,6.08,6.0823,6.0846,6.0916,6.0981,6.1002,6.1022,6.108,6.1099,6.1872,6.2801,6.3826,6.4753,6.5725,6.6738,6.6875,6.6894,6.6894,6.6894,6.6894,6.6894,6.6894,6.6894,6.6894,6.6894,6.6894,6.6894,6.6894,6.6894,6.6894,6.6894,6.6894,6.6894,6.6894,6.6894,6.6894,6.6894,6.6894,6.6894,6.6894,6.6894,6.6894,6.6894,6.6894,6.6894,6.6894,6.6894,6.6894,6.6894,6.6894,6.6894,6.6898,6.6867,6.6848,6.6839,6.6815,6.6795,6.6795,6.6795,6.6795,6.6795,6.6795,6.6795,6.6795,6.6795,6.6795,6.6795,6.6795,6.6795,6.6795,6.6795,6.6795,6.6795,6.6795,6.6795,6.6795,6.6795,6.6795,6.6795,6.6795,6.6795,6.6795,6.6795,6.6795,6.6795,6.6795,6.6795,6.6795,6.6795,6.6795,6.6795,6.6795,6.6795,6.6795,6.6795,6.6795,6.6795,6.6795,6.6795,5.678,5.7069,5.7338,5.8223,5.8973,0.0,5.9627,6.0242,6.08,6.08,6.08,6.08,6.08,6.08,6.08,6.08,6.0846,6.0894,6.1001,6.1002,6.1022,6.1099,6.195,6.2878,6.3709,6.4789,6.5788,6.664,6.6816,6.6894,6.6894,6.6894,6.6894,6.6894,6.6894,6.6894,6.6894,6.6894,6.6894,6.6894,6.6894,6.6894,6.6894,6.6894,6.6894,6.6894,6.6894,6.6894,6.6894,6.6894,6.6894,6.6894,6.6894,6.6894,6.6894,6.6894,6.6894,6.6894,6.6894,6.6894,6.6894,6.6894,6.6894,6.6894,6.6908,6.6906,6.6904,6.6907,6.6859,6.6815,6.6795,6.6795,6.6795,6.6795,6.6795,6.6795,6.6795,6.6795,6.6795,6.6795,6.6795,6.6795,6.6795,6.6795,6.6795,6.6795,6.6795,6.6795,6.6795,6.6795,6.6795,6.6795,6.6795,6.6795,6.6795,6.6795,6.6795,6.6795,6.6795,6.6795,6.6795,6.6795,6.6795,6.6795,6.6795,6.6795,6.6795,6.6795,6.6795,6.6795,6.6795,6.6795,5.6934,5.7511,5.8242,5.9069,5.9377,0.0,6.0396,6.0685,6.08,6.08,6.08,6.08,6.08,6.08,6.08,6.08,6.0823,6.0869,6.0978,6.1001,6.1022,6.1099,6.2491,6.3536,6.3787,6.5257,6.6335,6.6678,6.6816,6.6894,6.6894,6.6894,6.6894,6.6894,6.6894,6.6894,6.6894,6.6894,6.6894,6.6894,6.6894,6.6894,6.6894,6.6894,6.6894,6.6894,6.6894,6.6894,6.6894,6.6894,6.6894,6.6894,6.6894,6.6894,6.6894,6.6894,6.6894,6.6894,6.6894,6.6894,6.6894,6.6894,6.6894,6.6894,6.6894,6.6894,6.6893,6.6904,6.6887,6.6873,6.6815,6.6795,6.6795,6.6795,6.6795,6.6795,6.6795,6.6795,6.6795,6.6795,6.6795,6.6795,6.6795,6.6795,6.6795,6.6795,6.6795,6.6795,6.6795,6.6795,6.6795,6.6795,6.6795,6.6795,6.6795,6.6795,6.6795,6.6795,6.6795,6.6795,6.6795,6.6795,6.6795,6.6795,6.6795,6.6795,6.6795,6.6795,6.6795,6.6795,6.6795,6.6795,5.753,5.8261,5.9108,5.9935,6.0146,0.0,0.0,6.08,6.08,6.08,6.08,6.08,6.08,6.08,6.08,6.08,6.08,6.0846,6.0933,6.0978,6.1021,6.1061,6.2607,6.371,6.3748,6.5354,6.648,6.6678,6.6816,6.6894,6.6894,6.6894,6.6894,6.6894,6.6894,6.6894,6.6894,6.6894,6.6894,6.6894,6.6894,6.6894,6.6894,6.6894,6.6894,6.6894,6.6894,6.6894,6.6894,6.6894,6.6894,6.6894,6.6894,6.6894,6.6894,6.6894,6.6894,6.6894,6.6894,6.6894,6.6894,6.6894,6.6894,6.6894,6.6894,6.6894,6.6894,6.6893,6.6908,6.6881,6.6856,6.6844,6.6834,6.6815,6.6795,6.6795,6.6795,6.6795,6.6795,6.6795,6.6795,6.6795,6.6795,6.6795,6.6795,6.6795,6.6795,6.6795,6.6795,6.6795,6.6795,6.6795,6.6795,6.6971,6.74,6.7459,6.7634,6.8064,6.8103,6.8103,6.8103,6.8103,6.7888,6.7459,6.7459,6.7224,6.6795,6.6795,6.6795,6.6795,6.6795,6.6795,5.8107,5.9011,5.9915,6.0608,6.08,6.08,0.0,0.0,0.0,6.08,6.08,6.08,6.08,6.08,6.08,6.08,6.08,6.0823,6.0869,6.0933,6.0997,6.1001,6.2588,6.369,6.369,6.5334,6.647,6.6667,6.6796,6.6875,6.6894,6.6894,6.6894,6.6894,6.6894,6.6894,6.6894,6.6894,6.6894,6.6894,6.6894,6.6894,6.6894,6.6894,6.6894,6.6894,6.6894,6.6894,6.6894,6.6894,6.6894,6.6894,6.6894,6.6894,6.6894,6.6894,6.6894,6.6894,6.6894,6.6894,6.6894,6.6894,6.6894,6.6894,6.6894,6.6894,6.6894,6.6894,6.6894,6.6894,6.691,6.6898,6.6926,6.7039,6.7054,6.7107,6.7264,6.7303,6.7303,6.7303,6.7303,6.7185,6.6854,6.6795,6.6795,6.6795,6.6795,6.6795,6.6795,6.6951,6.7049,6.7049,6.7205,6.7595,6.8298,6.8357,6.8649,6.9352,6.9391,6.9391,6.9391,6.9391,6.9079,6.8357,6.8357,6.8005,6.7303,6.7303,6.7127,6.6795,6.6795,6.6795,5.828,5.9454,6.0685,6.0781,6.08,6.08,6.08,0.0,6.08,6.08,0.0,6.08,6.08,0.0,0.0,6.08,6.08,6.08,6.0823,6.0869,6.0933,6.0997,6.2546,6.3611,6.3611,6.5295,6.6469,6.6595,6.668,6.6777,6.6894,6.6894,6.6894,6.6894,6.6894,6.6894,6.6894,6.6894,6.6894,6.6894,6.6894,6.6894,6.6894,6.6894,6.6894,6.6894,6.6894,6.6894,6.6894,6.6894,6.6894,6.6894,6.6894,6.6894,6.6894,6.6894,6.6894,6.6894,6.6894,6.6894,6.6894,6.6894,6.6894,6.6894,6.6894,6.6894,6.6894,6.6894,6.6894,6.6894,6.6894,6.6894,6.7088,6.7782,6.7945,6.8161,6.8942,6.9098,6.9098,6.9098,6.9098,6.861,6.7068,6.6795,6.6795,6.6795,6.6795,6.6795,6.6795,6.7478,6.7947,6.7947,6.863,6.9137,6.9235,6.9255,6.9294,6.9391,6.9391,6.9391,6.9391,6.9391,6.9352,6.9255,6.9255,6.9196,6.9098,6.9098,6.8318,6.6795,6.6795,6.6795,5.8877,5.9877,6.08,6.08,6.08,6.08,6.08,6.08,6.08,6.08,0.0,0.0,0.0,0.0,0.0,0.0,6.08,6.08,6.08,6.0823,6.0869,6.0933,6.2483,6.3934,6.4962,6.5875,6.6419,6.6481,6.6622,6.6719,6.6777,6.6855,6.6894,6.6894,6.6894,6.6894,6.6894,6.6894,6.6894,6.6894,6.6894,6.6894,6.6894,6.6894,6.6894,6.6894,6.6894,6.6894,6.6894,6.6894,6.6894,6.6894,6.6894,6.6894,6.6894,6.6894,6.6894,6.6894,6.6894,6.6894,6.6894,6.6894,6.6894,6.6894,6.6894,6.6894,6.6894,6.6894,6.6894,6.7012,6.7519,6.7656,6.7851,6.8651,6.8843,6.8957,6.9316,6.9401,6.9411,6.9411,6.9391,6.9176,6.8435,6.8318,6.8318,6.8318,6.8318,6.8318,6.8318,6.863,6.8845,6.8845,6.9176,6.9606,7.0113,7.0152,7.0367,7.0875,7.0914,7.0914,7.0914,7.0914,7.066,7.0152,7.0152,6.9918,6.9391,6.9391,6.902,6.8318,6.8318,6.8318,5.9281,6.0146,6.08,6.08,6.08,6.08,6.08,6.08,6.08,6.08,6.08,0.0,0.0,0.0,6.08,6.08,0.0,6.08,6.08,6.08,6.0823,6.0869,6.2397,6.4161,6.5884,6.622,6.632,6.6359,6.6563,6.6676,6.6699,6.6836,6.6894,6.6894,6.6894,6.6894,6.6894,6.6894,6.6894,6.6894,6.6894,6.6894,6.6894,6.6894,6.6894,6.6894,6.6894,6.6894,6.6894,6.6894,6.6894,6.6894,6.6894,6.6894,6.6894,6.6894,6.6894,6.6894,6.6894,6.6894,6.6894,6.6894,6.6894,6.6894,6.6894,6.6894,6.6953,6.7187,6.7265,6.7461,6.832,6.8555,6.8769,6.957,6.9765,6.9824,7.0054,7.0104,7.0108,7.0113,7.0113,7.0113,7.0113,6.9723,6.9391,6.9391,6.9391,6.9391,6.9391,6.9606,6.9762,6.9762,6.9977,7.0367,7.0992,7.107,7.1324,7.1968,7.2007,7.2007,7.2007,7.2007,7.1694,7.107,7.107,7.0738,7.0113,7.0113,7.0113,7.0094,6.9625,6.9391,5.9281,6.0146,6.08,6.08,6.08,6.08,6.08,6.08,6.08,6.08,6.08,6.08,6.08,6.08,6.08,6.08,6.08,0.0,0.0,6.08,6.08,6.08,6.2352,6.4093,6.5839,6.6058,6.6162,6.6282,6.6496,6.6625,6.6698,6.6836,6.6894,6.6894,6.6894,6.6894,6.6894,6.6894,6.6894,6.6894,6.6894,6.6894,6.6894,6.6894,6.6894,6.6894,6.6894,6.6894,6.6894,6.6894,6.6894,6.6894,6.6894,6.6894,6.6894,6.6894,6.6894,6.6894,6.6894,6.6894,6.6894,6.6894,6.6894,6.6894,6.6894,6.6894,6.707,6.793,6.8164,6.8359,6.9238,6.9453,6.9668,7.0469,7.0664,7.0898,7.1738,7.1914,7.1911,7.1919,7.1929,7.1929,7.1929,7.0523,6.9391,6.9391,6.9391,6.9391,6.9391,7.0133,7.066,7.066,7.1402,7.1929,7.1968,7.1968,7.1968,7.2007,7.2007,7.2007,7.2007,7.2007,7.1987,7.1968,7.1968,7.1948,7.1929,7.1929,7.1929,7.187,7.0191,6.9391,6.0127,6.0569,6.08,6.08,6.08,6.08,6.08,6.08,6.08,6.08,6.08,6.08,6.08,6.08,6.08,6.08,6.08,6.08,0.0,6.08,6.1012,6.1589,6.2698,6.407,6.5827,6.6055,6.6121,6.6162,6.6339,6.652,6.6635,6.6728,6.6816,6.6894,6.6894,6.6894,6.6894,6.6894,6.6894,6.6894,6.6894,6.6894,6.6894,6.6894,6.6894,6.6894,6.6894,6.6894,6.6894,6.6894,6.6894,6.6894,6.6894,6.6894,6.6894,6.6894,6.6894,6.6894,6.6894,6.6894,6.6894,6.6894,6.6894,6.7012,6.7598,6.7754,6.7949,6.8828,6.9023,6.9199,7.0078,7.0293,7.0508,7.1367,7.1562,7.164,7.1933,7.1992,7.1992,7.2007,7.2001,7.201,7.2006,7.1509,7.1128,7.1128,7.1128,7.1128,7.1128,7.1382,7.1558,7.1558,7.1812,7.2007,7.2007,7.2007,7.2007,7.2007,7.2007,7.2007,7.2007,7.2007,7.2007,7.2007,7.2007,7.2007,7.2007,7.2007,7.2007,7.1987,7.1402,7.1128,6.055,6.08,6.08,6.08,6.08,6.08,6.08,6.08,6.08,6.08,6.08,6.08,6.08,6.08,6.08,6.08,6.08,6.08,0.0,6.08,6.1223,6.2377,6.3022,6.3931,6.5399,6.5855,6.6077,6.6102,6.6262,6.6437,6.6586,6.6658,6.6758,6.6894,6.6894,6.6894,6.6894,6.6894,6.6894,6.6894,6.6894,6.6894,6.6894,6.6894,6.6894,6.6894,6.6894,6.6894,6.6894,6.6894,6.6894,6.6894,6.6894,6.6894,6.6894,6.6894,6.6894,6.6894,6.6894,6.6894,6.6953,6.7265,6.7363,6.7519,6.8379,6.8633,6.8867,7.0058,7.0137,7.0137,7.1328,7.1387,7.1308,7.1875,7.1992,7.1992,7.1992,7.1992,7.1992,7.1992,7.199,7.2005,7.1994,7.1997,7.2007,7.2007,7.2007,7.2007,7.2007,7.2007,7.2007,7.2007,7.2007,7.2007,7.2007,7.2007,7.2007,7.2007,7.2007,7.2007,7.2007,7.2007,7.2007,7.2007,7.2007,7.2007,7.2007,7.2007,7.2007,7.2007,7.2007,7.2007]},{"header":{"parameterUnit":"m.s-1","parameterCategory":1,"la1":30.6,"la2":29.2853,"lo1":-89.7004,"lo2":-87.6739,"dy":0.0162,"dx":0.0183,"nx":112,"ny":82,"refTime":"2024-03-22T06:00:00:Z","depth":0,"parameterNumber":3,"parameterNumberName":"V-component_of_WINDS"},"data":[0.0,0.0,0.0,0.0,0.0,0.0,0.0,0.0,0.0,0.0,0.0,0.0,0.0,0.0,0.0,0.0,0.0,0.0,0.0,0.0,0.0,0.0,0.0,0.0,0.0,0.0,0.0,0.0,0.0,0.0,0.0,0.0,0.0,0.0,0.0,0.0,0.0,0.0,0.0,0.0,0.0,0.0,0.0,0.0,0.0,0.0,0.0,0.0,0.0,0.0,0.0,0.0,0.0,0.0,0.0,0.0,0.0,0.0,0.0,0.0,0.0,0.0,0.0,0.0,0.0,0.0,0.0,0.0,0.0,0.0,0.0,0.0,0.0,0.0,0.0,0.0,0.0,0.0,0.0,0.0,0.0,0.0,0.0,0.0,0.0,0.0,0.0,0.0,0.0,0.0,-1.1776,-1.1776,-1.1776,-1.1776,-1.1776,-1.1776,-1.1776,-1.1776,0.0,0.0,0.0,0.0,0.0,0.0,0.0,0.0,0.0,0.0,0.0,0.0,0.0,0.0,0.0,0.0,0.0,0.0,0.0,0.0,0.0,0.0,0.0,0.0,0.0,0.0,0.0,0.0,0.0,0.0,0.0,0.0,0.0,0.0,0.0,0.0,0.0,0.0,0.0,0.0,0.0,0.0,0.0,0.0,0.0,0.0,0.0,0.0,0.0,0.0,0.0,0.0,0.0,0.0,0.0,0.0,0.0,0.0,0.0,0.0,0.0,0.0,0.0,0.0,0.0,0.0,0.0,0.0,0.0,0.0,0.0,0.0,0.0,0.0,0.0,0.0,0.0,0.0,0.0,0.0,0.0,0.0,0.0,0.0,0.0,0.0,0.0,0.0,0.0,0.0,0.0,0.0,0.0,0.0,0.0,0.0,0.0,0.0,0.0,0.0,0.0,0.0,0.0,0.0,-1.1776,-1.1776,-1.1776,-1.1776,-1.1776,-1.1776,-1.1776,-1.1776,0.0,0.0,0.0,0.0,0.0,0.0,0.0,0.0,0.0,0.0,0.0,0.0,0.0,0.0,0.0,0.0,0.0,0.0,0.0,0.0,0.0,0.0,0.0,0.0,0.0,0.0,0.0,0.0,0.0,0.0,0.0,0.0,0.0,0.0,0.0,0.0,0.0,0.0,0.0,0.0,0.0,0.0,0.0,0.0,0.0,0.0,0.0,0.0,0.0,0.0,0.0,0.0,0.0,0.0,0.0,0.0,0.0,0.0,0.0,0.0,0.0,0.0,0.0,0.0,0.0,0.0,0.0,0.0,0.0,0.0,0.0,0.0,0.0,0.0,0.0,0.0,0.0,0.0,0.0,0.0,0.0,0.0,0.0,0.0,0.0,0.0,0.0,0.0,0.0,0.0,0.0,0.0,0.0,0.0,0.0,0.0,0.0,0.0,0.0,0.0,0.0,0.0,0.0,-1.1651,-1.1776,-1.1776,-1.1776,-1.1776,-1.1776,-1.1776,-1.1776,-1.1776,-1.1776,0.0,0.0,0.0,0.0,0.0,0.0,0.0,0.0,0.0,0.0,0.0,0.0,0.0,0.0,0.0,0.0,0.0,0.0,0.0,0.0,0.0,0.0,0.0,0.0,0.0,0.0,0.0,0.0,0.0,0.0,0.0,0.0,0.0,0.0,0.0,0.0,0.0,0.0,0.0,0.0,0.0,0.0,0.0,0.0,0.0,0.0,0.0,0.0,0.0,0.0,0.0,0.0,0.0,0.0,0.0,0.0,0.0,0.0,0.0,0.0,0.0,0.0,0.0,0.0,0.0,0.0,0.0,0.0,0.0,0.0,0.0,0.0,0.0,0.0,0.0,0.0,0.0,0.0,0.0,0.0,0.0,0.0,0.0,0.0,0.0,0.0,0.0,0.0,0.0,0.0,0.0,0.0,0.0,0.0,0.0,0.0,0.0,0.0,0.0,0.0,0.0,0.0,-1.1647,-1.1776,-1.1776,-1.1776,-1.1776,-1.1776,-1.1776,-1.1776,-1.1776,-1.1776,0.0,0.0,0.0,0.0,0.0,0.0,0.0,0.0,0.0,0.0,0.0,0.0,0.0,0.0,0.0,0.0,0.0,0.0,0.0,0.0,0.0,0.0,0.0,0.0,0.0,0.0,0.0,0.0,0.0,0.0,0.0,0.0,0.0,0.0,0.0,0.0,0.0,0.0,0.0,0.0,0.0,0.0,0.0,0.0,0.0,0.0,0.0,0.0,0.0,0.0,0.0,0.0,0.0,0.0,0.0,0.0,0.0,0.0,0.0,0.0,0.0,0.0,0.0,0.0,0.0,0.0,0.0,0.0,0.0,0.0,0.0,0.0,0.0,0.0,0.0,0.0,0.0,0.0,0.0,0.0,0.0,0.0,0.0,0.0,0.0,0.0,0.0,0.0,0.0,0.0,0.0,0.0,0.0,0.0,0.0,0.0,0.0,0.0,0.0,0.0,0.0,0.0,-1.1776,-1.1776,-1.1776,-1.1776,-1.1776,-1.1776,-1.1776,-1.1776,-1.1776,-1.1776,0.0,0.0,0.0,0.0,0.0,0.0,0.0,0.0,0.0,0.0,0.0,0.0,0.0,0.0,0.0,0.0,0.0,0.0,0.0,0.0,0.0,0.0,0.0,0.0,0.0,0.0,0.0,0.0,0.0,0.0,0.0,0.0,0.0,0.0,0.0,0.0,0.0,0.0,0.0,0.0,0.0,0.0,0.0,0.0,0.0,0.0,0.0,0.0,0.0,0.0,0.0,0.0,0.0,0.0,0.0,0.0,0.0,0.0,0.0,0.0,0.0,0.0,0.0,0.0,0.0,0.0,0.0,0.0,0.0,0.0,0.0,0.0,0.0,0.0,0.0,0.0,0.0,0.0,0.0,0.0,0.0,0.0,0.0,0.0,0.0,0.0,0.0,0.0,0.0,0.0,0.0,0.0,0.0,0.0,0.0,0.0,0.0,0.0,0.0,0.0,0.0,0.0,-1.1651,-1.1776,-1.1776,-1.1776,-1.1776,-1.1776,-1.1776,-1.1776,-1.1776,0.0,0.0,0.0,0.0,0.0,0.0,0.0,0.0,0.0,0.0,0.0,0.0,0.0,0.0,0.0,0.0,0.0,0.0,0.0,0.0,0.0,0.0,0.0,0.0,0.0,0.0,0.0,0.0,0.0,0.0,0.0,0.0,0.0,0.0,0.0,0.0,0.0,0.0,0.0,0.0,0.0,0.0,0.0,0.0,0.0,0.0,0.0,0.0,0.0,0.0,0.0,0.0,0.0,0.0,0.0,0.0,0.0,0.0,0.0,0.0,0.0,0.0,0.0,0.0,0.0,0.0,0.0,0.0,0.0,0.0,0.0,0.0,0.0,0.0,0.0,0.0,0.0,0.0,0.0,0.0,0.0,0.0,0.0,0.0,0.0,0.0,0.0,0.0,0.0,0.0,0.0,0.0,0.0,0.0,0.0,0.0,0.0,0.0,0.0,0.0,0.0,0.0,-1.0781,-1.1402,-1.1776,-1.1776,-1.1776,-1.1776,-1.1776,-1.1776,-1.1776,-1.1776,0.0,0.0,0.0,0.0,0.0,0.0,0.0,0.0,0.0,0.0,0.0,0.0,0.0,0.0,0.0,0.0,0.0,0.0,0.0,0.0,0.0,0.0,0.0,0.0,0.0,0.0,0.0,0.0,0.0,0.0,0.0,0.0,0.0,0.0,0.0,0.0,0.0,0.0,0.0,0.0,0.0,0.0,0.0,0.0,0.0,0.0,0.0,0.0,0.0,0.0,0.0,0.0,0.0,0.0,0.0,0.0,0.0,0.0,0.0,0.0,0.0,0.0,0.0,0.0,0.0,0.0,0.0,0.0,0.0,0.0,0.0,0.0,0.0,0.0,0.0,0.0,0.0,0.0,0.0,0.0,0.0,0.0,0.0,0.0,0.0,0.0,0.0,0.0,0.0,0.0,0.0,0.0,0.0,0.0,0.0,0.0,0.0,0.0,0.0,0.0,0.0,0.0,-0.9805,-1.0914,-1.1776,-1.1776,-1.1776,-1.1776,-1.1776,-1.1776,-1.1776,0.0,0.0,0.0,0.0,0.0,0.0,0.0,0.0,0.0,0.0,0.0,0.0,0.0,0.0,0.0,0.0,0.0,0.0,0.0,0.0,0.0,0.0,0.0,0.0,0.0,0.0,0.0,0.0,0.0,0.0,0.0,0.0,0.0,0.0,0.0,0.0,0.0,0.0,0.0,0.0,0.0,0.0,0.0,0.0,0.0,0.0,0.0,0.0,0.0,0.0,0.0,0.0,0.0,0.0,0.0,0.0,0.0,0.0,0.0,0.0,0.0,0.0,0.0,0.0,0.0,0.0,0.0,0.0,0.0,0.0,0.0,0.0,0.0,0.0,0.0,0.0,0.0,0.0,0.0,0.0,0.0,0.0,0.0,0.0,0.0,0.0,0.0,0.0,0.0,0.0,0.0,0.0,0.0,0.0,0.0,0.0,0.0,0.0,0.0,0.0,0.0,0.0,0.0,-0.968,-1.0914,-1.1776,-1.1776,-1.1776,-1.1776,-1.1776,-1.1776,-1.1776,-1.1776,0.0,0.0,0.0,0.0,0.0,0.0,0.0,0.0,0.0,0.0,0.0,0.0,0.0,0.0,0.0,0.0,0.0,0.0,0.0,0.0,0.0,0.0,0.0,0.0,0.0,0.0,0.0,0.0,0.0,0.0,0.0,0.0,0.0,0.0,0.0,0.0,0.0,0.0,0.0,0.0,0.0,0.0,0.0,0.0,0.0,0.0,0.0,0.0,0.0,0.0,0.0,0.0,0.0,0.0,0.0,0.0,0.0,0.0,0.0,0.0,0.0,0.0,0.0,0.0,0.0,0.0,0.0,0.0,0.0,0.0,0.0,0.0,0.0,0.0,0.0,0.0,0.0,0.0,0.0,0.0,0.0,0.0,0.0,0.0,0.0,0.0,0.0,0.0,0.0,0.0,0.0,0.0,0.0,0.0,0.0,0.0,0.0,0.0,0.0,0.0,0.0,0.0,-0.8097,-1.0301,-1.1651,-1.1035,-1.1526,-1.1776,-1.1776,-1.1776,-1.1776,-1.1776,0.0,0.0,0.0,0.0,0.0,0.0,0.0,0.0,0.0,0.0,0.0,0.0,0.0,0.0,0.0,0.0,0.0,0.0,0.0,0.0,0.0,0.0,0.0,0.0,0.0,0.0,0.0,0.0,0.0,0.0,0.0,0.0,0.0,0.0,0.0,0.0,0.0,0.0,0.0,0.0,0.0,0.0,0.0,0.0,0.0,0.0,0.0,0.0,0.0,0.0,0.0,0.0,0.0,0.0,0.0,0.0,0.0,0.0,0.0,0.0,0.0,0.0,0.0,0.0,0.0,0.0,0.0,0.0,0.0,0.0,0.0,0.0,0.0,0.0,0.0,0.0,0.0,0.0,0.0,0.0,0.0,0.0,0.0,0.0,0.0,0.0,0.0,0.0,0.0,0.0,0.0,0.0,0.0,0.0,0.0,0.0,0.0,0.0,0.0,0.0,0.0,0.0,-0.5533,-0.8955,-1.0914,-0.9805,-1.0668,-1.1409,-1.1409,-1.153,-1.1651,-1.1651,0.0,0.0,0.0,0.0,0.0,0.0,0.0,0.0,0.0,0.0,0.0,0.0,0.0,0.0,0.0,0.0,0.0,0.0,0.0,0.0,0.0,0.0,0.0,0.0,0.0,0.0,0.0,0.0,0.0,0.0,0.0,0.0,0.0,0.0,0.0,0.0,0.0,0.0,0.0,0.0,0.0,0.0,0.0,0.0,0.0,0.0,0.0,0.0,0.0,0.0,0.0,0.0,0.0,0.0,0.0,0.0,0.0,0.0,0.0,0.0,-0.2355,-0.2244,0.0,0.0,0.0,0.0,0.0,0.0,0.0,0.0,0.0,0.0,0.0,0.0,0.0,0.0,0.0,0.0,0.0,0.0,0.0,0.0,0.0,0.0,0.0,0.0,0.0,0.0,0.0,0.0,0.0,0.0,0.0,0.0,0.0,0.0,0.0,0.0,0.0,0.0,0.0,0.0,-0.5782,-0.7492,-0.859,-0.8343,-0.859,-0.8711,-0.8711,-0.9687,-1.0172,-1.0172,-1.116,0.0,0.0,0.0,0.0,0.0,0.0,0.0,0.0,0.0,0.0,0.0,0.0,0.0,0.0,0.0,0.0,0.0,0.0,0.0,0.0,0.0,0.0,0.0,0.0,0.0,0.0,0.0,0.0,0.0,0.0,0.0,0.0,0.0,0.0,0.0,0.0,0.0,0.0,0.0,0.0,0.0,0.0,0.0,0.0,0.0,0.0,0.0,0.0,0.0,0.0,0.0,0.0,0.0,0.0,0.0,0.0,0.0,0.0,0.0,-0.2714,-0.2611,0.0,0.0,0.0,0.0,0.0,0.0,0.0,0.0,0.0,0.0,0.0,0.0,0.0,0.0,0.0,0.0,0.0,0.0,0.0,0.0,0.0,0.0,0.0,0.0,0.0,0.0,0.0,0.0,0.0,0.0,0.0,0.0,0.0,0.0,0.0,0.0,0.0,0.0,0.0,0.0,-0.4803,-0.6637,-0.7614,-0.7004,-0.7492,-0.7858,-0.7858,-0.8465,-0.883,-0.883,-0.9509,0.0,0.0,0.0,0.0,0.0,0.0,0.0,0.0,0.0,0.0,0.0,0.0,0.0,0.0,0.0,0.0,0.0,0.0,0.0,0.0,0.0,0.0,0.0,0.0,0.0,0.0,0.0,0.0,0.0,0.0,0.0,0.0,0.0,0.0,0.0,0.0,0.0,0.0,0.0,0.0,0.0,0.0,0.0,0.0,0.0,0.0,0.0,0.0,0.0,0.0,0.0,0.0,0.0,-0.3365,-0.3365,-0.2918,-0.3139,-0.3138,-0.3141,-0.3079,-0.2982,-0.2975,-0.2868,0.0,0.0,0.0,0.0,0.0,0.0,0.0,0.0,0.0,0.0,0.0,0.0,0.0,0.0,0.0,0.0,0.0,0.0,0.0,0.0,0.0,0.0,-0.6881,-0.4439,-0.493,-0.6517,-0.8708,0.0,0.0,0.0,0.0,0.0,0.0,0.0,0.0,0.0,0.0,0.0,-0.3702,-0.5661,-0.6761,-0.5663,-0.6517,-0.7248,-0.7248,-0.7388,-0.7521,-0.7521,-0.7751,-0.8568,0.0,0.0,0.0,0.0,0.0,0.0,0.0,0.0,0.0,0.0,0.0,0.0,0.0,0.0,0.0,0.0,0.0,0.0,0.0,0.0,0.0,0.0,0.0,0.0,0.0,0.0,0.0,0.0,0.0,0.0,0.0,0.0,-0.264,-0.3199,0.0,0.0,0.0,0.0,0.0,0.0,0.0,0.0,0.0,0.0,0.0,0.0,0.0,-0.3138,-0.3475,-0.3475,-0.3475,-0.3475,-0.3587,-0.3587,-0.3475,-0.3475,-0.3587,-0.359,-0.3537,0.0,-0.349,-0.3198,0.0,0.0,0.0,0.0,0.0,0.0,0.0,0.0,0.0,0.0,0.0,0.0,0.0,0.0,0.0,0.0,0.0,0.0,0.0,0.0,0.0,0.0,-0.5786,-0.4318,-0.493,-0.6029,-0.6394,-0.5174,-0.4195,-0.4441,-0.3948,-0.3579,0.0,0.0,0.0,0.0,0.0,0.0,-0.3826,-0.4195,-0.4318,-0.4196,-0.4318,-0.4441,-0.4441,-0.5609,-0.6275,-0.6275,-0.737,-0.8704,-1.0106,-1.0249,0.0,0.0,0.0,0.0,0.0,0.0,0.0,0.0,0.0,0.0,0.0,0.0,0.0,0.0,0.0,0.0,0.0,0.0,0.0,0.0,0.0,0.0,0.0,0.0,0.0,0.0,0.0,0.0,0.0,-0.2444,-0.2776,-0.3006,-0.2722,-0.2651,0.0,0.0,0.0,0.0,0.0,0.0,0.0,0.0,0.0,-0.3137,-0.325,-0.3474,-0.3587,-0.3587,-0.3587,-0.3587,-0.3587,-0.3587,-0.3587,-0.3587,-0.3587,-0.3589,-0.3616,-0.3612,-0.3593,-0.3539,-0.3333,-0.3213,0.0,0.0,0.0,0.0,-0.2721,-0.2955,-0.3026,-0.3188,-0.346,-0.3516,0.0,0.0,0.0,0.0,0.0,0.0,0.0,-0.3703,-0.3828,-0.4318,-0.4685,-0.4073,-0.4318,-0.4807,-0.4807,-0.4318,-0.4073,-0.493,-0.4316,-0.3703,-0.3579,-0.3332,0.0,0.0,0.0,-0.358,-0.3828,-0.3951,-0.3951,-0.3951,-0.3978,-0.3997,-0.3997,-0.4556,-0.4976,-0.4976,-0.6198,-0.7669,-0.9221,-1.0071,-1.1164,0.0,0.0,0.0,0.0,0.0,0.0,0.0,0.0,0.0,0.0,0.0,0.0,0.0,0.0,0.0,0.0,0.0,0.0,0.0,0.0,0.0,0.0,0.0,0.0,0.0,0.0,0.0,0.0,-0.2769,-0.2911,-0.2924,-0.2759,-0.2701,0.0,0.0,0.0,0.0,0.0,0.0,-0.2805,-0.3027,-0.325,-0.325,-0.3475,-0.3587,-0.3587,-0.3587,-0.3587,-0.3587,-0.3587,-0.3587,-0.3587,-0.3587,-0.3587,-0.3587,-0.3587,-0.3587,-0.3591,-0.3636,-0.354,-0.3307,-0.3153,-0.3027,-0.2919,-0.2818,-0.3047,-0.3279,-0.3334,-0.3498,-0.3779,-0.3841,-0.3901,-0.3951,-0.3951,0.0,0.0,0.0,0.0,-0.3951,-0.3951,-0.3951,-0.3951,-0.3951,-0.3951,-0.3951,-0.3951,-0.3951,-0.4196,-0.5174,-0.4562,-0.3826,-0.358,-0.358,0.0,-0.358,-0.358,-0.3703,-0.3828,-0.3951,-0.3956,-0.3971,-0.401,-0.4041,-0.4056,-0.4113,-0.4149,-0.4149,-0.551,-0.6997,-0.8437,-0.9981,-1.1369,-1.2836,0.0,0.0,0.0,0.0,0.0,0.0,0.0,0.0,0.0,0.0,0.0,0.0,0.0,0.0,0.0,0.0,0.0,0.0,0.0,0.0,0.0,0.0,0.0,0.0,0.0,0.0,0.0,0.0,0.0,-0.2975,-0.3027,0.0,0.0,0.0,0.0,-0.2693,-0.2915,-0.3026,-0.3026,-0.3362,-0.3587,-0.3587,-0.3587,-0.3587,-0.3587,-0.3587,-0.3587,-0.3587,-0.3587,-0.3587,-0.3587,-0.3587,-0.3587,-0.3587,-0.3587,-0.3587,-0.3587,-0.3591,-0.3593,-0.3591,-0.3251,-0.325,-0.3482,-0.3308,-0.3329,-0.3683,-0.3743,-0.3766,-0.3779,-0.3841,-0.3901,-0.3951,-0.3951,-0.3951,0.0,0.0,-0.3951,-0.3951,-0.3951,-0.3951,-0.3951,-0.3951,-0.3951,-0.3951,-0.3951,-0.3951,-0.3951,-0.395,-0.395,-0.3951,-0.3828,0.0,-0.3828,-0.3828,-0.3828,-0.3828,-0.3951,-0.3951,-0.3971,-0.4025,-0.4033,-0.4059,-0.4116,-0.4177,-0.4211,-0.4211,-0.5592,-0.71,-0.8565,-0.9899,-1.1369,-1.2836,-1.2828,0.0,0.0,0.0,0.0,0.0,0.0,0.0,0.0,0.0,0.0,0.0,0.0,0.0,0.0,0.0,0.0,0.0,0.0,0.0,0.0,0.0,0.0,0.0,0.0,0.0,0.0,0.0,0.0,-0.2491,-0.2642,0.0,-0.2355,-0.2691,-0.2915,-0.2915,-0.325,-0.3362,-0.3137,-0.3362,-0.3475,-0.325,-0.3475,-0.3587,-0.3587,-0.3587,-0.3587,-0.3587,-0.3587,-0.3587,-0.3587,-0.3587,-0.3587,-0.3587,-0.3587,-0.3587,-0.3587,-0.3587,-0.3587,-0.3587,-0.3475,-0.3475,-0.359,-0.3499,-0.3506,-0.3623,-0.3644,-0.3677,-0.3728,-0.3827,-0.3901,-0.3951,-0.3951,-0.3951,-0.3951,-0.3951,-0.3951,-0.3951,-0.3951,-0.3951,-0.3951,-0.3951,-0.3951,-0.3951,-0.3951,-0.3951,-0.3951,-0.3951,-0.3951,-0.3951,-0.3951,-0.3951,-0.3951,-0.3951,-0.3951,-0.3951,-0.3951,-0.3951,-0.3973,-0.4029,-0.407,-0.4117,-0.4179,-0.424,-0.4275,-0.4275,-0.6558,-0.8041,-0.8573,-1.0836,-1.2301,-1.2836,-1.2836,-1.2804,0.0,0.0,0.0,0.0,0.0,0.0,0.0,0.0,0.0,0.0,0.0,0.0,0.0,0.0,0.0,0.0,0.0,0.0,0.0,0.0,0.0,0.0,0.0,0.0,0.0,-0.2148,-0.2188,-0.2188,-0.2444,-0.2581,-0.2244,-0.2691,-0.2914,-0.2914,-0.3139,-0.3251,-0.3027,-0.325,-0.3362,-0.3137,-0.3474,-0.3597,-0.3619,-0.3619,-0.3628,-0.3649,-0.3649,-0.3649,-0.3649,-0.3649,-0.3649,-0.3649,-0.3649,-0.3649,-0.3649,-0.3649,-0.3649,-0.3644,-0.3604,-0.3587,-0.3587,-0.3587,-0.3587,-0.3587,-0.3587,-0.364,-0.3722,-0.3804,-0.3884,-0.3951,-0.3951,-0.3951,-0.3951,-0.3951,-0.3951,-0.3951,-0.3951,-0.3951,-0.3951,-0.3951,-0.3951,-0.3951,-0.3951,-0.3951,-0.3951,-0.3951,-0.3951,-0.3951,-0.3951,-0.3951,-0.3951,-0.3951,-0.3951,-0.3951,-0.3951,-0.3967,-0.4001,-0.4059,-0.412,-0.4181,-0.4241,-0.4285,-0.4308,-0.4308,-0.6976,-0.8573,-0.8573,-1.1237,-1.2836,-1.2836,-1.2972,-1.3099,-1.3227,0.0,0.0,0.0,0.0,0.0,0.0,0.0,0.0,0.0,0.0,0.0,0.0,0.0,0.0,0.0,0.0,0.0,0.0,0.0,0.0,0.0,0.0,0.0,-0.2031,-0.2165,-0.2189,-0.2189,-0.2445,-0.2581,-0.2244,-0.2469,-0.2693,-0.2693,-0.2693,-0.2693,-0.2693,-0.2917,-0.3139,-0.3139,-0.3479,-0.3621,-0.368,-0.3681,-0.371,-0.377,-0.377,-0.377,-0.377,-0.377,-0.377,-0.377,-0.377,-0.377,-0.377,-0.377,-0.377,-0.3758,-0.3639,-0.3593,-0.3593,-0.3593,-0.3593,-0.3593,-0.3593,-0.3672,-0.3773,-0.3773,-0.3853,-0.3951,-0.3951,-0.3951,-0.3951,-0.3951,-0.3951,-0.3951,-0.3951,-0.3951,-0.3951,-0.3951,-0.3951,-0.3951,-0.3951,-0.3951,-0.3951,-0.3951,-0.3951,-0.3951,-0.3951,-0.3951,-0.3951,-0.3951,-0.3951,0.0,-0.3952,-0.4001,-0.4059,-0.4121,-0.4181,-0.4241,-0.4303,-0.4308,-0.4308,-0.4308,-0.6976,-0.8573,-0.8573,-1.1237,-1.2836,-1.2836,-1.3235,-1.3625,-1.3875,0.0,0.0,0.0,0.0,0.0,0.0,0.0,0.0,0.0,0.0,0.0,0.0,0.0,0.0,0.0,0.0,0.0,0.0,0.0,0.0,0.0,-0.1739,-0.1856,-0.1847,-0.1874,-0.1894,-0.1894,-0.2125,-0.2356,-0.2244,-0.2469,-0.2693,-0.2693,-0.2693,-0.2581,-0.2356,-0.2835,-0.308,-0.2852,-0.3464,-0.3728,-0.3744,-0.3744,-0.3752,-0.377,-0.377,-0.377,-0.377,-0.377,-0.377,-0.377,-0.377,-0.377,-0.377,-0.377,-0.377,-0.3766,-0.3732,-0.3719,-0.3719,-0.3719,-0.3719,-0.3719,-0.3719,-0.377,-0.3835,-0.3835,-0.3887,-0.3951,-0.3951,-0.3951,-0.3951,-0.3951,-0.3951,-0.3951,-0.3951,-0.3951,-0.3951,-0.3951,-0.3951,-0.3951,-0.3951,-0.3951,-0.3951,-0.3951,-0.3951,-0.3951,-0.3951,-0.3951,-0.3951,-0.3951,-0.3951,-0.3965,-0.4007,-0.4025,-0.4075,-0.418,-0.4207,-0.4241,-0.4303,-0.4308,-0.4308,-0.4308,-0.6976,-0.8573,-0.8573,-1.1237,-1.2836,-1.2836,-1.3235,-1.3625,0.0,0.0,0.0,0.0,0.0,0.0,0.0,0.0,0.0,0.0,0.0,0.0,0.0,0.0,0.0,0.0,0.0,0.0,0.0,0.0,0.0,0.0,-0.1761,-0.1768,-0.1768,-0.1784,-0.1795,-0.1795,-0.1908,-0.202,-0.202,-0.2244,-0.2356,-0.2356,-0.2372,-0.2268,-0.204,-0.2647,-0.3017,-0.2785,-0.3398,-0.3782,-0.3807,-0.3807,-0.382,-0.3845,-0.3845,-0.3845,-0.3845,-0.3845,-0.3845,-0.3845,-0.3845,-0.3845,-0.3845,-0.3845,-0.3845,-0.3841,0.0,0.0,0.0,0.0,-0.377,-0.377,-0.377,-0.3809,-0.386,-0.386,-0.3901,-0.3951,-0.3951,-0.3951,-0.3951,-0.3951,-0.3951,-0.3951,-0.3951,-0.3951,-0.3951,-0.3951,-0.3951,-0.3951,-0.3951,-0.3951,-0.3951,-0.3951,-0.3951,0.0,-0.3951,-0.3951,-0.3951,-0.3951,-0.3951,-0.3971,-0.4027,-0.4057,-0.4109,-0.4206,-0.424,-0.4268,-0.4305,-0.4308,0.0,0.0,0.0,-0.9105,-1.0303,-1.1901,0.0,0.0,0.0,-1.3625,-1.3875,-1.4272,0.0,0.0,-1.4544,-1.4397,0.0,0.0,0.0,0.0,0.0,0.0,0.0,0.0,0.0,0.0,0.0,0.0,0.0,0.0,0.0,0.0,-0.1778,-0.1795,-0.1795,-0.1795,-0.1795,-0.1795,-0.1795,-0.1795,-0.1795,-0.1798,-0.18,-0.18,-0.1828,-0.1846,-0.1846,-0.2458,0.0,0.0,0.0,-0.3815,-0.3869,-0.3877,-0.3907,-0.3961,-0.3966,-0.397,-0.397,-0.397,-0.397,-0.397,-0.397,-0.397,-0.397,-0.397,-0.397,-0.3958,-0.3837,-0.3789,-0.3789,-0.3789,-0.3789,-0.3789,-0.3789,0.0,0.0,-0.3871,-0.3907,-0.3951,-0.3951,-0.3951,-0.3951,-0.3951,-0.3951,-0.3951,-0.3951,-0.3951,-0.3951,-0.3951,-0.3951,-0.3951,-0.3951,-0.3951,-0.3951,-0.3951,-0.3951,-0.3951,-0.3951,-0.3951,-0.3951,-0.3951,-0.3956,-0.3981,-0.4037,-0.4098,-0.4159,-0.4219,-0.4275,0.0,-0.4308,-0.4308,-0.4308,-0.4308,-0.6976,-0.9905,-1.2704,-1.2836,-1.2836,-1.2836,-1.3235,-1.3625,-1.3875,-1.4272,-1.467,-1.4926,-1.4752,-1.4563,0.0,0.0,0.0,0.0,0.0,0.0,0.0,0.0,0.0,0.0,0.0,0.0,0.0,0.0,0.0,-0.1893,-0.1791,-0.1795,-0.1795,-0.1795,-0.1795,-0.1795,-0.1795,-0.1795,-0.1795,-0.1817,-0.1832,-0.1832,-0.186,-0.1877,-0.1877,-0.2499,-0.2879,-0.2879,-0.3524,-0.3921,-0.3933,-0.3978,-0.4007,-0.4019,-0.4068,0.0,-0.4091,-0.4091,-0.4091,-0.4091,-0.4091,-0.4091,-0.4091,-0.4091,-0.4091,-0.408,-0.3962,-0.3916,-0.3916,-0.3916,-0.3916,-0.3916,-0.3916,-0.3924,-0.3933,-0.3933,-0.3942,-0.3951,-0.3951,-0.3951,0.0,-0.3951,-0.3951,-0.3951,-0.3951,-0.3951,-0.3951,-0.3951,-0.3951,-0.3951,-0.3951,-0.3951,-0.3951,-0.3951,-0.3951,-0.3951,-0.3951,-0.3951,-0.3951,-0.3951,-0.3989,-0.404,-0.4101,-0.4161,-0.4222,-0.4283,-0.43,-0.4308,-0.4308,-0.4308,-0.4308,-0.4308,-0.6976,-0.9905,-1.2704,-1.2836,-1.2836,-1.2836,-1.349,-1.3879,-1.3875,-1.4539,-1.48,-1.4931,-1.4893,-1.4851,0.0,0.0,0.0,0.0,0.0,0.0,0.0,0.0,0.0,0.0,0.0,-0.2924,-0.2512,0.0,-0.2111,-0.1793,-0.1795,-0.1795,-0.1795,-0.1795,-0.1795,-0.1795,-0.1795,-0.1801,-0.1817,-0.1832,-0.1847,-0.1862,-0.1892,-0.1909,-0.1909,-0.242,-0.2814,-0.296,-0.3482,-0.3758,-0.4038,-0.4065,-0.408,-0.408,-0.411,-0.4125,-0.4125,-0.4125,-0.4125,-0.4125,-0.4125,-0.4125,-0.4125,-0.4125,-0.4125,-0.412,-0.4061,-0.4019,-0.3993,-0.3993,-0.3976,-0.3951,-0.3951,-0.3951,-0.3951,-0.3951,-0.3951,-0.3951,-0.3951,-0.3951,-0.3951,-0.3951,-0.3951,-0.3951,-0.3951,-0.3951,-0.3951,-0.3951,-0.3951,-0.3951,-0.3951,-0.3951,-0.3951,-0.3951,-0.3974,-0.3993,-0.3993,-0.4018,-0.4027,-0.3997,-0.4016,-0.4067,-0.4159,-0.4198,-0.424,-0.4301,-0.4308,-0.4308,-0.4308,-0.4308,-0.4975,-0.6309,-0.7774,-0.9905,-1.2704,-1.2836,-1.2836,-1.2836,-1.3363,-1.3752,-1.3875,-1.4403,-1.48,-1.4931,-1.4931,-1.4931,0.0,0.0,0.0,0.0,0.0,0.0,0.0,-0.3347,-0.3369,-0.3418,-0.326,-0.3079,-0.2639,-0.2447,-0.2132,-0.1907,-0.1795,-0.1795,-0.1795,-0.1795,-0.1797,-0.1803,-0.1804,-0.1813,-0.1838,-0.1851,-0.1868,-0.1893,-0.1923,-0.194,-0.194,-0.2336,-0.2616,-0.3028,-0.3291,-0.357,-0.3868,-0.4007,-0.4014,-0.4014,-0.4155,-0.4161,-0.4161,-0.4161,-0.4161,-0.4161,-0.4161,-0.4161,-0.4161,-0.4161,-0.4161,-0.4161,-0.4161,-0.4124,-0.4068,-0.4057,-0.4023,-0.3985,-0.3985,-0.3985,-0.3985,-0.3985,-0.3985,-0.3985,-0.3985,-0.3985,-0.3982,-0.397,-0.3966,-0.3965,-0.3954,-0.3951,-0.3954,-0.3965,-0.3966,-0.397,-0.3982,-0.3985,-0.3985,-0.3985,-0.4022,-0.4052,-0.4052,-0.4093,-0.4109,-0.406,-0.4063,-0.4105,-0.4204,-0.4228,-0.4253,-0.4301,-0.4308,-0.4308,-0.4308,-0.4308,-0.551,-0.844,-0.8573,-0.9905,-1.2704,-1.2836,-1.2836,-1.2836,-1.3235,-1.3625,-1.3875,-1.4272,-1.467,-1.4931,-1.4931,-1.4931,-0.323,-0.327,-0.3311,-0.3311,-0.3352,-0.3394,0.0,-0.3441,-0.3478,-0.3486,-0.3536,-0.3354,-0.2797,-0.269,-0.2469,-0.1907,-0.1795,-0.1795,-0.1795,-0.1795,-0.1805,-0.1832,-0.1835,-0.1836,-0.184,-0.1889,-0.1922,-0.1926,-0.1954,-0.1971,-0.1971,-0.2373,-0.2519,-0.2523,-0.2941,-0.3221,-0.3226,-0.3526,-0.3811,-0.3811,-0.4127,-0.4288,-0.4288,-0.4288,-0.4288,-0.4288,-0.4288,-0.4288,-0.4288,-0.4288,-0.4288,-0.4288,-0.4288,-0.4249,-0.4189,-0.4135,-0.4112,-0.4106,-0.4106,-0.4106,-0.4106,-0.4106,-0.4106,-0.4106,-0.4106,-0.4106,-0.4094,-0.404,-0.4026,-0.4014,-0.3963,-0.3951,-0.3963,-0.4014,-0.4026,-0.404,-0.4094,-0.4106,-0.4106,-0.4106,-0.411,-0.4115,-0.4115,-0.4121,-0.4124,-0.4116,-0.4161,-0.4202,-0.4214,-0.4264,-0.43,-0.4307,-0.4308,-0.4308,-0.4308,-0.4308,-0.551,-0.844,-0.8573,-0.9905,-1.2704,-1.2836,-1.2836,-1.2836,-1.349,-1.3875,-1.3875,-1.4534,-1.48,-1.4931,-1.4931,-1.4931,-0.3274,-0.3301,-0.333,-0.3365,-0.3394,-0.3421,-0.3454,-0.348,-0.3506,-0.3542,-0.3458,-0.3139,-0.2806,-0.2581,-0.2244,-0.1907,-0.1795,-0.1795,-0.1795,-0.1795,-0.1806,-0.1837,-0.1856,-0.1874,-0.1892,-0.1916,-0.1939,-0.1956,-0.1984,-0.2001,-0.2001,-0.2156,-0.231,-0.2589,-0.2735,-0.2886,-0.3173,-0.3591,-0.3734,-0.3734,-0.416,-0.4308,-0.4308,-0.4308,-0.4308,-0.4308,-0.4308,-0.4308,-0.4308,-0.4308,-0.4308,-0.4308,-0.4308,-0.4292,-0.4262,-0.4202,-0.4157,-0.4125,-0.4125,-0.4125,-0.4125,-0.4125,-0.4125,-0.4125,-0.4125,-0.4125,-0.412,-0.4094,-0.4087,-0.4082,-0.4059,-0.4052,-0.4059,-0.4082,-0.4087,-0.4094,-0.412,-0.4125,-0.4125,-0.4125,-0.4154,-0.4179,-0.4179,-0.4209,-0.4232,-0.4232,-0.4222,-0.4229,-0.4264,-0.4292,-0.4308,-0.4308,-0.4308,-0.4308,-0.4308,-0.4308,-0.551,-0.844,-0.8573,-0.9905,-1.2704,-1.2836,-1.2836,-1.2836,-1.3486,-1.3875,-1.3875,-1.4539,-1.4931,-1.4931,-1.4931,-1.4931,-0.333,-0.3358,-0.338,-0.3424,-0.3448,-0.3471,-0.3512,-0.3522,-0.3534,-0.3578,-0.3362,-0.3138,-0.2806,-0.2469,-0.2244,-0.1907,-0.1795,-0.1795,-0.1795,-0.1802,-0.1819,-0.1849,-0.188,-0.191,-0.1941,-0.1944,-0.1953,-0.1975,-0.2003,-0.2018,-0.2018,-0.2055,-0.2217,-0.2504,-0.2515,-0.2665,-0.2959,-0.3365,-0.3499,-0.3632,-0.4038,-0.4172,-0.4308,-0.4308,-0.4308,-0.4308,-0.4308,-0.4308,-0.4308,-0.4308,-0.4308,-0.4308,-0.4308,-0.4308,-0.4301,-0.4258,-0.4214,-0.4176,-0.4176,-0.4176,-0.4176,-0.4176,-0.4176,-0.4176,-0.4176,-0.4176,-0.4172,-0.4155,-0.4151,-0.4146,-0.413,-0.4125,-0.413,-0.4146,-0.4151,-0.4155,-0.4172,-0.4176,-0.4176,-0.4176,-0.4211,-0.4241,-0.4241,-0.4278,-0.4308,-0.4308,-0.427,-0.4258,-0.4301,-0.4308,-0.4308,-0.4308,-0.4308,-0.4308,-0.4308,-0.4308,-0.551,-0.844,-0.8573,-0.9905,-1.2704,-1.2836,-1.2836,-1.2836,-1.3486,-1.3875,-1.3875,-1.4539,-1.4931,-1.4931,-1.4931,-1.4931,-0.3392,-0.345,-0.3492,-0.3493,-0.3538,-0.3582,-0.3583,-0.3585,-0.3585,-0.3587,-0.3587,-0.3363,-0.2806,-0.2693,-0.2469,-0.1907,-0.1795,-0.1795,-0.1795,-0.1821,-0.185,-0.1881,-0.1911,-0.1941,-0.1973,-0.1975,-0.1975,-0.1977,-0.2003,-0.2018,-0.2018,-0.2076,-0.2108,-0.2109,-0.2138,-0.2154,-0.2289,-0.2559,-0.2961,-0.3228,-0.3632,-0.4038,-0.4308,-0.4308,-0.4308,-0.4308,-0.4308,-0.4308,-0.4308,-0.4308,-0.4308,-0.4308,-0.4308,-0.4308,-0.4308,-0.4305,-0.4304,-0.4301,-0.4301,-0.4301,-0.4301,-0.4301,-0.4301,-0.4301,-0.4301,-0.4301,-0.4289,-0.423,-0.4214,-0.42,-0.414,-0.4125,-0.414,-0.42,-0.4214,-0.423,-0.4289,-0.4301,-0.4301,-0.4301,-0.4304,-0.4305,-0.4305,-0.4307,-0.4308,-0.4308,-0.4307,-0.4305,-0.4308,-0.4308,-0.4308,-0.4308,-0.4308,-0.4308,-0.4308,-0.4308,-0.551,-0.844,-0.8573,-0.9905,-1.2704,-1.2836,-1.2836,-1.2836,-1.3486,-1.3875,-1.3875,-1.4539,-1.4931,-1.4931,-1.4931,-1.4931,-0.3452,-0.3481,-0.3506,-0.3546,-0.3572,-0.3587,-0.3587,-0.3587,-0.3587,-0.3587,-0.3474,-0.3139,-0.2806,-0.2469,-0.2244,-0.1907,-0.1795,-0.1795,-0.1795,-0.1821,-0.1851,-0.1882,-0.1913,-0.1943,-0.1974,-0.1977,-0.1984,-0.2003,-0.2032,-0.2057,-0.2078,-0.2117,-0.2139,-0.2139,-0.2149,-0.2155,-0.2155,-0.2559,-0.2694,-0.2828,-0.3229,-0.3498,-0.3632,-0.3632,-0.3632,-0.3632,-0.3902,-0.3902,-0.4038,-0.4172,-0.4308,-0.4308,-0.4308,-0.4308,-0.4308,-0.4308,-0.4308,-0.4308,-0.4308,-0.4308,-0.4308,-0.4308,-0.4308,-0.4308,-0.4308,-0.4308,-0.4304,-0.4283,-0.4277,-0.4273,-0.4252,-0.4247,-0.4252,-0.4271,-0.4277,-0.4282,-0.4304,-0.4308,-0.4308,-0.4308,-0.4308,-0.4308,-0.4308,-0.4308,-0.4308,-0.4308,-0.4308,-0.4308,-0.4308,-0.4308,-0.4308,-0.4308,-0.4308,-0.4308,-0.4308,-0.4345,-0.518,-0.7073,-0.8219,-0.9627,-1.1543,-1.264,-1.3133,-1.3011,-1.3407,-1.3614,-1.3625,-1.4015,-1.4403,-1.4539,-1.4539,-1.467,-0.3514,-0.3529,-0.3538,-0.3578,-0.3587,-0.3587,-0.3587,-0.3587,-0.3587,-0.3587,-0.3362,-0.3026,-0.2693,-0.2469,-0.2132,-0.1795,-0.1795,-0.1799,-0.181,-0.1837,-0.1868,-0.1898,-0.1928,-0.1955,-0.1975,-0.1986,-0.1999,-0.2017,-0.2057,-0.2089,-0.2108,-0.2138,-0.2155,-0.2155,-0.2155,-0.2155,-0.2155,-0.2424,-0.2559,-0.2694,-0.3095,-0.3228,-0.3228,-0.3228,-0.3228,-0.3228,-0.3498,-0.3632,-0.3632,-0.4037,-0.4172,-0.4172,-0.4307,-0.4308,-0.4308,-0.4308,-0.4308,-0.4308,-0.4308,-0.4308,-0.4308,-0.4308,-0.4308,-0.4308,-0.4308,-0.4308,-0.4308,-0.4308,-0.4308,-0.4308,-0.4308,-0.4308,-0.4308,-0.4308,-0.4308,-0.4308,-0.4308,-0.4308,-0.4308,-0.4308,-0.4308,-0.4308,-0.4308,-0.4308,-0.4308,-0.4308,-0.4308,-0.4308,-0.4308,-0.4308,-0.4308,-0.4308,-0.4327,-0.4339,-0.4339,-0.4394,-0.4977,-0.6485,-0.8055,-0.9616,-1.1003,-1.2536,-1.3315,-1.3197,-1.3599,-1.3646,-1.3464,-1.3853,-1.4081,-1.4403,-1.4272,-1.4408,-0.3572,-0.3587,-0.3587,-0.3587,-0.3587,-0.3587,-0.3587,-0.3587,-0.3587,-0.3587,-0.3362,-0.3026,-0.2693,-0.2357,-0.2132,-0.1795,-0.1795,-0.1806,-0.1836,-0.1866,-0.1897,-0.1928,-0.1958,-0.1977,-0.1979,-0.2004,-0.2022,-0.2023,-0.2077,-0.211,-0.2111,-0.2139,-0.2155,-0.2155,-0.2155,-0.2155,-0.2155,-0.2155,-0.2424,-0.2694,-0.2961,-0.3095,-0.3095,-0.3095,-0.3095,-0.3095,-0.3229,-0.3229,-0.3228,-0.3632,-0.3768,-0.3768,-0.4172,-0.4307,-0.4307,-0.4307,-0.4308,-0.4308,-0.4308,-0.4308,-0.4308,-0.4308,-0.4308,-0.4308,-0.4308,-0.4308,-0.4308,-0.4308,-0.4308,-0.4308,-0.4308,-0.4308,-0.4308,-0.4308,-0.4308,-0.4308,-0.4308,-0.4308,-0.4308,-0.4308,-0.4308,-0.4308,-0.4308,-0.4308,-0.4308,-0.4308,-0.4308,-0.4308,-0.4308,-0.4308,-0.4309,-0.4312,-0.4364,-0.4399,-0.4402,-0.4454,-0.5045,-0.6434,-0.7965,-0.9498,-1.0889,-1.2559,-1.3392,-1.3384,-1.3659,-1.384,-1.3646,-1.3923,-1.4223,-1.4291,-1.4024,-1.4281,-0.3583,-0.3587,-0.3587,-0.3587,-0.3587,-0.3587,-0.3587,-0.3587,-0.3475,-0.325,-0.3027,-0.2692,-0.2357,-0.2132,-0.1907,-0.1795,-0.1795,-0.1806,-0.1836,-0.1866,-0.1897,-0.1928,-0.1958,-0.1985,-0.2006,-0.2035,-0.2062,-0.2084,-0.2101,-0.2119,-0.2142,-0.2151,-0.2155,-0.2155,-0.2155,-0.2155,-0.2155,-0.2155,-0.2289,-0.2289,-0.2423,-0.2423,-0.2423,-0.2423,-0.2423,-0.2423,-0.2693,-0.2828,-0.2828,-0.3229,-0.3363,-0.3363,-0.3498,-0.3498,-0.3498,-0.3768,-0.3902,-0.3902,-0.4172,-0.4308,-0.4308,-0.4308,-0.4308,-0.4308,-0.4308,-0.4308,-0.4308,-0.4308,-0.4308,-0.4308,-0.4308,-0.4308,-0.4308,-0.4308,-0.4308,-0.4308,-0.4308,-0.4308,-0.4308,-0.4308,-0.4308,-0.4308,-0.4308,-0.4308,-0.4308,-0.4308,-0.4308,-0.4308,-0.4308,-0.4308,-0.4324,-0.4371,-0.439,-0.4416,-0.4458,-0.4516,-0.4691,-0.5115,-0.6587,-0.8195,-0.9627,-1.119,-1.2563,-1.3575,-1.3575,-1.362,-1.3435,-1.3576,-1.3616,-1.3828,-1.3695,-1.3883,-0.3587,-0.3587,-0.3587,-0.3587,-0.3587,-0.3587,-0.3362,-0.3362,-0.325,-0.3027,-0.2692,-0.2469,-0.2244,-0.202,-0.1795,-0.1795,-0.1795,-0.181,-0.1854,-0.1875,-0.1902,-0.1946,-0.1966,-0.1988,-0.2016,-0.2046,-0.2076,-0.2107,-0.2121,-0.2136,-0.2154,-0.2155,-0.2155,-0.2155,-0.2155,-0.2155,-0.2155,-0.2155,-0.2155,-0.2155,-0.2155,-0.2155,-0.2155,-0.2155,-0.2155,-0.2155,-0.2424,-0.2425,-0.2559,-0.2827,-0.2961,-0.2961,-0.3095,-0.3228,-0.3228,-0.3632,-0.3768,-0.3902,-0.4172,-0.4308,-0.4308,-0.4308,-0.4308,-0.4308,-0.4308,-0.4308,-0.4308,-0.4308,-0.4308,-0.4308,-0.4308,-0.4308,-0.4308,-0.4308,-0.4308,-0.4308,-0.4308,-0.4308,-0.4308,-0.4308,-0.4308,-0.4308,-0.4308,-0.4308,-0.4308,-0.4308,-0.4308,-0.4318,-0.4343,-0.4348,-0.4361,-0.4395,-0.4444,-0.4488,-0.4519,-0.4578,-0.4613,-0.4613,-0.6087,-0.7412,-0.828,-1.0434,-1.1977,-1.2753,-1.3326,-1.3669,-1.349,-1.349,-1.3534,-1.376,-1.3625,-1.3658,-0.3587,-0.3587,-0.3475,-0.3475,-0.3475,-0.3363,-0.3138,-0.3026,-0.2914,-0.2693,-0.2357,-0.2244,-0.2132,-0.1908,-0.1795,-0.1795,-0.1798,-0.1821,-0.1878,-0.1889,-0.1913,-0.197,-0.1977,-0.1989,-0.2021,-0.2048,-0.2078,-0.2112,-0.214,-0.2155,-0.2155,-0.2155,-0.2155,-0.2155,-0.2155,-0.2155,-0.2155,-0.2155,-0.2155,-0.2155,-0.2155,-0.2155,-0.2155,-0.2155,-0.2155,-0.2155,-0.2155,-0.2155,-0.2289,-0.2559,-0.2694,-0.2693,-0.2961,-0.3094,-0.3094,-0.3499,-0.3633,-0.3768,-0.4172,-0.4307,-0.4308,-0.4308,-0.4308,-0.4308,-0.4308,-0.4308,-0.4308,-0.4308,-0.4308,-0.4308,-0.4308,-0.4308,-0.4308,-0.4308,-0.4308,-0.4308,-0.4308,-0.4308,-0.4308,-0.4308,-0.4308,-0.4308,-0.4308,-0.4308,-0.4308,-0.4308,-0.4315,-0.4339,-0.4391,-0.4398,-0.4405,-0.442,-0.4512,-0.4576,-0.4585,-0.4634,-0.4665,-0.4665,-0.5967,-0.6835,-0.6978,-0.9571,-1.1152,-1.1586,-1.2888,-1.3539,-1.3677,-1.3677,-1.3727,-1.3821,-1.3546,-1.3721,-0.325,-0.3138,-0.3138,-0.2917,-0.2806,-0.2806,-0.2806,-0.2805,-0.2693,-0.2356,-0.2244,-0.2132,-0.1907,-0.1795,-0.1795,-0.1795,-0.1816,-0.1845,-0.1881,-0.1907,-0.1937,-0.1973,-0.1977,-0.1997,-0.2051,-0.2061,-0.2087,-0.2142,-0.2151,-0.2155,-0.2155,-0.2155,-0.2155,-0.2155,-0.2155,-0.2155,-0.2155,-0.2155,-0.2155,-0.2155,-0.2155,-0.2155,-0.2155,-0.2155,-0.2155,-0.2155,-0.2155,-0.2155,-0.2155,-0.2289,-0.2289,-0.2289,-0.2289,-0.2423,-0.2423,-0.2828,-0.3096,-0.3363,-0.3768,-0.4038,-0.4308,-0.4308,-0.4308,-0.4308,-0.4308,-0.4308,-0.4308,-0.4308,-0.4308,-0.4308,-0.4308,-0.4308,-0.4308,-0.4308,-0.4308,-0.4308,-0.4308,-0.4308,-0.4308,-0.4308,-0.4308,-0.4308,-0.4308,-0.4308,-0.4308,-0.4308,-0.435,-0.4387,-0.4397,-0.4398,-0.4436,-0.4533,-0.4561,-0.4594,-0.4645,-0.4658,-0.4665,-0.4665,-0.4955,-0.5678,-0.698,-0.7555,-0.8997,-1.1586,-1.1876,-1.2584,-1.3855,-1.3855,-1.3766,-1.3595,-1.3595,-1.3502,-0.2915,-0.2915,-0.2917,-0.2693,-0.2693,-0.2693,-0.2469,-0.2469,-0.2356,-0.202,-0.202,-0.1908,-0.1795,-0.1795,-0.18,-0.1816,-0.1831,-0.1856,-0.1903,-0.1922,-0.1942,-0.1973,-0.199,-0.2016,-0.206,-0.2078,-0.2106,-0.2151,-0.2155,-0.2155,-0.2155,-0.2155,-0.2155,-0.2155,-0.2155,-0.2155,-0.2155,-0.2155,-0.2155,-0.2155,-0.2155,-0.2155,-0.2155,-0.2155,-0.2155,-0.2155,-0.2155,-0.2155,-0.2155,-0.2155,-0.2155,-0.2155,-0.2155,-0.2155,-0.2289,-0.2559,-0.2828,-0.2961,-0.3363,-0.3632,-0.3768,-0.3768,-0.4038,-0.4308,-0.4308,-0.4308,-0.4308,-0.4308,-0.4308,-0.4308,-0.4308,-0.4308,-0.4308,-0.4308,-0.4308,-0.4308,-0.4308,-0.4308,-0.4308,-0.4308,-0.4308,-0.4308,-0.4308,-0.4308,-0.4308,-0.4308,-0.436,-0.4409,-0.4439,-0.447,-0.4511,-0.4567,-0.4602,-0.4632,-0.4661,-0.4665,-0.4665,-0.4665,-0.4665,-0.51,-0.5823,-0.6545,-0.8133,-1.0293,-1.1155,-1.2309,-1.39,-1.39,-1.3859,-1.3778,-1.3778,-1.3685,-0.2581,-0.2581,-0.2581,-0.2469,-0.2469,-0.2469,-0.2132,-0.2132,-0.202,-0.1795,-0.1795,-0.1795,-0.1795,-0.18,-0.1812,-0.1836,-0.1851,-0.1877,-0.1924,-0.1937,-0.1949,-0.1974,-0.2001,-0.2031,-0.2061,-0.2091,-0.2122,-0.2152,-0.2155,-0.2155,-0.2155,-0.2155,-0.2155,-0.2155,-0.2155,-0.2155,-0.2155,-0.2155,-0.2155,-0.2155,-0.2155,-0.2155,-0.2155,-0.2155,-0.2155,-0.2155,-0.2155,-0.2155,-0.2155,-0.2155,-0.2155,-0.2155,-0.2155,-0.2155,-0.2289,-0.2559,-0.2694,-0.2694,-0.2961,-0.3095,-0.3228,-0.3228,-0.3632,-0.4038,-0.4038,-0.4038,-0.4038,-0.4038,-0.4038,-0.4038,-0.4172,-0.4172,-0.4172,-0.4308,-0.4308,-0.4308,-0.4308,-0.4308,-0.4308,-0.4308,-0.4308,-0.4308,-0.4308,-0.4308,-0.4312,-0.4324,-0.4377,-0.4437,-0.4495,-0.4555,-0.4593,-0.4593,-0.4635,-0.4665,-0.4665,-0.4665,-0.4665,-0.4665,-0.4665,-0.4665,-0.4665,-0.5823,-0.7268,-0.8714,-1.0293,-1.1876,-1.3464,-1.3757,-1.39,-1.39,-1.39,-1.3827,-0.2356,-0.2244,-0.2132,-0.1908,-0.1907,-0.1907,-0.1795,-0.1795,-0.1795,-0.1795,-0.1795,-0.1795,-0.1795,-0.1818,-0.1837,-0.184,-0.1887,-0.1925,-0.193,-0.1955,-0.1973,-0.1976,-0.2001,-0.2031,-0.2061,-0.2091,-0.2122,-0.2152,-0.2155,-0.2155,-0.2155,-0.2155,-0.2155,-0.2155,-0.2155,-0.2155,-0.2155,-0.2155,-0.2155,-0.2155,-0.2155,-0.2155,-0.2155,-0.2155,-0.2155,-0.2155,-0.2155,-0.2155,-0.2155,-0.2155,-0.2155,-0.2155,-0.2155,-0.2155,-0.2155,-0.2289,-0.2425,-0.2694,-0.2694,-0.2961,-0.3228,-0.3228,-0.3228,-0.3362,-0.3362,-0.3362,-0.3362,-0.3362,-0.3362,-0.3363,-0.3768,-0.3902,-0.3902,-0.4172,-0.4308,-0.4308,-0.4308,-0.4308,-0.4308,-0.4308,-0.4308,-0.4308,-0.4308,-0.4308,-0.4326,-0.4382,-0.4439,-0.4496,-0.4557,-0.4619,-0.4655,-0.4655,-0.4661,-0.4665,-0.4665,-0.4665,-0.4665,-0.4665,-0.4665,-0.4665,-0.4665,-0.4809,-0.5678,-0.7123,-0.8711,-1.0293,-1.1872,-1.3178,-1.39,-1.39,-1.39,-1.3892,-0.202,-0.1908,-0.1908,-0.1795,-0.1795,-0.1795,-0.1795,-0.1795,-0.1795,-0.1795,-0.1795,-0.18,-0.1819,-0.1832,-0.1852,-0.1889,-0.1915,-0.1937,-0.1956,-0.1969,-0.1977,-0.1977,-0.2018,-0.205,-0.2063,-0.2108,-0.2142,-0.2154,-0.2155,-0.2155,-0.2155,-0.2155,-0.2155,-0.2155,-0.2155,-0.2155,-0.2155,-0.2155,-0.2155,-0.2155,-0.2155,-0.2155,-0.2155,-0.2155,-0.2155,-0.2155,-0.2155,-0.2155,-0.2155,-0.2155,-0.2155,-0.2155,-0.2155,-0.2155,-0.2155,-0.2155,-0.2289,-0.2424,-0.2424,-0.2424,-0.2558,-0.2558,-0.2558,-0.2691,-0.3094,-0.3228,-0.3228,-0.3228,-0.3228,-0.3228,-0.3363,-0.3632,-0.3902,-0.4172,-0.4308,-0.4308,-0.4308,-0.4308,-0.4308,-0.4308,-0.4308,-0.4308,-0.4308,-0.4338,-0.4371,-0.4395,-0.4477,-0.4546,-0.4571,-0.4627,-0.4665,-0.4665,-0.4665,-0.4665,-0.4665,-0.4665,-0.4665,-0.4665,-0.4665,-0.4665,-0.4665,-0.4665,-0.5389,-0.6978,-0.8567,-1.0009,-1.1586,-1.3178,-1.39,-1.39,-1.39,-1.39,-0.1795,-0.1795,-0.1795,-0.1795,-0.1795,-0.1795,-0.1795,-0.1795,-0.1795,-0.1795,-0.1802,-0.1814,-0.1836,-0.1855,-0.1881,-0.1924,-0.1696,-0.1708,-0.1727,-0.1729,-0.1732,-0.174,-0.1906,-0.2067,-0.2076,-0.2124,-0.2155,-0.2155,-0.2155,-0.2155,-0.2155,-0.2155,-0.2155,-0.2155,-0.2155,-0.2155,-0.2155,-0.2155,-0.2155,-0.2155,-0.2155,-0.2155,-0.2155,-0.2155,-0.2155,-0.2155,-0.2155,-0.2155,-0.2155,-0.2155,-0.2155,-0.2155,-0.2155,-0.2155,-0.2155,-0.2155,-0.2155,-0.2155,-0.2155,-0.2155,-0.2155,-0.2155,-0.2155,-0.2289,-0.2826,-0.296,-0.296,-0.296,-0.296,-0.3095,-0.3095,-0.3363,-0.3768,-0.4038,-0.4172,-0.4172,-0.4308,-0.4308,-0.4308,-0.4308,-0.4308,-0.4313,-0.4196,-0.4233,-0.4271,-0.4307,-0.4238,-0.4295,-0.4598,-0.4493,-0.4373,-0.4518,-0.4374,-0.4374,-0.4664,-0.4665,-0.4665,-0.4665,-0.4665,-0.4665,-0.4665,-0.4665,-0.5244,-0.6257,-0.7847,-0.9144,-1.029,-1.2309,-1.3178,-1.3178,-1.3757,-1.39,-0.1795,-0.1795,-0.1795,-0.1795,-0.1795,-0.1795,-0.1795,-0.1795,-0.1795,-0.1795,-0.1819,-0.184,-0.184,-0.1889,-0.193,-0.1931,-0.1345,-0.0988,-0.0988,-0.0988,-0.0994,-0.1009,-0.1534,-0.2076,-0.2106,-0.2136,-0.2155,-0.2155,-0.2155,-0.2155,-0.2155,-0.2155,-0.2155,-0.2155,-0.2155,-0.2155,-0.2155,-0.2155,-0.2155,-0.2155,-0.2155,-0.2155,-0.2155,-0.2155,-0.2155,-0.2155,-0.2155,-0.2155,-0.2155,-0.2155,-0.2155,-0.2155,-0.2155,-0.2155,-0.2155,-0.2155,-0.2155,-0.2155,-0.2155,-0.2155,-0.2155,-0.2155,-0.2155,-0.2155,-0.2155,-0.2155,-0.2155,-0.2155,-0.2425,-0.2694,-0.2694,-0.2961,-0.3362,-0.3768,-0.3768,-0.3902,-0.4172,-0.4308,-0.4308,-0.4308,-0.4308,-0.4191,-0.3837,-0.3847,-0.3883,-0.3988,-0.3718,-0.3736,-0.4655,-0.3937,-0.3646,-0.408,-0.3791,-0.3791,-0.4665,-0.4665,-0.4665,-0.4665,-0.4665,-0.4665,-0.4665,-0.4665,-0.4665,-0.4665,-0.6257,-0.698,-0.7123,-1.0146,-1.1586,-1.1729,-1.3174,-1.39,-0.1795,-0.1795,-0.1795,-0.1795,-0.1795,-0.1795,-0.1795,-0.1795,-0.1801,-0.1822,-0.1834,-0.1621,-0.1302,-0.1199,-0.1332,-0.1836,-0.1847,-0.1359,-0.0494,-0.037,-0.0372,-0.0378,-0.0903,-0.158,-0.2137,-0.2149,-0.2155,-0.2155,-0.2155,-0.2155,-0.2155,-0.2155,-0.2155,-0.2155,-0.2155,-0.2155,-0.2155,-0.2155,-0.2155,-0.2155,-0.2155,-0.2155,-0.2155,-0.2155,-0.2155,-0.2155,-0.2155,-0.2155,-0.2155,-0.2155,-0.2155,-0.2155,-0.2155,-0.2155,-0.2155,-0.2155,-0.2155,-0.2155,-0.2155,-0.2155,-0.2155,-0.2155,-0.2155,-0.2155,-0.2155,-0.2155,-0.2155,-0.2155,-0.2289,-0.2424,-0.2694,-0.2828,-0.2962,-0.3363,-0.3363,-0.3498,-0.3902,-0.3902,-0.4038,-0.4307,-0.4069,-0.3964,-0.3844,-0.3627,-0.3541,-0.3572,-0.346,-0.363,-0.379,-0.3647,-0.35,-0.3646,-0.3647,-0.3646,-0.4226,-0.4226,-0.4371,-0.4664,-0.4665,-0.4665,-0.4665,-0.4665,-0.4665,-0.4665,-0.6257,-0.698,-0.698,-0.8997,-1.0581,-1.1586,-1.3174,-1.39,-0.1795,-0.1795,-0.1795,-0.1795,-0.1795,-0.1798,-0.181,-0.1812,-0.1821,-0.1851,-0.175,-0.165,-0.1323,-0.0849,-0.0733,-0.111,-0.1235,-0.0988,-0.0123,0.0,0.0,0.0,-0.0393,-0.08,-0.1345,-0.1616,-0.175,-0.175,-0.202,-0.2155,-0.2155,-0.2155,-0.2155,-0.2155,-0.2155,-0.2155,-0.2155,-0.2155,-0.2155,-0.2155,-0.2155,-0.2155,-0.2155,-0.2155,-0.2155,-0.2155,-0.2155,-0.2155,0.0,-0.2155,-0.2155,-0.2155,-0.2155,-0.2155,-0.2155,-0.2155,-0.2155,-0.2155,-0.2155,-0.2155,-0.2155,-0.2155,-0.2155,-0.2155,-0.2155,-0.2155,-0.2155,-0.2155,-0.2155,-0.2289,-0.2425,-0.2559,-0.2558,-0.2961,-0.2961,-0.3095,-0.3498,-0.3632,-0.3639,-0.3929,-0.3687,-0.3583,-0.3482,-0.3253,-0.3151,-0.3167,-0.3047,-0.3209,-0.3501,-0.3209,-0.3063,-0.3209,-0.3209,-0.3208,-0.3644,-0.3934,-0.4226,-0.4518,-0.4664,-0.4665,-0.4665,-0.4665,-0.4665,-0.4665,-0.5678,-0.6112,-0.6112,-0.7702,-0.9574,-1.1586,-1.2595,-1.3321,0.0,-0.1795,-0.1795,-0.1795,-0.1797,-0.1806,-0.172,-0.1727,0.0,-0.1765,-0.1792,-0.1811,-0.1692,-0.0734,0.0,0.0,0.0,0.0,0.0,0.0,0.0,0.0,0.0,0.0,0.0,-0.0673,-0.1077,-0.1077,-0.1616,-0.202,-0.2155,-0.2155,-0.2155,-0.2155,-0.2155,-0.2155,-0.2155,-0.2155,-0.2155,-0.2155,-0.2155,-0.2155,-0.2155,-0.2155,-0.2155,-0.2155,-0.2155,-0.2155,-0.2155,-0.2155,-0.2155,-0.2155,-0.2155,-0.2155,-0.2155,-0.2155,-0.2155,-0.2155,-0.2155,-0.2155,-0.2155,-0.2155,-0.2155,-0.2155,-0.2155,-0.2155,-0.2155,-0.2155,-0.2155,-0.2155,-0.2155,-0.2155,-0.2289,-0.2559,-0.2694,-0.2693,-0.3095,-0.3097,-0.3246,-0.3288,-0.3302,-0.3194,-0.2847,-0.2719,-0.2732,-0.2911,-0.2479,-0.2625,-0.3354,-0.277,-0.2478,-0.277,-0.2479,-0.2478,-0.277,-0.3644,-0.408,-0.4079,-0.4518,-0.4665,-0.4665,-0.4665,-0.4665,-0.4665,-0.4665,-0.4665,-0.4665,-0.6257,-0.8564,-1.1442,-1.1586,-1.2452,-0.1121,0.0,-0.1795,-0.1795,-0.1812,-0.1717,0.0,-0.1161,-0.1294,-0.1675,-0.1806,-0.1575,-0.0613,-0.0246,0.0,0.0,0.0,0.0,0.0,0.0,0.0,0.0,0.0,0.0,0.0,-0.0135,-0.0269,-0.0269,-0.0404,-0.0808,-0.1616,-0.202,-0.2155,-0.2155,-0.2155,-0.2155,-0.2155,-0.2155,-0.2155,-0.2155,-0.2155,-0.2155,-0.2155,-0.2155,-0.2155,-0.2155,-0.2155,-0.2155,-0.2155,-0.2155,-0.2155,-0.2155,-0.2155,-0.2155,-0.2155,-0.2155,-0.2155,-0.2155,-0.2155,-0.2155,-0.2155,-0.2155,-0.2155,-0.2155,-0.2155,-0.2155,-0.2155,-0.2155,-0.2155,-0.2155,-0.2155,-0.2155,-0.2155,-0.2289,-0.2289,-0.2424,-0.2693,-0.2852,-0.2876,-0.3294,-0.3074,-0.2839,-0.2857,-0.2595,-0.247,-0.2478,-0.2333,-0.2333,-0.2625,-0.2478,-0.2333,-0.2478,-0.2333,-0.2333,-0.2478,-0.3209,-0.379,-0.4079,-0.4518,-0.4665,-0.4665,-0.4665,-0.4665,-0.4665,-0.4665,-0.4665,-0.4665,-0.6257,-0.7989,-0.9865,-1.1012,-1.2452,0.112,-0.0112,-0.1346,-0.1346,-0.1591,-0.1729,-0.1393,-0.0942,-0.0598,-0.0851,-0.0976,-0.0,0.3082,0.1605,0.0,0.0,0.0,0.0,0.0,0.0,0.0,0.0,0.0,0.0,0.0,0.0,0.0,0.0,0.0,-0.0269,-0.0673,-0.1616,-0.2155,-0.2155,-0.2155,-0.2155,-0.2155,-0.2155,-0.2155,-0.2155,-0.2155,-0.2155,-0.2155,-0.2155,-0.2155,-0.2155,-0.2155,-0.2155,-0.2155,-0.2155,-0.2155,-0.2155,-0.2155,-0.2155,-0.2155,-0.2155,-0.2155,-0.2155,-0.2155,-0.2155,-0.2155,-0.2155,-0.2155,-0.2155,-0.2155,-0.2155,-0.2155,-0.2155,-0.2155,-0.2155,-0.2155,-0.2155,-0.2155,-0.2155,-0.2155,-0.2294,-0.2445,-0.2462,-0.2484,-0.2794,-0.2692,-0.2579,-0.2594,-0.2467,-0.2333,-0.2333,-0.2333,-0.2333,-0.2333,-0.2333,-0.2333,-0.2333,-0.2333,-0.2333,-0.2333,-0.2916,-0.3353,-0.3498,-0.4081,-0.4373,-0.4373,-0.4664,-0.4665,-0.4665,-0.4665,-0.4665,-0.4665,-0.5533,-0.669,-0.8278,-0.9141,-1.0725,0.4142,0.2355,0.0337,-0.0112,-0.057,-0.0927,-0.0942,-0.012,0.0607,0.0615,0.0617,0.2098,0.6938,0.4211,0.0995,0.0126,0.0,0.0,0.0,0.0,0.0,0.0,0.0,0.0,0.0,0.0,0.0,0.0,0.0,0.0,0.0,-0.1212,-0.202,-0.2155,-0.2155,-0.2155,-0.2155,-0.2155,-0.2155,-0.2155,-0.2155,-0.2155,-0.2155,-0.2155,-0.2155,-0.2155,-0.2155,-0.2155,-0.2155,-0.2155,-0.2155,-0.2155,-0.2155,-0.2155,-0.2155,-0.2155,-0.2155,-0.2155,-0.2155,-0.2155,-0.2155,-0.2155,-0.2155,-0.2155,-0.2155,-0.2155,-0.2155,-0.2155,-0.2155,-0.2155,-0.2155,-0.2155,-0.2155,-0.2155,-0.2158,-0.2169,-0.2194,-0.2207,-0.2229,-0.2281,-0.2294,-0.2305,-0.2328,-0.2333,-0.2333,-0.2333,-0.2333,-0.2333,-0.2333,-0.2333,-0.2333,-0.2333,-0.2333,-0.2333,-0.2333,-0.2625,-0.277,-0.277,-0.3498,-0.408,-0.4079,-0.4373,-0.4664,-0.4665,-0.4665,-0.4665,-0.4665,-0.4665,-0.5533,-0.698,-0.698,-0.8564,0.6626,0.6468,0.573,0.3659,0.3125,0.3057,0.2984,0.3152,0.3313,0.3322,0.3323,0.419,0.7311,0.7259,0.5168,0.0757,0.0,0.0,0.0,0.0,0.0,0.0,0.0,0.0,0.0,0.0,0.0,0.0,0.0,0.0,0.0,-0.0269,-0.0942,-0.2155,-0.2155,-0.2155,-0.2155,-0.2155,-0.2155,-0.2155,-0.2155,-0.2155,-0.2155,-0.2155,-0.2155,-0.2155,-0.2155,-0.2155,-0.2155,-0.2155,-0.2155,-0.2155,-0.2155,-0.2155,-0.2155,-0.2155,-0.2155,-0.2155,-0.2155,-0.2155,-0.2155,-0.2155,-0.2155,-0.2155,-0.2155,-0.2155,-0.2155,-0.2155,-0.2155,-0.2155,-0.2155,-0.2155,-0.2155,-0.2155,-0.2174,-0.2194,-0.2199,-0.2241,-0.2279,-0.2289,-0.231,-0.2328,-0.2332,-0.2333,-0.2333,-0.2333,-0.2333,-0.2333,-0.2333,-0.2333,-0.2333,-0.2333,-0.2333,-0.2333,-0.2333,-0.2333,-0.2333,-0.2333,-0.3208,-0.379,-0.4079,-0.4226,-0.4371,-0.4664,-0.4665,-0.4665,-0.4665,-0.4665,-0.5533,-0.698,-0.698,-0.7989,0.7173,0.7263,0.7138,0.6145,0.6005,0.6094,0.6015,0.6096,0.6041,0.6041,0.6041,0.6416,0.7672,0.7851,0.6158,0.0892,0.0,0.0,0.0,0.0,0.0,0.0,0.0,0.0,0.0,0.0,0.0,0.0,0.0,0.0,0.0,0.0,-0.0269,-0.0942,-0.175,-0.2155,-0.2155,-0.2155,-0.2155,-0.2155,-0.2155,-0.2155,-0.2155,-0.2155,-0.2155,-0.2155,-0.2155,-0.2155,-0.2155,-0.2155,-0.2155,-0.2155,-0.2155,-0.2155,-0.2155,-0.2155,-0.2155,-0.2155,-0.2155,-0.2155,-0.2155,-0.2155,-0.2155,-0.2155,-0.2155,-0.2155,-0.2158,-0.2174,-0.2167,-0.2155,-0.2155,-0.2167,-0.2179,-0.2179,-0.2202,-0.2229,-0.2245,-0.2271,-0.2295,-0.231,-0.2324,-0.2333,-0.2333,-0.2333,-0.2333,-0.2333,-0.2333,-0.2333,-0.2333,-0.2333,-0.2333,-0.2333,-0.2333,-0.2333,-0.2333,-0.2333,-0.2333,-0.2625,-0.2917,-0.3354,-0.3791,-0.3935,-0.4226,-0.4371,-0.4518,-0.4665,-0.4665,-0.4665,-0.5098,-0.5823,-0.5823,-0.6545,0.7154,0.7266,0.7399,0.7494,0.7622,0.7853,0.7878,0.7958,0.7902,0.7902,0.7902,0.7905,0.7907,0.6839,0.4918,0.1556,0.0398,0.0,0.0,0.0,0.0,0.0,0.0,0.0,0.0,0.0,0.0,0.0,0.0,0.0,0.0,0.0,0.0,0.0,-0.1212,-0.202,-0.2155,-0.2155,-0.2155,-0.2155,-0.2155,-0.2155,-0.2155,-0.2162,-0.2165,-0.2166,-0.2173,-0.2176,-0.2176,-0.2176,-0.2176,-0.2176,-0.2176,-0.2176,-0.2175,-0.2168,-0.2165,-0.2164,-0.2157,-0.2159,-0.2165,-0.2165,-0.217,-0.2176,-0.2176,-0.2176,-0.2181,-0.2204,-0.2193,-0.2176,-0.2176,-0.2193,-0.2211,-0.2211,-0.2234,-0.2262,-0.2286,-0.2296,-0.2307,-0.2328,-0.2333,-0.2333,-0.2333,-0.2333,-0.2333,-0.2333,-0.2333,-0.2333,-0.2333,-0.2333,-0.2333,-0.2333,-0.2333,-0.2333,-0.2333,-0.2333,-0.2478,-0.277,-0.277,-0.2916,-0.3354,-0.3645,-0.3935,-0.4079,-0.4371,-0.4664,-0.4665,-0.4665,-0.4665,-0.4665,-0.4665,-0.5389,0.7154,0.7326,0.7508,0.7516,0.7611,0.7731,0.7837,0.7869,0.7875,0.7875,0.7875,0.788,0.7896,0.3904,0.1295,0.3597,0.1745,0.0,0.0,0.0,0.0,0.0,0.0,0.0,0.0,0.0,0.0,0.0,0.0,0.0,0.0,0.0,0.0,0.0,-0.0808,-0.1481,-0.2155,-0.2155,-0.2155,-0.2155,-0.2155,-0.2155,-0.2156,-0.2184,-0.2197,-0.2198,-0.2226,-0.2238,-0.2238,-0.2238,-0.2238,-0.2238,-0.2238,-0.2238,-0.2235,-0.2207,-0.2197,-0.2193,-0.2164,-0.2173,-0.2197,-0.2197,-0.2216,-0.2238,-0.2238,-0.2238,-0.2239,-0.2241,-0.2241,-0.2238,-0.2238,-0.2241,-0.2242,-0.2242,-0.2265,-0.2288,-0.229,-0.2311,-0.233,-0.2333,-0.2333,-0.2333,-0.2333,-0.2333,-0.2333,-0.2333,-0.2333,-0.2333,-0.2333,-0.2333,-0.2333,-0.2333,-0.2333,-0.2333,-0.2333,-0.2333,-0.2333,-0.2333,-0.2333,-0.2479,-0.2916,-0.2917,-0.3352,-0.4079,-0.408,-0.4371,-0.4665,-0.4665,-0.4665,-0.4665,-0.4665,-0.4809,0.7269,0.7445,0.7633,0.7633,0.772,0.7818,0.0,0.7872,0.7872,0.7872,0.7872,0.7896,0.7986,0.6613,0.5057,0.4357,0.4944,0.4033,0.0538,0.1477,0.2016,0.0269,0.0,0.0,0.0,0.0,0.0,0.0,0.0,0.0,0.0,0.0,0.0,0.0,-0.0269,-0.0942,-0.2155,-0.2155,-0.2164,-0.2183,-0.2183,-0.2183,-0.2184,-0.2215,-0.2228,-0.2229,-0.2241,-0.2245,-0.2245,-0.2245,-0.2245,-0.2245,-0.2245,-0.2245,-0.2244,-0.2232,-0.2228,-0.2226,-0.2215,-0.2219,-0.2228,-0.2228,-0.2236,-0.2245,-0.2245,-0.2245,-0.2249,-0.2268,-0.2274,-0.2269,-0.225,-0.226,-0.2274,-0.2274,-0.2296,-0.2317,-0.2317,-0.2325,-0.2333,-0.2333,-0.2333,-0.2333,-0.2333,-0.2333,-0.2333,-0.2333,-0.2333,-0.2333,-0.2333,-0.2333,-0.2333,-0.2333,-0.2333,-0.2333,-0.2333,-0.2333,-0.2333,-0.2333,-0.2333,-0.2333,-0.2479,-0.277,-0.3062,-0.3352,-0.3645,-0.3791,-0.3937,-0.4227,-0.4371,-0.4371,-0.4518,-0.4665,0.7383,0.7543,0.7701,0.7701,0.7785,0.7872,0.7872,0.7872,0.7872,0.7872,0.7872,0.7921,0.8089,0.8331,0.7922,0.5933,0.7351,0.7268,0.3223,0.3623,0.3894,0.2824,0.1075,0.0,0.0,0.0,0.0,0.0,0.0,0.0,0.0,0.0,0.0,0.0,0.0,-0.054,-0.1491,-0.2033,-0.2185,-0.2215,-0.2224,-0.2223,-0.2215,-0.2246,-0.226,-0.226,-0.2269,-0.2273,-0.2273,-0.2273,-0.2273,-0.2273,-0.2273,-0.2273,-0.2272,-0.2263,-0.226,-0.2258,-0.2249,-0.2251,-0.226,-0.226,-0.2266,-0.2273,-0.2273,-0.2273,-0.2277,-0.2298,-0.2304,-0.2299,-0.2278,-0.2288,-0.2304,-0.2304,-0.2319,-0.2333,-0.2333,-0.2333,-0.2333,-0.2333,-0.2333,-0.2333,-0.2333,-0.2333,-0.2333,-0.2333,-0.2333,-0.2333,-0.2333,-0.2333,-0.2333,-0.2333,-0.2333,-0.2333,-0.2333,-0.2333,-0.2333,-0.2333,-0.2333,-0.2333,-0.2333,-0.2625,-0.277,-0.2916,-0.3209,-0.3355,-0.3501,-0.379,-0.3935,-0.3935,-0.4227,-0.4374,0.7489,0.7611,0.7703,0.7703,0.7788,0.7872,0.7872,0.7872,0.7872,0.7872,0.7872,0.7945,0.819,0.8372,0.8455,0.8552,0.8611,0.8625,0.8617,0.6178,0.5372,0.822,0.3493,0.0,0.0,0.0,0.0,0.0,0.0,0.0,0.0,0.0,0.0,0.0,0.0,0.0,0.0,-0.1512,-0.2216,-0.2246,-0.2277,-0.2275,-0.2247,-0.2277,-0.2291,-0.2293,-0.232,-0.2333,-0.2333,-0.2333,-0.2333,-0.2333,-0.2333,-0.2333,-0.2329,-0.2302,-0.2291,-0.2287,-0.2257,-0.2266,-0.2291,-0.2291,-0.231,-0.2333,-0.2333,-0.2333,-0.2333,-0.2333,-0.2333,-0.2333,-0.2333,-0.2333,-0.2333,-0.2333,-0.2333,-0.2333,-0.2333,-0.2333,-0.2333,-0.2333,-0.2333,-0.2333,-0.2333,-0.2333,-0.2333,-0.2333,-0.2333,-0.2333,-0.2333,-0.2333,-0.2333,-0.2333,-0.2333,-0.2333,-0.2333,-0.2333,-0.2333,-0.2333,-0.2333,-0.2333,-0.2333,-0.2333,-0.2479,-0.2916,-0.2916,-0.3063,-0.3501,-0.3501,-0.3501,-0.3501,-0.3501,-0.3501,0.7638,0.7733,0.782,0.782,0.7845,0.7872,0.7872,0.7872,0.7872,0.7872,0.7872,0.7945,0.819,0.8239,0.8315,0.8549,0.8595,0.8603,0.8614,0.7925,0.7655,0.8491,0.713,0.4431,0.0403,0.0,0.0,0.0,0.0,0.0,0.0,0.0,0.0,0.0,0.0,0.0,0.0,-0.1527,-0.1966,-0.1423,-0.2001,-0.2286,-0.2278,-0.2307,-0.232,-0.2321,-0.2329,-0.2333,-0.2333,-0.2333,-0.2333,-0.2333,-0.2333,-0.2333,-0.2332,-0.2323,-0.232,-0.2319,-0.231,-0.2313,-0.232,-0.232,-0.2326,-0.2333,-0.2333,-0.2333,-0.2333,-0.2333,-0.2333,-0.2333,-0.2333,-0.2333,-0.2333,-0.2333,-0.2333,-0.2333,-0.2333,-0.2333,-0.2333,-0.2333,-0.2333,-0.2333,-0.2333,-0.2333,-0.2333,-0.2333,-0.2333,-0.2333,-0.2333,-0.2333,-0.2333,-0.2333,-0.2333,-0.2333,-0.2333,-0.2333,-0.2333,-0.2333,-0.2333,-0.2333,-0.2333,-0.2333,-0.2333,-0.2479,-0.2479,-0.2479,-0.2625,-0.2916,-0.3063,-0.3063,-0.3355,-0.3501,0.7758,0.7818,0.7872,0.7872,0.7872,0.7872,0.7872,0.7872,0.7872,0.7872,0.7872,0.7945,0.819,0.8236,0.8312,0.8549,0.8587,0.8592,0.8603,0.8595,0.8592,0.8611,0.8614,0.7261,0.3759,0.1343,0.0,0.0,0.0,0.0,0.0,0.0,0.0,0.0,0.0,0.0,0.0,-0.0845,-0.1281,-0.1154,-0.1876,-0.2308,-0.2308,-0.2325,-0.2333,-0.2333,-0.2333,-0.2333,-0.2333,-0.2333,-0.2333,-0.2333,-0.2333,-0.2333,-0.2333,-0.2333,-0.2333,-0.2333,-0.2333,-0.2333,-0.2333,-0.2333,-0.2333,-0.2333,-0.2333,-0.2333,-0.2333,-0.2333,-0.2333,-0.2333,-0.2333,-0.2333,-0.2333,-0.2333,-0.2333,-0.2333,-0.2333,-0.2333,-0.2333,-0.2333,-0.2333,-0.2333,-0.2333,-0.2333,-0.2333,-0.2333,-0.2333,-0.2333,-0.2333,-0.2333,-0.2333,-0.2333,-0.2333,-0.2333,-0.2333,-0.2333,-0.2333,-0.2333,-0.2333,-0.2333,-0.2333,-0.2333,-0.2333,-0.2333,-0.2333,-0.2333,-0.2333,-0.2479,-0.2625,-0.2625,-0.2916,-0.3063,0.7842,0.7872,0.7872,0.7872,0.7872,0.7872,0.7872,0.7872,0.7872,0.7872,0.7872,0.7945,0.819,0.8236,0.8312,0.8549,0.8587,0.8587,0.8587,0.8587,0.8587,0.8587,0.8603,0.8614,0.8614,0.3894,0.0537,0.0,0.0,0.0,0.0,0.0,0.0,0.0,0.0,0.0,0.0,0.0,-0.0288,-0.1022,-0.1898,-0.2335,-0.2333,-0.2333,-0.2333,-0.2333,-0.2333,-0.2333,-0.2333,-0.2333,-0.2333,-0.2333,-0.2333,-0.2333,-0.2333,-0.2333,-0.2333,-0.2333,-0.2333,-0.2333,-0.2333,-0.2333,-0.2333,-0.2333,-0.2333,-0.2333,-0.2333,-0.2333,-0.2333,-0.2333,-0.2333,-0.2333,-0.2333,-0.2333,-0.2333,-0.2333,-0.2333,-0.2333,-0.2333,-0.2333,-0.2333,-0.2333,-0.2333,-0.2333,-0.2333,-0.2333,-0.2333,-0.2333,-0.2333,-0.2333,-0.2333,-0.2333,-0.2333,-0.2333,-0.2333,-0.2333,-0.2333,-0.2333,-0.2333,-0.2333,-0.2333,-0.2333,-0.2333,-0.2333,-0.2333,-0.2333,-0.2333,-0.2333,-0.2333,-0.2333,-0.2333,-0.2333,0.7864,0.7872,0.7872,0.7872,0.7872,0.7872,0.7872,0.7872,0.7872,0.7872,0.7872,0.7945,0.819,0.8236,0.8312,0.8549,0.8587,0.8587,0.8587,0.8587,0.8587,0.8587,0.8592,0.8598,0.8614,0.7531,0.4835,0.0403,0.0,0.0,0.0,0.0,0.0,0.0,0.0,0.0,0.0,0.0,-0.0146,-0.0292,-0.1606,-0.2336,-0.2335,-0.2333,-0.2333,-0.2333,-0.2333,-0.2333,-0.2333,-0.2333,-0.2333,-0.2333,-0.2333,-0.2333,-0.2333,-0.2333,-0.2333,-0.2333,-0.2333,-0.2333,-0.2333,-0.2333,-0.2333,-0.2333,-0.2333,-0.2333,-0.2333,-0.2333,-0.2333,-0.2333,-0.2333,-0.2333,-0.2333,-0.2333,-0.2333,-0.2333,-0.2333,-0.2333,-0.2333,-0.2333,-0.2333,-0.2333,-0.2333,-0.2333,-0.2333,-0.2333,-0.2333,-0.2333,-0.2333,-0.2333,-0.2333,-0.2333,-0.2333,-0.2333,-0.2333,-0.2333,-0.2333,-0.2333,-0.2333,-0.2333,-0.2333,-0.2333,-0.2333,-0.2333,-0.2333,-0.2333,-0.2333,-0.2333,-0.2333,-0.2333,-0.2333,-0.2333,0.8119,0.8119,0.8119,0.7994,0.7872,0.7872,0.7872,0.7872,0.7872,0.7872,0.7872,0.7945,0.819,0.8236,0.8312,0.8549,0.8587,0.8587,0.8587,0.8587,0.8587,0.8587,0.8587,0.8592,0.86,0.8609,0.7397,0.43,0.1612,0.0,0.0,0.0,0.0,0.0,0.0,0.0,0.0,0.0,0.0,-0.0,-0.0876,-0.1606,-0.2336,-0.2334,-0.2333,-0.2333,-0.2333,-0.2333,-0.2333,-0.2333,-0.2333,-0.2333,-0.2333,-0.2333,-0.2333,-0.2333,-0.2333,-0.2333,-0.2333,-0.2333,-0.2333,-0.2333,-0.2333,-0.2333,-0.2333,-0.2333,-0.2333,-0.2333,-0.2333,-0.2333,-0.2333,-0.2333,-0.2333,-0.2333,-0.2333,-0.2333,-0.2333,-0.2333,-0.2333,-0.2333,-0.2333,-0.2333,-0.2333,-0.2333,-0.2333,-0.2333,-0.2333,-0.2333,-0.2333,-0.2333,-0.2333,-0.2333,-0.2333,-0.2333,-0.2333,-0.2333,-0.2333,-0.2333,-0.2333,-0.2333,-0.2333,-0.2333,-0.2333,-0.2333,-0.2333,-0.2333,-0.2333,-0.2333,-0.2333,-0.2333,-0.2333,-0.2333,0.8491,0.8491,0.8369,0.7997,0.7994,0.7872,0.7872,0.7872,0.7872,0.7872,0.7888,0.797,0.8195,0.8253,0.8337,0.8552,0.8587,0.8587,0.8587,0.8587,0.8587,0.8587,0.8587,0.8587,0.8587,0.8603,0.8619,0.8628,0.4176,0.1085,0.0,0.0,0.0,0.0,0.0,0.0,0.0,0.0,0.0,0.0,0.0,-0.073,-0.1898,-0.2042,-0.2187,-0.2333,-0.2333,-0.2333,-0.2333,-0.2333,-0.2333,-0.2333,-0.2333,-0.2333,-0.2333,-0.2333,-0.2333,-0.2333,-0.2333,-0.2333,-0.2333,-0.2333,-0.2333,-0.2333,-0.2333,-0.2333,-0.2333,-0.2333,-0.2333,-0.2333,-0.2333,-0.2333,-0.2333,-0.2333,-0.2333,-0.2333,-0.2333,-0.2333,-0.2333,-0.2333,-0.2333,-0.2333,-0.2333,-0.2333,-0.2333,-0.2333,-0.2333,-0.2333,-0.2333,-0.2333,-0.2333,-0.2333,-0.2333,-0.2333,-0.2333,-0.2333,-0.2333,-0.2333,-0.2333,-0.2333,-0.2333,-0.2333,-0.2333,-0.2333,-0.2333,-0.2333,-0.2333,-0.2333,-0.2333,-0.2333,-0.2333,-0.2333,0.8854,0.8613,0.8369,0.8369,0.8119,0.7872,0.7872,0.7872,0.7872,0.7872,0.7956,0.8073,0.8209,0.8323,0.8437,0.8565,0.8587,0.8587,0.8587,0.8587,0.8587,0.8587,0.8587,0.8587,0.8587,0.8603,0.8619,0.8628,0.7915,0.5219,0.0275,0.0,0.0,0.0,0.0,0.0,0.0,0.0,0.0,0.0,0.0,-0.0146,-0.0292,-0.1022,-0.1752,-0.2335,-0.2334,-0.2334,-0.2335,-0.2333,-0.2334,-0.2336,-0.2336,-0.2335,-0.2333,-0.2333,-0.2333,-0.2333,-0.2333,-0.2333,-0.2333,-0.2333,-0.2333,-0.2333,-0.2333,-0.2333,-0.2333,-0.2333,-0.2333,-0.2333,-0.2333,-0.2333,-0.2333,-0.2333,-0.2333,-0.2333,-0.2333,-0.2333,-0.2333,-0.2333,-0.2333,-0.2333,-0.2333,-0.2333,-0.2333,-0.2333,-0.2333,-0.2333,-0.2333,-0.2333,-0.2333,-0.2333,-0.2333,-0.2333,-0.2333,-0.2333,-0.2333,-0.2333,-0.2333,-0.2333,-0.2333,-0.2333,-0.2333,-0.2333,-0.2333,-0.2333,-0.2333,-0.2333,-0.2333,-0.2333,-0.2333,-0.2333,0.9095,0.8854,0.8732,0.8732,0.861,0.8485,0.8485,0.8485,0.8381,0.8327,0.8318,0.8425,0.8225,0.8334,0.8454,0.8568,0.8587,0.8587,0.8587,0.8587,0.8587,0.8587,0.8587,0.8587,0.8587,0.8603,0.7962,0.6252,0.7688,0.6101,0.0281,0.0,0.0,0.0,0.0,0.0,0.0,0.0,0.0,0.0,0.0,0.0,-0.0,-0.0438,-0.073,-0.1022,-0.1459,-0.1897,-0.2336,-0.1897,-0.1751,-0.1752,-0.1752,-0.1751,-0.1751,-0.2189,-0.2334,-0.2333,-0.2333,-0.2333,-0.2333,-0.2333,-0.2333,-0.2333,-0.2333,-0.2333,-0.2333,-0.2333,-0.2333,-0.2333,-0.2333,-0.2333,-0.2333,-0.2333,-0.2333,-0.2333,-0.2333,-0.2333,-0.2333,-0.2333,-0.2333,-0.2333,-0.2333,-0.2333,-0.2333,-0.2333,-0.2333,-0.2333,-0.2333,-0.2333,-0.2333,-0.2333,-0.2333,-0.2333,-0.2333,-0.2333,-0.2333,-0.2333,-0.2333,-0.2333,-0.2333,-0.2333,-0.2333,-0.2333,-0.2333,-0.2333,-0.2333,-0.2333,-0.2333,-0.2333,-0.2333,-0.2333,0.9457,0.9217,0.8973,0.8973,0.8976,0.8854,0.8854,0.8882,0.8934,0.8658,0.8808,0.8793,0.8408,0.838,0.8489,0.8573,0.8587,0.8587,0.8587,0.8587,0.8587,0.8587,0.8587,0.859,0.8595,0.8636,0.7745,0.5623,0.6091,0.4488,0.0286,0.0,0.0,0.0,0.0,0.0,0.0,0.0,0.0,0.0,0.0,0.0,0.0,0.0,0.0,-0.0,-0.0584,-0.1168,-0.1752,-0.1606,-0.1314,-0.0876,-0.0876,-0.0876,-0.1022,-0.146,-0.1897,-0.2042,-0.2188,-0.2333,-0.2333,-0.2333,-0.2333,-0.2333,-0.2333,-0.2333,-0.2333,-0.2333,-0.2333,-0.2333,-0.2333,-0.2333,-0.2333,-0.2333,-0.2333,-0.2333,-0.2333,-0.2333,-0.2333,-0.2333,-0.2333,-0.2333,-0.2333,-0.2333,-0.2333,-0.2333,-0.2333,-0.2333,-0.2333,-0.2333,-0.2333,-0.2333,-0.2333,-0.2333,-0.2333,-0.2333,-0.2333,-0.2333,-0.2333,-0.2333,-0.2333,-0.2333,-0.2333,-0.2333,-0.2333,-0.2333,-0.2333,-0.2333,-0.2333,-0.2333,-0.2333,-0.2333,0.9822,0.9579,0.9339,0.9339,0.9095,0.8854,0.8854,0.8955,0.9053,0.9059,0.9267,0.9317,0.8926,0.8764,0.8581,0.8587,0.8587,0.8587,0.8587,0.8587,0.8587,0.8587,0.8587,0.8595,0.8611,0.859,0.8534,0.8417,0.3521,0.0286,0.0,0.0,0.0,0.0,0.0,0.0,0.0,0.0,0.0,0.0,0.0,0.0,0.0,0.0,0.0,-0.0,-0.0,-0.0146,-0.0292,-0.1606,-0.1314,-0.0,-0.0,-0.0,-0.0,-0.0146,-0.0584,-0.1313,-0.2043,-0.2335,-0.2333,-0.2333,-0.2333,-0.2333,-0.2333,-0.2333,-0.2333,-0.2333,-0.2333,-0.2333,-0.2333,-0.2333,-0.2333,-0.2333,-0.2333,-0.2333,-0.2333,-0.2333,-0.2333,-0.2333,-0.2333,-0.2333,-0.2333,-0.2333,-0.2333,-0.2333,-0.2333,-0.2333,-0.2333,-0.2333,-0.2333,-0.2333,-0.2333,-0.2333,-0.2333,-0.2333,-0.2333,-0.2333,-0.2333,-0.2333,-0.2333,-0.2333,-0.2333,-0.2333,-0.2333,-0.2333,-0.2333,-0.2333,-0.2333,-0.2333,-0.2333,-0.2333,0.9822,0.97,0.9579,0.9579,0.9579,0.9483,0.9578,0.964,0.9731,0.9659,0.9777,0.9745,0.9441,0.9091,0.8851,0.8587,0.8587,0.8587,0.8587,0.8587,0.8587,0.8587,0.8587,0.8625,0.8585,0.6981,0.6641,0.8479,0.3273,0.0,0.0,0.0,0.0,0.0,0.0,0.0,0.0,0.0,0.0,0.0,0.0,0.0,0.0,0.0,0.0,0.0,0.0,0.0,-0.0,-0.0584,-0.0438,0.0,0.0,0.0,0.0,0.0,-0.0146,-0.0438,-0.073,-0.1167,-0.1605,-0.2187,-0.2333,-0.2333,-0.2333,-0.2333,-0.2333,-0.2333,-0.2333,-0.2333,-0.2333,-0.2333,-0.2333,-0.2333,-0.2333,-0.2333,-0.2333,-0.2333,-0.2333,-0.2333,-0.2333,-0.2333,-0.2333,-0.2333,-0.2333,-0.2333,-0.2333,-0.2333,-0.2333,-0.2333,-0.2333,-0.2333,-0.2333,-0.2333,-0.2333,-0.2333,-0.2333,-0.2333,-0.2333,-0.2333,-0.2333,-0.2333,-0.2333,-0.2333,-0.2333,-0.2333,-0.2333,-0.2333,-0.2333,-0.2333,-0.2333,-0.2333,0.9822,0.9822,0.9822,0.9822,0.9859,0.9924,1.0025,1.0127,1.0126,1.0194,1.0143,1.0208,0.9911,0.9658,0.9253,0.8853,0.872,0.872,0.8587,0.8587,0.8587,0.8587,0.8587,0.8641,0.8649,0.606,0.4739,0.5574,0.2155,0.0,0.0,0.0,0.0,0.0,0.0,0.0,0.0,0.0,0.0,0.0,0.0,0.0,0.0,0.0,0.0,0.0,0.0,0.0,0.0,0.0,0.0,0.0,0.0,0.0,0.0,0.0,0.0,0.0,0.0,-0.0292,-0.0876,-0.1313,-0.1896,-0.2333,-0.2333,-0.2333,-0.2333,-0.2333,-0.2333,-0.2333,-0.2333,-0.2333,-0.2333,-0.2333,-0.2333,-0.2333,-0.2333,-0.2333,-0.2333,-0.2333,-0.2333,-0.2333,-0.2333,-0.2333,-0.2333,-0.2333,-0.2333,-0.2333,-0.2333,-0.2333,-0.2333,-0.2333,-0.2333,-0.2333,-0.2333,-0.2333,-0.2333,-0.2333,-0.2333,-0.2333,-0.2333,-0.2333,-0.2333,-0.2333,-0.2333,-0.2333,-0.2333,-0.2333,-0.2333,-0.2333,-0.2333,-0.2333,0.0,0.0,0.0,0.9825,0.9937,1.0049,1.0059,1.0283,1.0493,1.0497,1.0616,1.0588,1.0326,1.0193,0.9924,0.925,0.9117,0.8984,0.872,0.8587,0.8587,0.8587,0.859,0.8652,0.8662,0.5977,0.3097,0.0286,0.0,0.0,0.0,0.0,0.0,0.0,0.0,0.0,0.0,0.0,0.0,0.0,0.0,0.0,0.0,0.0,0.0,0.0,0.0,0.0,0.0,0.0,0.0,0.0,0.0,0.0,0.0,0.0,0.0,0.0,0.0,0.0,0.0,0.0,-0.1021,-0.2187,-0.2333,-0.2333,-0.2333,-0.2333,-0.2333,-0.2333,-0.2333,-0.2333,-0.2333,-0.2333,-0.2333,-0.2333,-0.2333,-0.2333,-0.2333,-0.2333,-0.2333,-0.2333,-0.2333,-0.2333,-0.2333,-0.2333,-0.2333,-0.2333,-0.2333,-0.2333,-0.2333,-0.2333,-0.2333,-0.2333,-0.2333,-0.2333,-0.2333,-0.2333,-0.2333,-0.2333,-0.2333,-0.2333,-0.2333,-0.2333,-0.2333,-0.2333,-0.2333,-0.2333,-0.2333,-0.2333,-0.2333,-0.2333,0.9822,0.0,0.0,0.0,0.0,0.0,1.0321,1.0432,1.0524,1.0633,1.069,1.0721,1.0588,1.0588,1.0455,0.9924,0.9386,0.9117,0.8984,0.872,0.8587,0.8587,0.8666,0.8641,0.8647,0.6061,0.3141,0.0145,0.0,0.0,0.0,0.0,0.0,0.0,0.0,0.0,0.0,0.0,0.0,0.0,0.0,0.0,0.0,0.0,0.0,0.0,0.0,0.0,0.0,0.0,0.0,0.0,0.0,0.0,0.0,0.0,0.0,0.0,0.0,0.0,0.0,0.0,-0.0292,-0.0875,-0.1897,-0.2334,-0.2333,-0.2333,-0.2333,-0.2333,-0.2333,-0.2333,-0.2333,-0.2333,-0.2333,-0.2333,-0.2333,-0.2333,-0.2333,-0.2333,-0.2333,-0.2333,-0.2333,-0.2333,-0.2333,-0.2333,-0.2333,-0.2333,-0.2333,-0.2333,-0.2333,-0.2333,-0.2333,-0.2333,-0.2333,-0.2333,-0.2333,-0.2333,-0.2333,-0.2333,-0.2333,-0.2333,-0.2333,-0.2333,-0.2333,-0.2333,-0.2333,-0.2333,-0.2333,-0.2333,-0.2333,-0.2333,0.9897,0.9917,0.9954,1.0107,0.0,0.0,1.0453,1.0541,1.0612,1.0704,1.0721,1.0721,1.0721,1.0721,1.0588,1.0455,0.9921,0.9386,0.9117,0.8984,0.872,0.8587,0.8696,0.8826,0.8828,0.6092,0.3157,0.0146,0.0,0.0,0.0,0.0,0.0,0.0,0.0,0.0,0.0,0.0,0.0,0.0,0.0,0.0,0.0,0.0,0.0,0.0,0.0,0.0,0.0,0.0,0.0,0.0,0.0,0.0,0.0,0.0,0.0,0.0,0.0,0.0,0.0,0.0,0.0,-0.0292,-0.146,-0.1897,-0.1896,-0.2188,-0.2333,-0.2333,-0.2333,-0.2333,-0.2333,-0.2333,-0.2333,-0.2333,-0.2333,-0.2333,-0.2333,-0.2333,-0.2333,-0.2333,-0.2333,-0.2333,-0.2333,-0.2333,-0.2333,-0.2333,-0.2333,-0.2333,-0.2333,-0.2333,-0.2333,-0.2333,-0.2333,-0.2333,-0.2333,-0.2333,-0.2333,-0.2333,-0.2333,-0.2333,-0.2333,-0.2333,-0.2333,-0.2333,-0.2333,-0.2333,-0.2333,-0.2333,-0.2333,-0.2333,1.0012,1.0063,1.011,1.0266,1.0399,0.0,1.0514,1.0622,1.0721,1.0721,1.0721,1.0721,1.0721,1.0721,1.0721,1.0721,1.0455,1.0054,0.9253,0.9117,0.8984,0.8587,0.8706,0.8837,0.9096,0.6524,0.3448,0.0291,0.0,0.0,0.0,0.0,0.0,0.0,0.0,0.0,0.0,0.0,0.0,0.0,0.0,0.0,0.0,0.0,0.0,0.0,0.0,0.0,0.0,0.0,0.0,0.0,0.0,0.0,0.0,0.0,0.0,0.0,0.0,0.0,0.0,0.0,0.0,-0.0146,-0.0876,-0.1022,-0.1168,-0.1898,-0.2189,-0.2333,-0.2333,-0.2333,-0.2333,-0.2333,-0.2333,-0.2333,-0.2333,-0.2333,-0.2333,-0.2333,-0.2333,-0.2333,-0.2333,-0.2333,-0.2333,-0.2333,-0.2333,-0.2333,-0.2333,-0.2333,-0.2333,-0.2333,-0.2333,-0.2333,-0.2333,-0.2333,-0.2333,-0.2333,-0.2333,-0.2333,-0.2333,-0.2333,-0.2333,-0.2333,-0.2333,-0.2333,-0.2333,-0.2333,-0.2333,-0.2333,-0.2333,-0.2333,1.0039,1.0141,1.027,1.0415,1.047,0.0,1.0649,1.07,1.0721,1.0721,1.0721,1.0721,1.0721,1.0721,1.0721,1.0721,1.0588,1.0323,0.9658,0.9253,0.8984,0.8587,0.8783,0.8929,0.9107,0.8591,0.5949,0.0436,0.0,0.0,0.0,0.0,0.0,0.0,0.0,0.0,0.0,0.0,0.0,0.0,0.0,0.0,0.0,0.0,0.0,0.0,0.0,0.0,0.0,0.0,0.0,0.0,0.0,0.0,0.0,0.0,0.0,0.0,0.0,0.0,0.0,0.0,0.0,-0.0,-0.0146,-0.0292,-0.0438,-0.1168,-0.1898,-0.2335,-0.2333,-0.2333,-0.2333,-0.2333,-0.2333,-0.2333,-0.2333,-0.2333,-0.2333,-0.2333,-0.2333,-0.2333,-0.2333,-0.2333,-0.2333,-0.2333,-0.2333,-0.2333,-0.2333,-0.2333,-0.2333,-0.2333,-0.2333,-0.2333,-0.2333,-0.2333,-0.2333,-0.2333,-0.2333,-0.2333,-0.2333,-0.2333,-0.2333,-0.2333,-0.2333,-0.2333,-0.2333,-0.2333,-0.2333,-0.2333,-0.2333,-0.2333,1.0144,1.0273,1.0422,1.0568,1.0605,0.0,0.0,1.0721,1.0721,1.0721,1.0721,1.0721,1.0721,1.0721,1.0721,1.0721,1.0721,1.0455,1.006,0.9658,0.9256,0.8853,0.8938,0.8954,0.8959,0.9185,0.6694,0.0436,0.0,0.0,0.0,0.0,0.0,0.0,0.0,0.0,0.0,0.0,0.0,0.0,0.0,0.0,0.0,0.0,0.0,0.0,0.0,0.0,0.0,0.0,0.0,0.0,0.0,0.0,0.0,0.0,0.0,0.0,0.0,0.0,0.0,0.0,0.0,0.0,0.0,0.0,-0.0146,-0.0438,-0.0876,-0.1313,-0.1605,-0.2042,-0.2334,-0.2333,-0.2333,-0.2333,-0.2333,-0.2333,-0.2333,-0.2333,-0.2333,-0.2333,-0.2333,-0.2333,-0.2333,-0.2333,-0.2333,-0.2333,-0.2333,-0.2333,-0.2333,-0.2333,-0.2333,-0.2339,-0.2354,-0.2356,-0.2362,-0.2377,-0.2378,-0.2378,-0.2378,-0.2378,-0.2371,-0.2356,-0.2356,-0.2348,-0.2333,-0.2333,-0.2333,-0.2333,-0.2333,-0.2333,1.0246,1.0405,1.0565,1.0687,1.0721,1.0721,0.0,0.0,0.0,1.0721,1.0721,1.0721,1.0721,1.0721,1.0721,1.0721,1.0721,1.0588,1.0323,1.006,0.9661,0.9253,0.9075,0.8951,0.8951,0.9182,0.6986,0.1309,0.0291,0.0,0.0,0.0,0.0,0.0,0.0,0.0,0.0,0.0,0.0,0.0,0.0,0.0,0.0,0.0,0.0,0.0,0.0,0.0,0.0,0.0,0.0,0.0,0.0,0.0,0.0,0.0,0.0,0.0,0.0,0.0,0.0,0.0,0.0,0.0,0.0,0.0,0.0,0.0,0.0,-0.0146,-0.073,-0.146,-0.1899,-0.2048,-0.2195,-0.2343,-0.2349,-0.235,-0.235,-0.235,-0.235,-0.2346,-0.2335,-0.2333,-0.2333,-0.2333,-0.2333,-0.2333,-0.2333,-0.2338,-0.2341,-0.2341,-0.2347,-0.236,-0.2385,-0.2387,-0.2397,-0.2422,-0.2423,-0.2423,-0.2423,-0.2423,-0.2412,-0.2387,-0.2387,-0.2375,-0.235,-0.235,-0.2344,-0.2333,-0.2333,-0.2333,1.0276,1.0483,1.07,1.0717,1.0721,1.0721,1.0721,0.0,1.0721,1.0721,0.0,1.0721,1.0721,0.0,0.0,1.0721,1.0721,1.0721,1.0588,1.0323,1.006,0.9661,0.9487,0.9365,0.9365,0.9322,0.7867,0.4365,0.1601,0.0,0.0,0.0,0.0,0.0,0.0,0.0,0.0,0.0,0.0,0.0,0.0,0.0,0.0,0.0,0.0,0.0,0.0,0.0,0.0,0.0,0.0,0.0,0.0,0.0,0.0,0.0,0.0,0.0,0.0,0.0,0.0,0.0,0.0,0.0,0.0,0.0,0.0,0.0,0.0,-0.0,-0.0146,-0.0146,-0.0439,-0.1183,-0.1779,-0.238,-0.2408,-0.2413,-0.2413,-0.2413,-0.2413,-0.2396,-0.2342,-0.2333,-0.2333,-0.2333,-0.2333,-0.2333,-0.2333,-0.2356,-0.2373,-0.2373,-0.2397,-0.2414,-0.2418,-0.2418,-0.242,-0.2423,-0.2423,-0.2423,-0.2423,-0.2423,-0.2422,-0.2418,-0.2418,-0.2416,-0.2413,-0.2413,-0.2386,-0.2333,-0.2333,-0.2333,1.0382,1.0558,1.0721,1.0721,1.0721,1.0721,1.0721,1.0721,1.0721,1.0721,0.0,0.0,0.0,0.0,0.0,0.0,1.0721,1.0721,1.0721,1.0588,1.0323,1.006,0.9896,0.984,0.9709,0.9405,0.8744,0.7428,0.2763,0.0,0.0,0.0,0.0,0.0,0.0,0.0,0.0,0.0,0.0,0.0,0.0,0.0,0.0,0.0,0.0,0.0,0.0,0.0,0.0,0.0,0.0,0.0,0.0,0.0,0.0,0.0,0.0,0.0,0.0,0.0,0.0,0.0,0.0,0.0,0.0,0.0,0.0,0.0,0.0,0.0,0.0,0.0,-0.0148,-0.0449,-0.0751,-0.1053,-0.1664,-0.212,-0.2424,-0.2424,-0.2423,-0.2416,-0.239,-0.2386,-0.2386,-0.2386,-0.2386,-0.2386,-0.2386,-0.2397,-0.2404,-0.2404,-0.2416,-0.2431,-0.2448,-0.245,-0.2457,-0.2475,-0.2476,-0.2476,-0.2476,-0.2476,-0.2467,-0.245,-0.245,-0.2442,-0.2423,-0.2423,-0.241,-0.2386,-0.2386,-0.2386,1.0453,1.0605,1.0721,1.0721,1.0721,1.0721,1.0721,1.0721,1.0721,1.0721,1.0721,0.0,0.0,0.0,1.0721,1.0721,0.0,1.0721,1.0721,1.0721,1.0588,1.0323,1.0302,1.0162,1.0141,0.9749,0.9468,0.9326,0.5093,0.1746,0.0146,0.0,0.0,0.0,0.0,0.0,0.0,0.0,0.0,0.0,0.0,0.0,0.0,0.0,0.0,0.0,0.0,0.0,0.0,0.0,0.0,0.0,0.0,0.0,0.0,0.0,0.0,0.0,0.0,0.0,0.0,0.0,0.0,0.0,0.0,0.0,0.0,0.0,0.0,0.0,0.0,0.0,0.0,0.0,0.0,-0.0152,-0.0764,-0.1377,-0.1989,-0.2448,-0.2448,-0.2448,-0.2448,-0.2435,-0.2423,-0.2423,-0.2423,-0.2423,-0.2423,-0.2431,-0.2436,-0.2436,-0.2444,-0.2457,-0.2479,-0.2482,-0.2491,-0.2513,-0.2515,-0.2515,-0.2515,-0.2515,-0.2504,-0.2482,-0.2482,-0.247,-0.2448,-0.2448,-0.2448,-0.2448,-0.2431,-0.2423,1.0453,1.0605,1.0721,1.0721,1.0721,1.0721,1.0721,1.0721,1.0721,1.0721,1.0721,1.0721,1.0721,1.0721,1.0721,1.0721,1.0721,0.0,0.0,1.0721,1.0721,1.0721,1.0574,1.0582,1.0428,1.0167,0.974,0.9315,0.905,0.6415,0.0291,0.0,0.0,0.0,0.0,0.0,0.0,0.0,0.0,0.0,0.0,0.0,0.0,0.0,0.0,0.0,0.0,0.0,0.0,0.0,0.0,0.0,0.0,0.0,0.0,0.0,0.0,0.0,0.0,0.0,0.0,0.0,0.0,0.0,0.0,0.0,0.0,0.0,0.0,0.0,0.0,0.0,0.0,0.0,0.0,-0.0,-0.0,-0.0,-0.0628,-0.2197,-0.2512,-0.2512,-0.2512,-0.2463,-0.2423,-0.2423,-0.2423,-0.2423,-0.2423,-0.2449,-0.2467,-0.2467,-0.2493,-0.2512,-0.2513,-0.2513,-0.2513,-0.2515,-0.2515,-0.2515,-0.2515,-0.2515,-0.2514,-0.2513,-0.2513,-0.2512,-0.2512,-0.2512,-0.2512,-0.251,-0.2451,-0.2423,1.0602,1.068,1.0721,1.0721,1.0721,1.0721,1.0721,1.0721,1.0721,1.0721,1.0721,1.0721,1.0721,1.0721,1.0721,1.0721,1.0721,1.0721,0.0,1.0721,1.0758,1.086,1.0633,1.0722,1.0868,1.0314,0.9882,0.974,0.9471,0.7432,0.3346,0.1165,0.0,0.0,0.0,0.0,0.0,0.0,0.0,0.0,0.0,0.0,0.0,0.0,0.0,0.0,0.0,0.0,0.0,0.0,0.0,0.0,0.0,0.0,0.0,0.0,0.0,0.0,0.0,0.0,0.0,0.0,0.0,0.0,0.0,0.0,0.0,0.0,0.0,0.0,0.0,0.0,0.0,0.0,0.0,0.0,0.0,0.0,-0.0157,-0.0786,-0.1257,-0.1728,-0.1886,-0.2185,-0.2484,-0.2484,-0.2484,-0.2484,-0.2484,-0.2493,-0.2499,-0.2499,-0.2508,-0.2515,-0.2515,-0.2515,-0.2515,-0.2515,-0.2515,-0.2515,-0.2515,-0.2515,-0.2515,-0.2515,-0.2515,-0.2515,-0.2515,-0.2515,-0.2515,-0.2514,-0.2493,-0.2484,1.0677,1.0721,1.0721,1.0721,1.0721,1.0721,1.0721,1.0721,1.0721,1.0721,1.0721,1.0721,1.0721,1.0721,1.0721,1.0721,1.0721,1.0721,0.0,1.0721,1.0795,1.0999,1.0829,1.0842,1.0944,1.0578,1.017,0.9879,0.946,0.8452,0.6412,0.2328,0.0,0.0,0.0,0.0,0.0,0.0,0.0,0.0,0.0,0.0,0.0,0.0,0.0,0.0,0.0,0.0,0.0,0.0,0.0,0.0,0.0,0.0,0.0,0.0,0.0,0.0,0.0,0.0,0.0,0.0,0.0,0.0,0.0,0.0,0.0,0.0,0.0,0.0,0.0,0.0,0.0,0.0,0.0,0.0,0.0,0.0,0.0,0.0,-0.0471,-0.0943,-0.1571,-0.22,-0.2515,-0.2515,-0.2515,-0.2515,-0.2515,-0.2515,-0.2515,-0.2515,-0.2515,-0.2515,-0.2515,-0.2515,-0.2515,-0.2515,-0.2515,-0.2515,-0.2515,-0.2515,-0.2515,-0.2515,-0.2515,-0.2515,-0.2515,-0.2515,-0.2515,-0.2515,-0.2515,-0.2515]}]]